Wetterdaten: Samstag, 27.04.2024
Datum Zeit Temp. I. Temp. A. Feuchte I. Feuchte A. Luftdruck Regen Wind Richtung Richtung Sonnenschein Solar Taupunkt Windchill Windböen
27.04.2024 00:00 21,4 °C 3,2 °C 49 % 90 % 1008,5 hPa 0,0 l/m² 0,0 km/h (0 Bft) W 270 ° 0 min 0 W/m² 1,7 °C 3,2 °C 0,0 km/h (0 Bft)
27.04.2024 00:02 21,4 °C 3,1 °C 49 % 89 % 1008,4 hPa 0,0 l/m² 0,0 km/h (0 Bft) W 270 ° 0 min 0 W/m² 1,5 °C 3,1 °C 0,0 km/h (0 Bft)
27.04.2024 00:03 21,5 °C 3,0 °C 49 % 90 % 1008,4 hPa 0,0 l/m² 0,0 km/h (0 Bft) W 270 ° 0 min 0 W/m² 1,5 °C 3,0 °C 0,0 km/h (0 Bft)
27.04.2024 00:05 21,4 °C 2,9 °C 49 % 89 % 1008,4 hPa 0,0 l/m² 0,0 km/h (0 Bft) W 270 ° 0 min 0 W/m² 1,3 °C 2,9 °C 0,0 km/h (0 Bft)
27.04.2024 00:07 21,5 °C 2,8 °C 49 % 90 % 1008,5 hPa 0,0 l/m² 0,0 km/h (0 Bft) W 270 ° 0 min 0 W/m² 1,3 °C 2,8 °C 0,0 km/h (0 Bft)
27.04.2024 00:09 21,5 °C 2,7 °C 49 % 90 % 1008,5 hPa 0,0 l/m² 0,0 km/h (0 Bft) W 270 ° 0 min 0 W/m² 1,2 °C 2,7 °C 0,0 km/h (0 Bft)
27.04.2024 00:10 21,4 °C 2,7 °C 49 % 90 % 1008,5 hPa 0,0 l/m² 0,0 km/h (0 Bft) W 270 ° 0 min 0 W/m² 1,2 °C 2,7 °C 0,0 km/h (0 Bft)
27.04.2024 00:12 21,5 °C 2,7 °C 49 % 90 % 1008,5 hPa 0,0 l/m² 0,0 km/h (0 Bft) W 270 ° 0 min 0 W/m² 1,2 °C 2,7 °C 0,0 km/h (0 Bft)
27.04.2024 00:14 21,5 °C 2,7 °C 49 % 90 % 1008,5 hPa 0,0 l/m² 0,0 km/h (0 Bft) W 270 ° 0 min 0 W/m² 1,2 °C 2,7 °C 0,0 km/h (0 Bft)
27.04.2024 00:15 21,5 °C 2,7 °C 49 % 90 % 1008,5 hPa 0,0 l/m² 0,0 km/h (0 Bft) W 270 ° 0 min 0 W/m² 1,2 °C 2,7 °C 0,0 km/h (0 Bft)
27.04.2024 00:16 21,5 °C 2,7 °C 49 % 90 % 1008,5 hPa 0,0 l/m² 0,0 km/h (0 Bft) W 270 ° 0 min 0 W/m² 1,2 °C 2,7 °C 0,0 km/h (0 Bft)
27.04.2024 00:18 21,4 °C 2,6 °C 49 % 90 % 1008,5 hPa 0,0 l/m² 0,0 km/h (0 Bft) W 270 ° 0 min 0 W/m² 1,1 °C 2,6 °C 0,0 km/h (0 Bft)
27.04.2024 00:20 21,5 °C 2,4 °C 49 % 89 % 1008,5 hPa 0,0 l/m² 0,0 km/h (0 Bft) W 270 ° 0 min 0 W/m² 0,8 °C 2,4 °C 0,0 km/h (0 Bft)
27.04.2024 00:23 21,5 °C 2,4 °C 49 % 90 % 1008,6 hPa 0,0 l/m² 0,0 km/h (0 Bft) W 270 ° 0 min 0 W/m² 0,9 °C 2,4 °C 0,0 km/h (0 Bft)
27.04.2024 00:25 21,5 °C 2,4 °C 49 % 90 % 1008,6 hPa 0,0 l/m² 0,0 km/h (0 Bft) W 270 ° 0 min 0 W/m² 0,9 °C 2,4 °C 0,0 km/h (0 Bft)
27.04.2024 00:27 21,5 °C 2,2 °C 49 % 90 % 1008,8 hPa 0,0 l/m² 1,9 km/h (1 Bft) W 270 ° 0 min 0 W/m² 0,7 °C 2,2 °C 3,2 km/h (1 Bft)
27.04.2024 00:29 21,5 °C 2,2 °C 49 % 90 % 1008,6 hPa 0,0 l/m² 2,6 km/h (1 Bft) W 270 ° 0 min 0 W/m² 0,7 °C 2,2 °C 3,2 km/h (1 Bft)
27.04.2024 00:32 21,5 °C 2,3 °C 49 % 90 % 1008,7 hPa 0,0 l/m² 0,4 km/h (0 Bft) W 270 ° 0 min 0 W/m² 0,8 °C 2,3 °C 3,2 km/h (1 Bft)
27.04.2024 00:33 21,5 °C 2,3 °C 49 % 91 % 1008,7 hPa 0,0 l/m² 0,0 km/h (0 Bft) W 270 ° 0 min 0 W/m² 1,0 °C 2,3 °C 0,0 km/h (0 Bft)
27.04.2024 00:34 21,5 °C 2,4 °C 49 % 91 % 1008,7 hPa 0,0 l/m² 0,3 km/h (0 Bft) W 270 ° 0 min 0 W/m² 1,1 °C 2,4 °C 1,6 km/h (1 Bft)
27.04.2024 00:35 21,5 °C 2,6 °C 49 % 91 % 1008,7 hPa 0,0 l/m² 3,2 km/h (1 Bft) W 270 ° 0 min 0 W/m² 1,3 °C 2,6 °C 4,8 km/h (1 Bft)
27.04.2024 00:37 21,5 °C 2,7 °C 49 % 91 % 1008,8 hPa 0,0 l/m² 3,3 km/h (1 Bft) W 270 ° 0 min 0 W/m² 1,4 °C 2,7 °C 4,8 km/h (1 Bft)
27.04.2024 00:39 21,5 °C 2,7 °C 49 % 91 % 1008,8 hPa 0,0 l/m² 3,8 km/h (1 Bft) W 270 ° 0 min 0 W/m² 1,4 °C 2,7 °C 6,4 km/h (2 Bft)
27.04.2024 00:42 21,5 °C 2,7 °C 49 % 91 % 1008,8 hPa 0,0 l/m² 4,6 km/h (1 Bft) W 270 ° 0 min 0 W/m² 1,4 °C 2,7 °C 6,4 km/h (2 Bft)
27.04.2024 00:43 21,5 °C 2,7 °C 49 % 91 % 1008,8 hPa 0,0 l/m² 2,8 km/h (1 Bft) W 270 ° 0 min 0 W/m² 1,4 °C 2,7 °C 4,8 km/h (1 Bft)
27.04.2024 00:44 21,5 °C 2,7 °C 49 % 91 % 1008,7 hPa 0,0 l/m² 3,2 km/h (1 Bft) W 270 ° 0 min 0 W/m² 1,4 °C 2,7 °C 4,8 km/h (1 Bft)
27.04.2024 00:45 21,5 °C 2,7 °C 49 % 91 % 1008,8 hPa 0,0 l/m² 2,9 km/h (1 Bft) W 270 ° 0 min 0 W/m² 1,4 °C 2,7 °C 4,8 km/h (1 Bft)
27.04.2024 00:46 21,5 °C 2,8 °C 49 % 91 % 1008,8 hPa 0,0 l/m² 1,2 km/h (1 Bft) W 270 ° 0 min 0 W/m² 1,5 °C 2,8 °C 1,6 km/h (1 Bft)
27.04.2024 00:48 21,5 °C 2,7 °C 49 % 91 % 1008,9 hPa 0,0 l/m² 0,0 km/h (0 Bft) W 270 ° 0 min 0 W/m² 1,4 °C 2,7 °C 0,0 km/h (0 Bft)
27.04.2024 00:50 21,5 °C 2,6 °C 49 % 90 % 1008,8 hPa 0,0 l/m² 0,0 km/h (0 Bft) W 270 ° 0 min 0 W/m² 1,1 °C 2,6 °C 0,0 km/h (0 Bft)
27.04.2024 00:53 21,5 °C 2,2 °C 49 % 89 % 1008,8 hPa 0,0 l/m² 0,0 km/h (0 Bft) W 270 ° 0 min 0 W/m² 0,6 °C 2,2 °C 0,0 km/h (0 Bft)
27.04.2024 00:55 21,5 °C 1,8 °C 49 % 89 % 1008,8 hPa 0,0 l/m² 0,0 km/h (0 Bft) W 270 ° 0 min 0 W/m² 0,2 °C 1,8 °C 0,0 km/h (0 Bft)
27.04.2024 00:57 21,5 °C 1,6 °C 49 % 90 % 1008,8 hPa 0,0 l/m² 0,0 km/h (0 Bft) W 270 ° 0 min 0 W/m² 0,1 °C 1,6 °C 0,0 km/h (0 Bft)
27.04.2024 00:59 21,5 °C 1,6 °C 49 % 90 % 1008,8 hPa 0,0 l/m² 1,3 km/h (1 Bft) W 270 ° 0 min 0 W/m² 0,1 °C 1,6 °C 3,2 km/h (1 Bft)
27.04.2024 01:01 21,5 °C 1,6 °C 49 % 91 % 1008,9 hPa 0,0 l/m² 1,8 km/h (1 Bft) W 270 ° 0 min 0 W/m² 0,3 °C 1,6 °C 3,2 km/h (1 Bft)
27.04.2024 01:02 21,5 °C 1,7 °C 49 % 91 % 1008,9 hPa 0,0 l/m² 1,1 km/h (1 Bft) W 270 ° 0 min 0 W/m² 0,4 °C 1,7 °C 1,6 km/h (1 Bft)
27.04.2024 01:03 21,5 °C 1,7 °C 49 % 91 % 1008,9 hPa 0,0 l/m² 0,1 km/h (0 Bft) W 270 ° 0 min 0 W/m² 0,4 °C 1,7 °C 1,6 km/h (1 Bft)
27.04.2024 01:04 21,5 °C 1,7 °C 49 % 91 % 1008,8 hPa 0,0 l/m² 0,0 km/h (0 Bft) W 270 ° 0 min 0 W/m² 0,4 °C 1,7 °C 0,0 km/h (0 Bft)
27.04.2024 01:06 21,5 °C 1,6 °C 49 % 91 % 1008,8 hPa 0,0 l/m² 0,0 km/h (0 Bft) W 270 ° 0 min 0 W/m² 0,3 °C 1,6 °C 0,0 km/h (0 Bft)
27.04.2024 01:08 21,5 °C 1,3 °C 49 % 90 % 1008,8 hPa 0,0 l/m² 0,0 km/h (0 Bft) W 270 ° 0 min 0 W/m² -0,2 °C 1,3 °C 0,0 km/h (0 Bft)
27.04.2024 01:10 21,5 °C 1,1 °C 49 % 90 % 1008,8 hPa 0,0 l/m² 1,4 km/h (1 Bft) W 270 ° 0 min 0 W/m² -0,4 °C 1,1 °C 3,2 km/h (1 Bft)
27.04.2024 01:13 21,5 °C 1,2 °C 49 % 91 % 1008,8 hPa 0,0 l/m² 2,7 km/h (1 Bft) W 270 ° 0 min 0 W/m² -0,1 °C 1,2 °C 4,8 km/h (1 Bft)
27.04.2024 01:15 21,5 °C 1,2 °C 49 % 91 % 1008,9 hPa 0,0 l/m² 0,2 km/h (0 Bft) W 270 ° 0 min 0 W/m² -0,1 °C 1,2 °C 1,6 km/h (1 Bft)
27.04.2024 01:17 21,5 °C 1,2 °C 49 % 91 % 1008,9 hPa 0,0 l/m² 0,6 km/h (0 Bft) W 270 ° 0 min 0 W/m² -0,1 °C 1,2 °C 3,2 km/h (1 Bft)
27.04.2024 01:19 21,5 °C 1,1 °C 49 % 91 % 1008,9 hPa 0,0 l/m² 1,7 km/h (1 Bft) W 270 ° 0 min 0 W/m² -0,2 °C 1,1 °C 3,2 km/h (1 Bft)
27.04.2024 01:21 21,5 °C 1,2 °C 49 % 91 % 1008,9 hPa 0,0 l/m² 0,3 km/h (0 Bft) W 270 ° 0 min 0 W/m² -0,1 °C 1,2 °C 1,6 km/h (1 Bft)
27.04.2024 01:22 21,5 °C 1,2 °C 49 % 92 % 1008,9 hPa 0,0 l/m² 0,0 km/h (0 Bft) W 270 ° 0 min 0 W/m² 0,0 °C 1,2 °C 0,0 km/h (0 Bft)
27.04.2024 01:23 21,5 °C 1,3 °C 49 % 92 % 1008,9 hPa 0,0 l/m² 0,0 km/h (0 Bft) W 270 ° 0 min 0 W/m² 0,1 °C 1,3 °C 0,0 km/h (0 Bft)
27.04.2024 01:24 21,5 °C 1,4 °C 49 % 92 % 1008,9 hPa 0,0 l/m² 0,0 km/h (0 Bft) W 270 ° 0 min 0 W/m² 0,2 °C 1,4 °C 0,0 km/h (0 Bft)
27.04.2024 01:25 21,4 °C 1,4 °C 49 % 92 % 1008,9 hPa 0,0 l/m² 0,0 km/h (0 Bft) W 270 ° 0 min 0 W/m² 0,2 °C 1,4 °C 0,0 km/h (0 Bft)
27.04.2024 01:26 21,5 °C 1,4 °C 49 % 92 % 1008,8 hPa 0,0 l/m² 0,0 km/h (0 Bft) W 270 ° 0 min 0 W/m² 0,2 °C 1,4 °C 0,0 km/h (0 Bft)
27.04.2024 01:27 21,5 °C 1,5 °C 49 % 92 % 1008,9 hPa 0,0 l/m² 0,0 km/h (0 Bft) W 270 ° 0 min 0 W/m² 0,3 °C 1,5 °C 0,0 km/h (0 Bft)
27.04.2024 01:28 21,5 °C 1,6 °C 49 % 92 % 1008,9 hPa 0,0 l/m² 0,0 km/h (0 Bft) W 270 ° 0 min 0 W/m² 0,4 °C 1,6 °C 0,0 km/h (0 Bft)
27.04.2024 01:29 21,5 °C 1,6 °C 49 % 92 % 1008,8 hPa 0,0 l/m² 0,0 km/h (0 Bft) W 270 ° 0 min 0 W/m² 0,4 °C 1,6 °C 0,0 km/h (0 Bft)
27.04.2024 01:31 21,5 °C 1,7 °C 49 % 92 % 1008,9 hPa 0,0 l/m² 0,0 km/h (0 Bft) W 270 ° 0 min 0 W/m² 0,5 °C 1,7 °C 0,0 km/h (0 Bft)
27.04.2024 01:33 21,5 °C 1,7 °C 49 % 92 % 1008,8 hPa 0,0 l/m² 0,0 km/h (0 Bft) W 270 ° 0 min 0 W/m² 0,5 °C 1,7 °C 0,0 km/h (0 Bft)
27.04.2024 01:34 21,5 °C 1,8 °C 49 % 92 % 1008,8 hPa 0,0 l/m² 0,0 km/h (0 Bft) W 270 ° 0 min 0 W/m² 0,6 °C 1,8 °C 0,0 km/h (0 Bft)
27.04.2024 01:35 21,4 °C 1,8 °C 49 % 92 % 1008,9 hPa 0,0 l/m² 0,0 km/h (0 Bft) W 270 ° 0 min 0 W/m² 0,6 °C 1,8 °C 0,0 km/h (0 Bft)
27.04.2024 01:36 21,5 °C 1,8 °C 49 % 92 % 1008,9 hPa 0,0 l/m² 0,0 km/h (0 Bft) W 270 ° 0 min 0 W/m² 0,6 °C 1,8 °C 0,0 km/h (0 Bft)
27.04.2024 01:37 21,4 °C 1,8 °C 49 % 92 % 1008,9 hPa 0,0 l/m² 0,0 km/h (0 Bft) W 270 ° 0 min 0 W/m² 0,6 °C 1,8 °C 0,0 km/h (0 Bft)
27.04.2024 01:38 21,5 °C 1,8 °C 49 % 92 % 1008,9 hPa 0,0 l/m² 0,0 km/h (0 Bft) W 270 ° 0 min 0 W/m² 0,6 °C 1,8 °C 0,0 km/h (0 Bft)
27.04.2024 01:39 21,5 °C 1,7 °C 49 % 92 % 1008,9 hPa 0,0 l/m² 0,0 km/h (0 Bft) W 270 ° 0 min 0 W/m² 0,5 °C 1,7 °C 0,0 km/h (0 Bft)
27.04.2024 01:41 21,5 °C 1,7 °C 49 % 92 % 1008,9 hPa 0,0 l/m² 0,0 km/h (0 Bft) W 270 ° 0 min 0 W/m² 0,5 °C 1,7 °C 0,0 km/h (0 Bft)
27.04.2024 01:43 21,4 °C 1,7 °C 49 % 92 % 1008,9 hPa 0,0 l/m² 0,0 km/h (0 Bft) W 270 ° 0 min 0 W/m² 0,5 °C 1,7 °C 0,0 km/h (0 Bft)
27.04.2024 01:44 21,5 °C 1,8 °C 49 % 92 % 1008,9 hPa 0,0 l/m² 0,0 km/h (0 Bft) W 270 ° 0 min 0 W/m² 0,6 °C 1,8 °C 0,0 km/h (0 Bft)
27.04.2024 01:45 21,4 °C 1,8 °C 49 % 92 % 1008,9 hPa 0,0 l/m² 0,0 km/h (0 Bft) W 270 ° 0 min 0 W/m² 0,6 °C 1,8 °C 0,0 km/h (0 Bft)
27.04.2024 01:46 21,5 °C 1,9 °C 49 % 92 % 1008,9 hPa 0,0 l/m² 0,0 km/h (0 Bft) W 270 ° 0 min 0 W/m² 0,7 °C 1,9 °C 0,0 km/h (0 Bft)
27.04.2024 01:47 21,5 °C 1,9 °C 49 % 92 % 1008,9 hPa 0,0 l/m² 0,0 km/h (0 Bft) W 270 ° 0 min 0 W/m² 0,7 °C 1,9 °C 0,0 km/h (0 Bft)
27.04.2024 01:48 21,5 °C 1,8 °C 49 % 92 % 1008,9 hPa 0,0 l/m² 0,0 km/h (0 Bft) W 270 ° 0 min 0 W/m² 0,6 °C 1,8 °C 0,0 km/h (0 Bft)
27.04.2024 01:49 21,4 °C 1,8 °C 49 % 92 % 1009,0 hPa 0,0 l/m² 0,0 km/h (0 Bft) W 270 ° 0 min 0 W/m² 0,6 °C 1,8 °C 0,0 km/h (0 Bft)
27.04.2024 01:51 21,4 °C 1,8 °C 49 % 92 % 1009,0 hPa 0,0 l/m² 0,0 km/h (0 Bft) W 270 ° 0 min 0 W/m² 0,6 °C 1,8 °C 0,0 km/h (0 Bft)
27.04.2024 01:53 21,4 °C 1,7 °C 49 % 92 % 1008,9 hPa 0,0 l/m² 0,0 km/h (0 Bft) W 270 ° 0 min 0 W/m² 0,5 °C 1,7 °C 0,0 km/h (0 Bft)
27.04.2024 01:54 21,5 °C 1,7 °C 49 % 92 % 1008,9 hPa 0,0 l/m² 0,0 km/h (0 Bft) W 270 ° 0 min 0 W/m² 0,5 °C 1,7 °C 0,0 km/h (0 Bft)
27.04.2024 01:55 21,4 °C 1,6 °C 49 % 92 % 1008,9 hPa 0,0 l/m² 0,0 km/h (0 Bft) W 270 ° 0 min 0 W/m² 0,4 °C 1,6 °C 0,0 km/h (0 Bft)
27.04.2024 01:56 21,4 °C 1,6 °C 49 % 92 % 1008,9 hPa 0,0 l/m² 0,0 km/h (0 Bft) W 270 ° 0 min 0 W/m² 0,4 °C 1,6 °C 0,0 km/h (0 Bft)
27.04.2024 01:57 21,5 °C 1,6 °C 49 % 92 % 1009,0 hPa 0,0 l/m² 0,0 km/h (0 Bft) W 270 ° 0 min 0 W/m² 0,4 °C 1,6 °C 0,0 km/h (0 Bft)
27.04.2024 01:58 21,4 °C 1,6 °C 49 % 92 % 1009,0 hPa 0,0 l/m² 0,0 km/h (0 Bft) W 270 ° 0 min 0 W/m² 0,4 °C 1,6 °C 0,0 km/h (0 Bft)
27.04.2024 01:59 21,4 °C 1,6 °C 49 % 92 % 1008,9 hPa 0,0 l/m² 0,0 km/h (0 Bft) W 270 ° 0 min 0 W/m² 0,4 °C 1,6 °C 0,0 km/h (0 Bft)
27.04.2024 02:01 21,5 °C 1,7 °C 49 % 92 % 1009,0 hPa 0,0 l/m² 0,0 km/h (0 Bft) W 270 ° 0 min 0 W/m² 0,5 °C 1,7 °C 0,0 km/h (0 Bft)
27.04.2024 02:03 21,5 °C 1,7 °C 49 % 92 % 1009,0 hPa 0,0 l/m² 0,0 km/h (0 Bft) W 270 ° 0 min 0 W/m² 0,5 °C 1,7 °C 0,0 km/h (0 Bft)
27.04.2024 02:04 21,4 °C 1,6 °C 49 % 92 % 1009,0 hPa 0,0 l/m² 0,0 km/h (0 Bft) W 270 ° 0 min 0 W/m² 0,4 °C 1,6 °C 0,0 km/h (0 Bft)
27.04.2024 02:05 21,4 °C 1,6 °C 49 % 92 % 1009,0 hPa 0,0 l/m² 0,0 km/h (0 Bft) W 270 ° 0 min 0 W/m² 0,4 °C 1,6 °C 0,0 km/h (0 Bft)
27.04.2024 02:06 21,4 °C 1,6 °C 49 % 92 % 1009,0 hPa 0,0 l/m² 1,1 km/h (1 Bft) W 270 ° 0 min 0 W/m² 0,4 °C 1,6 °C 1,6 km/h (1 Bft)
27.04.2024 02:07 21,4 °C 1,6 °C 49 % 92 % 1009,0 hPa 0,0 l/m² 0,0 km/h (0 Bft) W 270 ° 0 min 0 W/m² 0,4 °C 1,6 °C 0,0 km/h (0 Bft)
27.04.2024 02:08 21,4 °C 1,5 °C 49 % 92 % 1009,0 hPa 0,0 l/m² 0,0 km/h (0 Bft) W 270 ° 0 min 0 W/m² 0,3 °C 1,5 °C 0,0 km/h (0 Bft)
27.04.2024 02:09 21,4 °C 1,5 °C 49 % 92 % 1009,0 hPa 0,0 l/m² 0,0 km/h (0 Bft) W 270 ° 0 min 0 W/m² 0,3 °C 1,5 °C 0,0 km/h (0 Bft)
27.04.2024 02:11 21,4 °C 1,6 °C 49 % 92 % 1009,0 hPa 0,0 l/m² 0,0 km/h (0 Bft) W 270 ° 0 min 0 W/m² 0,4 °C 1,6 °C 0,0 km/h (0 Bft)
27.04.2024 02:13 21,4 °C 1,6 °C 49 % 92 % 1009,0 hPa 0,0 l/m² 0,0 km/h (0 Bft) W 270 ° 0 min 0 W/m² 0,4 °C 1,6 °C 0,0 km/h (0 Bft)
27.04.2024 02:14 21,4 °C 1,6 °C 49 % 92 % 1009,0 hPa 0,0 l/m² 0,0 km/h (0 Bft) W 270 ° 0 min 0 W/m² 0,4 °C 1,6 °C 0,0 km/h (0 Bft)
27.04.2024 02:15 21,4 °C 1,5 °C 49 % 92 % 1009,0 hPa 0,0 l/m² 0,0 km/h (0 Bft) W 270 ° 0 min 0 W/m² 0,3 °C 1,5 °C 0,0 km/h (0 Bft)
27.04.2024 02:16 21,4 °C 1,4 °C 49 % 92 % 1009,1 hPa 0,0 l/m² 0,0 km/h (0 Bft) W 270 ° 0 min 0 W/m² 0,2 °C 1,4 °C 0,0 km/h (0 Bft)
27.04.2024 02:17 21,4 °C 1,4 °C 49 % 92 % 1009,0 hPa 0,0 l/m² 0,0 km/h (0 Bft) W 270 ° 0 min 0 W/m² 0,2 °C 1,4 °C 0,0 km/h (0 Bft)
27.04.2024 02:18 21,4 °C 1,4 °C 49 % 92 % 1009,1 hPa 0,0 l/m² 0,0 km/h (0 Bft) W 270 ° 0 min 0 W/m² 0,2 °C 1,4 °C 0,0 km/h (0 Bft)
27.04.2024 02:19 21,4 °C 1,4 °C 49 % 92 % 1009,0 hPa 0,0 l/m² 0,0 km/h (0 Bft) W 270 ° 0 min 0 W/m² 0,2 °C 1,4 °C 0,0 km/h (0 Bft)
27.04.2024 02:21 21,4 °C 1,4 °C 49 % 92 % 1009,0 hPa 0,0 l/m² 0,0 km/h (0 Bft) W 270 ° 0 min 0 W/m² 0,2 °C 1,4 °C 0,0 km/h (0 Bft)
27.04.2024 02:23 21,4 °C 1,4 °C 49 % 92 % 1009,0 hPa 0,0 l/m² 0,0 km/h (0 Bft) W 270 ° 0 min 0 W/m² 0,2 °C 1,4 °C 0,0 km/h (0 Bft)
27.04.2024 02:24 21,4 °C 1,4 °C 49 % 92 % 1009,0 hPa 0,0 l/m² 0,0 km/h (0 Bft) W 270 ° 0 min 0 W/m² 0,2 °C 1,4 °C 0,0 km/h (0 Bft)
27.04.2024 02:25 21,4 °C 1,4 °C 49 % 92 % 1009,0 hPa 0,0 l/m² 0,0 km/h (0 Bft) W 270 ° 0 min 0 W/m² 0,2 °C 1,4 °C 0,0 km/h (0 Bft)
27.04.2024 02:26 21,4 °C 1,4 °C 49 % 92 % 1009,1 hPa 0,0 l/m² 0,0 km/h (0 Bft) W 270 ° 0 min 0 W/m² 0,2 °C 1,4 °C 0,0 km/h (0 Bft)
27.04.2024 02:27 21,4 °C 1,4 °C 49 % 92 % 1009,0 hPa 0,0 l/m² 0,0 km/h (0 Bft) W 270 ° 0 min 0 W/m² 0,2 °C 1,4 °C 0,0 km/h (0 Bft)
27.04.2024 02:28 21,4 °C 1,3 °C 49 % 92 % 1009,0 hPa 0,0 l/m² 0,0 km/h (0 Bft) W 270 ° 0 min 0 W/m² 0,1 °C 1,3 °C 0,0 km/h (0 Bft)
27.04.2024 02:29 21,4 °C 1,3 °C 49 % 92 % 1009,1 hPa 0,0 l/m² 0,0 km/h (0 Bft) W 270 ° 0 min 0 W/m² 0,1 °C 1,3 °C 0,0 km/h (0 Bft)
27.04.2024 02:31 21,4 °C 1,3 °C 49 % 92 % 1009,1 hPa 0,0 l/m² 0,0 km/h (0 Bft) W 270 ° 0 min 0 W/m² 0,1 °C 1,3 °C 0,0 km/h (0 Bft)
27.04.2024 02:33 21,4 °C 1,2 °C 49 % 92 % 1009,1 hPa 0,0 l/m² 0,0 km/h (0 Bft) W 270 ° 0 min 0 W/m² 0,0 °C 1,2 °C 0,0 km/h (0 Bft)
27.04.2024 02:34 21,4 °C 1,2 °C 49 % 92 % 1009,1 hPa 0,0 l/m² 0,0 km/h (0 Bft) W 270 ° 0 min 0 W/m² 0,0 °C 1,2 °C 0,0 km/h (0 Bft)
27.04.2024 02:35 21,4 °C 1,2 °C 49 % 92 % 1009,2 hPa 0,0 l/m² 0,0 km/h (0 Bft) W 270 ° 0 min 0 W/m² 0,0 °C 1,2 °C 0,0 km/h (0 Bft)
27.04.2024 02:36 21,4 °C 1,2 °C 49 % 92 % 1009,1 hPa 0,0 l/m² 0,0 km/h (0 Bft) W 270 ° 0 min 0 W/m² 0,0 °C 1,2 °C 0,0 km/h (0 Bft)
27.04.2024 02:37 21,4 °C 1,1 °C 49 % 92 % 1009,1 hPa 0,0 l/m² 0,0 km/h (0 Bft) W 270 ° 0 min 0 W/m² -0,1 °C 1,1 °C 0,0 km/h (0 Bft)
27.04.2024 02:38 21,4 °C 1,1 °C 49 % 92 % 1009,1 hPa 0,0 l/m² 0,0 km/h (0 Bft) W 270 ° 0 min 0 W/m² -0,1 °C 1,1 °C 0,0 km/h (0 Bft)
27.04.2024 02:39 21,4 °C 1,1 °C 49 % 92 % 1009,1 hPa 0,0 l/m² 0,0 km/h (0 Bft) W 270 ° 0 min 0 W/m² -0,1 °C 1,1 °C 0,0 km/h (0 Bft)
27.04.2024 02:41 21,4 °C 1,0 °C 49 % 92 % 1009,1 hPa 0,0 l/m² 0,0 km/h (0 Bft) W 270 ° 0 min 0 W/m² -0,2 °C 1,0 °C 0,0 km/h (0 Bft)
27.04.2024 02:43 21,4 °C 1,1 °C 49 % 92 % 1009,1 hPa 0,0 l/m² 0,0 km/h (0 Bft) W 270 ° 0 min 0 W/m² -0,1 °C 1,1 °C 0,0 km/h (0 Bft)
27.04.2024 02:44 21,4 °C 1,1 °C 49 % 92 % 1009,1 hPa 0,0 l/m² 0,0 km/h (0 Bft) W 270 ° 0 min 0 W/m² -0,1 °C 1,1 °C 0,0 km/h (0 Bft)
27.04.2024 02:45 21,4 °C 1,1 °C 49 % 92 % 1009,1 hPa 0,0 l/m² 0,0 km/h (0 Bft) W 270 ° 0 min 0 W/m² -0,1 °C 1,1 °C 0,0 km/h (0 Bft)
27.04.2024 02:46 21,4 °C 1,1 °C 49 % 92 % 1009,1 hPa 0,0 l/m² 0,0 km/h (0 Bft) W 270 ° 0 min 0 W/m² -0,1 °C 1,1 °C 0,0 km/h (0 Bft)
27.04.2024 02:47 21,4 °C 1,1 °C 49 % 92 % 1009,1 hPa 0,0 l/m² 0,0 km/h (0 Bft) W 270 ° 0 min 0 W/m² -0,1 °C 1,1 °C 0,0 km/h (0 Bft)
27.04.2024 02:48 21,4 °C 1,0 °C 49 % 92 % 1009,1 hPa 0,0 l/m² 0,0 km/h (0 Bft) W 270 ° 0 min 0 W/m² -0,2 °C 1,0 °C 0,0 km/h (0 Bft)
27.04.2024 02:49 21,4 °C 1,0 °C 49 % 92 % 1009,1 hPa 0,0 l/m² 0,0 km/h (0 Bft) W 270 ° 0 min 0 W/m² -0,2 °C 1,0 °C 0,0 km/h (0 Bft)
27.04.2024 02:51 21,4 °C 1,0 °C 49 % 92 % 1009,1 hPa 0,0 l/m² 0,0 km/h (0 Bft) W 270 ° 0 min 0 W/m² -0,2 °C 1,0 °C 0,0 km/h (0 Bft)
27.04.2024 02:53 21,4 °C 1,1 °C 49 % 92 % 1009,2 hPa 0,0 l/m² 0,0 km/h (0 Bft) W 270 ° 0 min 0 W/m² -0,1 °C 1,1 °C 0,0 km/h (0 Bft)
27.04.2024 02:54 21,4 °C 1,1 °C 49 % 92 % 1009,1 hPa 0,0 l/m² 0,0 km/h (0 Bft) W 270 ° 0 min 0 W/m² -0,1 °C 1,1 °C 0,0 km/h (0 Bft)
27.04.2024 02:55 21,4 °C 1,0 °C 49 % 92 % 1009,1 hPa 0,0 l/m² 0,0 km/h (0 Bft) W 270 ° 0 min 0 W/m² -0,2 °C 1,0 °C 0,0 km/h (0 Bft)
27.04.2024 02:56 21,4 °C 0,9 °C 49 % 92 % 1009,1 hPa 0,0 l/m² 0,0 km/h (0 Bft) W 270 ° 0 min 0 W/m² -0,2 °C 0,9 °C 0,0 km/h (0 Bft)
27.04.2024 02:57 21,4 °C 0,7 °C 49 % 91 % 1009,2 hPa 0,0 l/m² 0,0 km/h (0 Bft) W 270 ° 0 min 0 W/m² -0,6 °C 0,7 °C 0,0 km/h (0 Bft)
27.04.2024 02:58 21,4 °C 0,6 °C 49 % 91 % 1009,2 hPa 0,0 l/m² 0,0 km/h (0 Bft) W 270 ° 0 min 0 W/m² -0,7 °C 0,6 °C 0,0 km/h (0 Bft)
27.04.2024 02:59 21,4 °C 0,4 °C 49 % 91 % 1009,2 hPa 0,0 l/m² 0,0 km/h (0 Bft) W 270 ° 0 min 0 W/m² -0,9 °C 0,4 °C 0,0 km/h (0 Bft)
27.04.2024 03:00 21,4 °C 0,3 °C 49 % 91 % 1009,2 hPa 0,0 l/m² 0,0 km/h (0 Bft) W 270 ° 0 min 0 W/m² -1,0 °C 0,3 °C 0,0 km/h (0 Bft)
27.04.2024 03:01 21,4 °C 0,2 °C 49 % 92 % 1009,1 hPa 0,0 l/m² 0,0 km/h (0 Bft) N 0 ° 0 min 0 W/m² -0,9 °C 0,2 °C 0,0 km/h (0 Bft)
27.04.2024 03:08 21,4 °C 0,5 °C 49 % 92 % 1009,3 hPa 0,0 l/m² 0,0 km/h (0 Bft) W 270 ° 0 min 0 W/m² -0,6 °C 0,5 °C 0,0 km/h (0 Bft)
27.04.2024 03:09 21,4 °C 0,6 °C 49 % 93 % 1009,3 hPa 0,0 l/m² 0,0 km/h (0 Bft) W 270 ° 0 min 0 W/m² -0,4 °C 0,6 °C 0,0 km/h (0 Bft)
27.04.2024 03:11 21,4 °C 0,7 °C 49 % 93 % 1009,3 hPa 0,0 l/m² 0,0 km/h (0 Bft) W 270 ° 0 min 0 W/m² -0,3 °C 0,7 °C 0,0 km/h (0 Bft)
27.04.2024 03:12 21,4 °C 0,7 °C 49 % 92 % 1009,3 hPa 0,0 l/m² 0,0 km/h (0 Bft) W 270 ° 0 min 0 W/m² -0,4 °C 0,7 °C 0,0 km/h (0 Bft)
27.04.2024 03:13 21,4 °C 0,8 °C 49 % 92 % 1009,3 hPa 0,0 l/m² 0,0 km/h (0 Bft) W 270 ° 0 min 0 W/m² -0,3 °C 0,8 °C 0,0 km/h (0 Bft)
27.04.2024 03:15 21,4 °C 0,8 °C 49 % 93 % 1009,3 hPa 0,0 l/m² 0,0 km/h (0 Bft) W 270 ° 0 min 0 W/m² -0,2 °C 0,8 °C 0,0 km/h (0 Bft)
27.04.2024 03:17 21,4 °C 0,8 °C 49 % 93 % 1009,4 hPa 0,0 l/m² 0,0 km/h (0 Bft) W 270 ° 0 min 0 W/m² -0,2 °C 0,8 °C 0,0 km/h (0 Bft)
27.04.2024 03:19 21,4 °C 0,9 °C 49 % 92 % 1009,4 hPa 0,0 l/m² 0,0 km/h (0 Bft) W 270 ° 0 min 0 W/m² -0,2 °C 0,9 °C 0,0 km/h (0 Bft)
27.04.2024 03:20 21,4 °C 0,9 °C 49 % 92 % 1009,5 hPa 0,0 l/m² 0,0 km/h (0 Bft) W 270 ° 0 min 0 W/m² -0,2 °C 0,9 °C 0,0 km/h (0 Bft)
27.04.2024 03:22 21,4 °C 0,8 °C 49 % 92 % 1009,5 hPa 0,0 l/m² 0,0 km/h (0 Bft) W 270 ° 0 min 0 W/m² -0,3 °C 0,8 °C 0,0 km/h (0 Bft)
27.04.2024 03:23 21,4 °C 0,8 °C 49 % 92 % 1009,5 hPa 0,0 l/m² 0,0 km/h (0 Bft) W 270 ° 0 min 0 W/m² -0,3 °C 0,8 °C 0,0 km/h (0 Bft)
27.04.2024 03:25 21,4 °C 0,9 °C 49 % 92 % 1009,5 hPa 0,0 l/m² 0,0 km/h (0 Bft) W 270 ° 0 min 0 W/m² -0,2 °C 0,9 °C 0,0 km/h (0 Bft)
27.04.2024 03:27 21,4 °C 0,9 °C 49 % 93 % 1009,4 hPa 0,0 l/m² 0,0 km/h (0 Bft) W 270 ° 0 min 0 W/m² -0,1 °C 0,9 °C 0,0 km/h (0 Bft)
27.04.2024 03:29 21,4 °C 1,0 °C 49 % 93 % 1009,4 hPa 0,0 l/m² 0,0 km/h (0 Bft) W 270 ° 0 min 0 W/m² -0,0 °C 1,0 °C 0,0 km/h (0 Bft)
27.04.2024 03:31 21,4 °C 0,9 °C 49 % 93 % 1009,4 hPa 0,0 l/m² 0,0 km/h (0 Bft) W 270 ° 0 min 0 W/m² -0,1 °C 0,9 °C 0,0 km/h (0 Bft)
27.04.2024 03:32 21,4 °C 0,9 °C 49 % 93 % 1009,4 hPa 0,0 l/m² 0,0 km/h (0 Bft) W 270 ° 0 min 0 W/m² -0,1 °C 0,9 °C 0,0 km/h (0 Bft)
27.04.2024 03:33 21,4 °C 0,9 °C 49 % 93 % 1009,5 hPa 0,0 l/m² 0,0 km/h (0 Bft) W 270 ° 0 min 0 W/m² -0,1 °C 0,9 °C 0,0 km/h (0 Bft)
27.04.2024 03:34 21,4 °C 0,8 °C 49 % 92 % 1009,5 hPa 0,0 l/m² 0,0 km/h (0 Bft) W 270 ° 0 min 0 W/m² -0,3 °C 0,8 °C 0,0 km/h (0 Bft)
27.04.2024 03:36 21,4 °C 0,7 °C 49 % 92 % 1009,5 hPa 0,0 l/m² 0,0 km/h (0 Bft) W 270 ° 0 min 0 W/m² -0,4 °C 0,7 °C 0,0 km/h (0 Bft)
27.04.2024 03:38 21,4 °C 0,6 °C 49 % 92 % 1009,5 hPa 0,0 l/m² 0,0 km/h (0 Bft) W 270 ° 0 min 0 W/m² -0,5 °C 0,6 °C 0,0 km/h (0 Bft)
27.04.2024 03:40 21,4 °C 0,6 °C 49 % 92 % 1009,4 hPa 0,0 l/m² 0,0 km/h (0 Bft) W 270 ° 0 min 0 W/m² -0,5 °C 0,6 °C 0,0 km/h (0 Bft)
27.04.2024 03:41 21,4 °C 0,7 °C 49 % 93 % 1009,4 hPa 0,0 l/m² 0,0 km/h (0 Bft) W 270 ° 0 min 0 W/m² -0,3 °C 0,7 °C 0,0 km/h (0 Bft)
27.04.2024 03:42 21,4 °C 0,8 °C 49 % 93 % 1009,4 hPa 0,0 l/m² 0,0 km/h (0 Bft) W 270 ° 0 min 0 W/m² -0,2 °C 0,8 °C 0,0 km/h (0 Bft)
27.04.2024 03:43 21,4 °C 0,8 °C 49 % 93 % 1009,4 hPa 0,0 l/m² 0,0 km/h (0 Bft) W 270 ° 0 min 0 W/m² -0,2 °C 0,8 °C 0,0 km/h (0 Bft)
27.04.2024 03:45 21,4 °C 0,9 °C 49 % 93 % 1009,4 hPa 0,0 l/m² 0,0 km/h (0 Bft) W 270 ° 0 min 0 W/m² -0,1 °C 0,9 °C 0,0 km/h (0 Bft)
27.04.2024 03:48 21,4 °C 0,9 °C 49 % 93 % 1009,4 hPa 0,0 l/m² 0,0 km/h (0 Bft) W 270 ° 0 min 0 W/m² -0,1 °C 0,9 °C 0,0 km/h (0 Bft)
27.04.2024 03:50 21,4 °C 0,8 °C 49 % 92 % 1009,5 hPa 0,0 l/m² 0,0 km/h (0 Bft) W 270 ° 0 min 0 W/m² -0,3 °C 0,8 °C 0,0 km/h (0 Bft)
27.04.2024 03:51 21,4 °C 0,8 °C 49 % 92 % 1009,5 hPa 0,0 l/m² 0,0 km/h (0 Bft) W 270 ° 0 min 0 W/m² -0,3 °C 0,8 °C 0,0 km/h (0 Bft)
27.04.2024 03:52 21,4 °C 0,7 °C 49 % 92 % 1009,5 hPa 0,0 l/m² 0,0 km/h (0 Bft) W 270 ° 0 min 0 W/m² -0,4 °C 0,7 °C 0,0 km/h (0 Bft)
27.04.2024 03:53 21,4 °C 0,7 °C 49 % 92 % 1009,5 hPa 0,0 l/m² 0,0 km/h (0 Bft) W 270 ° 0 min 0 W/m² -0,4 °C 0,7 °C 0,0 km/h (0 Bft)
27.04.2024 03:55 21,4 °C 0,5 °C 49 % 92 % 1009,5 hPa 0,0 l/m² 0,0 km/h (0 Bft) W 270 ° 0 min 0 W/m² -0,6 °C 0,5 °C 0,0 km/h (0 Bft)
27.04.2024 03:57 21,4 °C 0,4 °C 49 % 92 % 1009,5 hPa 0,0 l/m² 0,0 km/h (0 Bft) W 270 ° 0 min 0 W/m² -0,7 °C 0,4 °C 0,0 km/h (0 Bft)
27.04.2024 03:59 21,4 °C 0,3 °C 49 % 92 % 1009,5 hPa 0,0 l/m² 0,0 km/h (0 Bft) W 270 ° 0 min 0 W/m² -0,8 °C 0,3 °C 0,0 km/h (0 Bft)
27.04.2024 04:01 21,4 °C 0,3 °C 49 % 92 % 1009,5 hPa 0,0 l/m² 0,0 km/h (0 Bft) W 270 ° 0 min 0 W/m² -0,8 °C 0,3 °C 0,0 km/h (0 Bft)
27.04.2024 04:02 21,4 °C 0,3 °C 49 % 92 % 1009,5 hPa 0,0 l/m² 0,0 km/h (0 Bft) W 270 ° 0 min 0 W/m² -0,8 °C 0,3 °C 0,0 km/h (0 Bft)
27.04.2024 04:03 21,4 °C 0,3 °C 49 % 92 % 1009,5 hPa 0,0 l/m² 0,0 km/h (0 Bft) W 270 ° 0 min 0 W/m² -0,8 °C 0,3 °C 0,0 km/h (0 Bft)
27.04.2024 04:04 21,4 °C 0,3 °C 49 % 93 % 1009,5 hPa 0,0 l/m² 0,0 km/h (0 Bft) W 270 ° 0 min 0 W/m² -0,7 °C 0,3 °C 0,0 km/h (0 Bft)
27.04.2024 04:06 21,4 °C 0,3 °C 49 % 92 % 1009,5 hPa 0,0 l/m² 0,0 km/h (0 Bft) W 270 ° 0 min 0 W/m² -0,8 °C 0,3 °C 0,0 km/h (0 Bft)
27.04.2024 04:08 21,4 °C 0,3 °C 49 % 93 % 1009,5 hPa 0,0 l/m² 0,0 km/h (0 Bft) W 270 ° 0 min 0 W/m² -0,7 °C 0,3 °C 0,0 km/h (0 Bft)
27.04.2024 04:10 21,4 °C 0,3 °C 49 % 93 % 1009,4 hPa 0,0 l/m² 0,0 km/h (0 Bft) W 270 ° 0 min 0 W/m² -0,7 °C 0,3 °C 0,0 km/h (0 Bft)
27.04.2024 04:11 21,4 °C 0,4 °C 49 % 93 % 1009,4 hPa 0,0 l/m² 0,0 km/h (0 Bft) W 270 ° 0 min 0 W/m² -0,6 °C 0,4 °C 0,0 km/h (0 Bft)
27.04.2024 04:13 21,4 °C 0,3 °C 49 % 93 % 1009,3 hPa 0,0 l/m² 0,0 km/h (0 Bft) W 270 ° 0 min 0 W/m² -0,7 °C 0,3 °C 0,0 km/h (0 Bft)
27.04.2024 04:14 21,4 °C 0,3 °C 49 % 93 % 1009,4 hPa 0,0 l/m² 0,0 km/h (0 Bft) W 270 ° 0 min 0 W/m² -0,7 °C 0,3 °C 0,0 km/h (0 Bft)
27.04.2024 04:16 21,4 °C 0,3 °C 49 % 93 % 1009,5 hPa 0,0 l/m² 0,0 km/h (0 Bft) W 270 ° 0 min 0 W/m² -0,7 °C 0,3 °C 0,0 km/h (0 Bft)
27.04.2024 04:18 21,4 °C 0,2 °C 49 % 92 % 1009,5 hPa 0,0 l/m² 0,0 km/h (0 Bft) W 270 ° 0 min 0 W/m² -0,9 °C 0,2 °C 0,0 km/h (0 Bft)
27.04.2024 04:20 21,4 °C -0,1 °C 49 % 92 % 1009,5 hPa 0,0 l/m² 0,0 km/h (0 Bft) W 270 ° 0 min 0 W/m² -1,2 °C -0,1 °C 0,0 km/h (0 Bft)
27.04.2024 04:21 21,4 °C -0,1 °C 49 % 92 % 1009,6 hPa 0,0 l/m² 0,0 km/h (0 Bft) W 270 ° 0 min 0 W/m² -1,2 °C -0,1 °C 0,0 km/h (0 Bft)
27.04.2024 04:23 21,4 °C -0,1 °C 49 % 92 % 1009,6 hPa 0,0 l/m² 0,0 km/h (0 Bft) W 270 ° 0 min 0 W/m² -1,2 °C -0,1 °C 0,0 km/h (0 Bft)
27.04.2024 04:24 21,4 °C -0,1 °C 49 % 92 % 1009,6 hPa 0,0 l/m² 0,0 km/h (0 Bft) W 270 ° 0 min 0 W/m² -1,2 °C -0,1 °C 0,0 km/h (0 Bft)
27.04.2024 04:26 21,4 °C 0,1 °C 49 % 93 % 1009,5 hPa 0,0 l/m² 0,0 km/h (0 Bft) W 270 ° 0 min 0 W/m² -0,9 °C 0,1 °C 0,0 km/h (0 Bft)
27.04.2024 04:28 21,4 °C 0,2 °C 49 % 93 % 1009,6 hPa 0,0 l/m² 0,0 km/h (0 Bft) W 270 ° 0 min 0 W/m² -0,8 °C 0,2 °C 0,0 km/h (0 Bft)
27.04.2024 04:30 21,4 °C 0,3 °C 49 % 93 % 1009,7 hPa 0,0 l/m² 0,0 km/h (0 Bft) W 270 ° 0 min 0 W/m² -0,7 °C 0,3 °C 0,0 km/h (0 Bft)
27.04.2024 04:31 21,4 °C 0,3 °C 49 % 93 % 1009,7 hPa 0,0 l/m² 0,0 km/h (0 Bft) W 270 ° 0 min 0 W/m² -0,7 °C 0,3 °C 0,0 km/h (0 Bft)
27.04.2024 04:33 21,4 °C 0,4 °C 49 % 93 % 1009,6 hPa 0,0 l/m² 0,0 km/h (0 Bft) W 270 ° 0 min 0 W/m² -0,6 °C 0,4 °C 0,0 km/h (0 Bft)
27.04.2024 04:34 21,4 °C 0,4 °C 49 % 93 % 1009,7 hPa 0,0 l/m² 0,0 km/h (0 Bft) W 270 ° 0 min 0 W/m² -0,6 °C 0,4 °C 0,0 km/h (0 Bft)
27.04.2024 04:36 21,4 °C 0,4 °C 49 % 93 % 1009,7 hPa 0,0 l/m² 0,0 km/h (0 Bft) W 270 ° 0 min 0 W/m² -0,6 °C 0,4 °C 0,0 km/h (0 Bft)
27.04.2024 04:38 21,4 °C 0,5 °C 49 % 93 % 1009,6 hPa 0,0 l/m² 0,0 km/h (0 Bft) W 270 ° 0 min 0 W/m² -0,5 °C 0,5 °C 0,0 km/h (0 Bft)
27.04.2024 04:40 21,4 °C 0,6 °C 49 % 93 % 1009,7 hPa 0,0 l/m² 0,0 km/h (0 Bft) W 270 ° 0 min 0 W/m² -0,4 °C 0,6 °C 0,0 km/h (0 Bft)
27.04.2024 04:41 21,4 °C 0,6 °C 49 % 93 % 1009,7 hPa 0,0 l/m² 0,0 km/h (0 Bft) W 270 ° 0 min 0 W/m² -0,4 °C 0,6 °C 0,0 km/h (0 Bft)
27.04.2024 04:43 21,4 °C 0,4 °C 49 % 93 % 1009,7 hPa 0,0 l/m² 0,0 km/h (0 Bft) W 270 ° 0 min 0 W/m² -0,6 °C 0,4 °C 0,0 km/h (0 Bft)
27.04.2024 04:44 21,4 °C 0,4 °C 49 % 93 % 1009,7 hPa 0,0 l/m² 0,0 km/h (0 Bft) W 270 ° 0 min 0 W/m² -0,6 °C 0,4 °C 0,0 km/h (0 Bft)
27.04.2024 04:46 21,4 °C 0,4 °C 49 % 93 % 1009,7 hPa 0,0 l/m² 0,0 km/h (0 Bft) W 270 ° 0 min 0 W/m² -0,6 °C 0,4 °C 0,0 km/h (0 Bft)
27.04.2024 04:48 21,4 °C 0,3 °C 49 % 93 % 1009,6 hPa 0,0 l/m² 0,0 km/h (0 Bft) W 270 ° 0 min 0 W/m² -0,7 °C 0,3 °C 0,0 km/h (0 Bft)
27.04.2024 04:50 21,4 °C 0,3 °C 49 % 92 % 1009,6 hPa 0,0 l/m² 0,0 km/h (0 Bft) W 270 ° 0 min 0 W/m² -0,8 °C 0,3 °C 0,0 km/h (0 Bft)
27.04.2024 04:51 21,4 °C 0,2 °C 49 % 92 % 1009,6 hPa 0,0 l/m² 0,0 km/h (0 Bft) W 270 ° 0 min 0 W/m² -0,9 °C 0,2 °C 0,0 km/h (0 Bft)
27.04.2024 04:53 21,4 °C 0,2 °C 49 % 93 % 1009,6 hPa 0,0 l/m² 0,0 km/h (0 Bft) W 270 ° 0 min 0 W/m² -0,8 °C 0,2 °C 0,0 km/h (0 Bft)
27.04.2024 04:54 21,4 °C 0,2 °C 49 % 93 % 1009,7 hPa 0,0 l/m² 0,0 km/h (0 Bft) W 270 ° 0 min 0 W/m² -0,8 °C 0,2 °C 0,0 km/h (0 Bft)
27.04.2024 04:56 21,4 °C 0,1 °C 49 % 93 % 1009,6 hPa 0,0 l/m² 0,0 km/h (0 Bft) W 270 ° 0 min 0 W/m² -0,9 °C 0,1 °C 0,0 km/h (0 Bft)
27.04.2024 04:58 21,4 °C -0,1 °C 49 % 92 % 1009,7 hPa 0,0 l/m² 0,0 km/h (0 Bft) W 270 ° 0 min 0 W/m² -1,2 °C -0,1 °C 0,0 km/h (0 Bft)
27.04.2024 05:00 21,4 °C -0,2 °C 49 % 92 % 1009,7 hPa 0,0 l/m² 0,0 km/h (0 Bft) W 270 ° 0 min 0 W/m² -1,3 °C -0,2 °C 0,0 km/h (0 Bft)
27.04.2024 05:01 21,4 °C -0,3 °C 49 % 92 % 1009,8 hPa 0,0 l/m² 0,0 km/h (0 Bft) W 270 ° 0 min 0 W/m² -1,4 °C -0,3 °C 0,0 km/h (0 Bft)
27.04.2024 05:03 21,4 °C -0,3 °C 49 % 93 % 1009,7 hPa 0,0 l/m² 0,0 km/h (0 Bft) W 270 ° 0 min 0 W/m² -1,3 °C -0,3 °C 0,0 km/h (0 Bft)
27.04.2024 05:04 21,4 °C -0,2 °C 49 % 93 % 1009,7 hPa 0,0 l/m² 0,0 km/h (0 Bft) W 270 ° 0 min 0 W/m² -1,2 °C -0,2 °C 0,0 km/h (0 Bft)
27.04.2024 05:06 21,4 °C -0,1 °C 49 % 93 % 1009,7 hPa 0,0 l/m² 0,0 km/h (0 Bft) W 270 ° 0 min 0 W/m² -1,1 °C -0,1 °C 0,0 km/h (0 Bft)
27.04.2024 05:08 21,4 °C 0,1 °C 49 % 93 % 1009,7 hPa 0,0 l/m² 0,0 km/h (0 Bft) W 270 ° 0 min 0 W/m² -0,9 °C 0,1 °C 0,0 km/h (0 Bft)
27.04.2024 05:10 21,4 °C 0,2 °C 49 % 93 % 1009,8 hPa 0,0 l/m² 0,0 km/h (0 Bft) W 270 ° 0 min 0 W/m² -0,8 °C 0,2 °C 0,0 km/h (0 Bft)
27.04.2024 05:11 21,4 °C 0,1 °C 49 % 93 % 1009,8 hPa 0,0 l/m² 0,0 km/h (0 Bft) W 270 ° 0 min 0 W/m² -0,9 °C 0,1 °C 0,0 km/h (0 Bft)
27.04.2024 05:13 21,4 °C 0,1 °C 49 % 93 % 1009,8 hPa 0,0 l/m² 0,0 km/h (0 Bft) W 270 ° 0 min 0 W/m² -0,9 °C 0,1 °C 0,0 km/h (0 Bft)
27.04.2024 05:14 21,4 °C 0,1 °C 49 % 93 % 1009,8 hPa 0,0 l/m² 0,0 km/h (0 Bft) W 270 ° 0 min 0 W/m² -0,9 °C 0,1 °C 0,0 km/h (0 Bft)
27.04.2024 05:16 21,4 °C 0,1 °C 49 % 93 % 1009,8 hPa 0,0 l/m² 0,0 km/h (0 Bft) W 270 ° 0 min 0 W/m² -0,9 °C 0,1 °C 0,0 km/h (0 Bft)
27.04.2024 05:18 21,4 °C 0,1 °C 49 % 93 % 1009,8 hPa 0,0 l/m² 0,0 km/h (0 Bft) W 270 ° 0 min 0 W/m² -0,9 °C 0,1 °C 0,0 km/h (0 Bft)
27.04.2024 05:20 21,4 °C -0,1 °C 49 % 93 % 1009,8 hPa 0,0 l/m² 0,0 km/h (0 Bft) W 270 ° 0 min 0 W/m² -1,1 °C -0,1 °C 0,0 km/h (0 Bft)
27.04.2024 05:21 21,4 °C -0,1 °C 49 % 93 % 1009,8 hPa 0,0 l/m² 0,0 km/h (0 Bft) W 270 ° 0 min 0 W/m² -1,1 °C -0,1 °C 0,0 km/h (0 Bft)
27.04.2024 05:23 21,4 °C -0,2 °C 49 % 93 % 1009,8 hPa 0,0 l/m² 0,0 km/h (0 Bft) W 270 ° 0 min 0 W/m² -1,2 °C -0,2 °C 0,0 km/h (0 Bft)
27.04.2024 05:24 21,4 °C -0,2 °C 49 % 93 % 1009,8 hPa 0,0 l/m² 0,0 km/h (0 Bft) W 270 ° 0 min 0 W/m² -1,2 °C -0,2 °C 0,0 km/h (0 Bft)
27.04.2024 05:26 21,4 °C -0,2 °C 49 % 93 % 1009,7 hPa 0,0 l/m² 0,0 km/h (0 Bft) W 270 ° 0 min 0 W/m² -1,2 °C -0,2 °C 0,0 km/h (0 Bft)
27.04.2024 05:28 21,4 °C -0,1 °C 49 % 93 % 1009,8 hPa 0,0 l/m² 0,0 km/h (0 Bft) W 270 ° 0 min 0 W/m² -1,1 °C -0,1 °C 0,0 km/h (0 Bft)
27.04.2024 05:30 21,4 °C -0,1 °C 49 % 93 % 1009,8 hPa 0,0 l/m² 0,0 km/h (0 Bft) W 270 ° 0 min 0 W/m² -1,1 °C -0,1 °C 0,0 km/h (0 Bft)
27.04.2024 05:31 21,4 °C -0,1 °C 49 % 93 % 1009,7 hPa 0,0 l/m² 0,0 km/h (0 Bft) W 270 ° 0 min 0 W/m² -1,1 °C -0,1 °C 0,0 km/h (0 Bft)
27.04.2024 05:33 21,4 °C -0,1 °C 49 % 93 % 1009,7 hPa 0,0 l/m² 0,0 km/h (0 Bft) W 270 ° 0 min 0 W/m² -1,1 °C -0,1 °C 0,0 km/h (0 Bft)
27.04.2024 05:34 21,4 °C -0,1 °C 49 % 93 % 1009,7 hPa 0,0 l/m² 0,0 km/h (0 Bft) W 270 ° 0 min 0 W/m² -1,1 °C -0,1 °C 0,0 km/h (0 Bft)
27.04.2024 05:36 21,4 °C -0,1 °C 49 % 93 % 1009,7 hPa 0,0 l/m² 0,0 km/h (0 Bft) W 270 ° 0 min 0 W/m² -1,1 °C -0,1 °C 0,0 km/h (0 Bft)
27.04.2024 05:38 21,4 °C -0,1 °C 49 % 93 % 1009,7 hPa 0,0 l/m² 0,0 km/h (0 Bft) W 270 ° 0 min 0 W/m² -1,1 °C -0,1 °C 0,0 km/h (0 Bft)
27.04.2024 05:40 21,4 °C -0,1 °C 49 % 93 % 1009,8 hPa 0,0 l/m² 0,0 km/h (0 Bft) W 270 ° 0 min 0 W/m² -1,1 °C -0,1 °C 0,0 km/h (0 Bft)
27.04.2024 05:41 21,4 °C -0,2 °C 49 % 93 % 1009,8 hPa 0,0 l/m² 0,0 km/h (0 Bft) W 270 ° 0 min 0 W/m² -1,2 °C -0,2 °C 0,0 km/h (0 Bft)
27.04.2024 05:43 21,4 °C -0,4 °C 49 % 93 % 1009,8 hPa 0,0 l/m² 0,0 km/h (0 Bft) W 270 ° 0 min 0 W/m² -1,4 °C -0,4 °C 0,0 km/h (0 Bft)
27.04.2024 05:44 21,4 °C -0,4 °C 49 % 93 % 1009,8 hPa 0,0 l/m² 0,0 km/h (0 Bft) W 270 ° 0 min 0 W/m² -1,4 °C -0,4 °C 0,0 km/h (0 Bft)
27.04.2024 05:46 21,4 °C -0,6 °C 49 % 93 % 1009,8 hPa 0,0 l/m² 0,0 km/h (0 Bft) W 270 ° 0 min 0 W/m² -1,6 °C -0,6 °C 0,0 km/h (0 Bft)
27.04.2024 05:48 21,4 °C -0,6 °C 49 % 93 % 1009,8 hPa 0,0 l/m² 0,0 km/h (0 Bft) W 270 ° 0 min 0 W/m² -1,6 °C -0,6 °C 0,0 km/h (0 Bft)
27.04.2024 05:50 21,4 °C -0,5 °C 49 % 93 % 1009,8 hPa 0,0 l/m² 0,0 km/h (0 Bft) W 270 ° 0 min 0 W/m² -1,5 °C -0,5 °C 0,0 km/h (0 Bft)
27.04.2024 05:51 21,4 °C -0,4 °C 49 % 93 % 1009,7 hPa 0,0 l/m² 0,0 km/h (0 Bft) W 270 ° 0 min 0 W/m² -1,4 °C -0,4 °C 0,0 km/h (0 Bft)
27.04.2024 05:53 21,4 °C -0,2 °C 49 % 93 % 1009,8 hPa 0,0 l/m² 0,0 km/h (0 Bft) W 270 ° 0 min 5 W/m² -1,2 °C -0,2 °C 0,0 km/h (0 Bft)
27.04.2024 05:54 21,4 °C -0,2 °C 49 % 93 % 1009,8 hPa 0,0 l/m² 0,0 km/h (0 Bft) W 270 ° 0 min 5 W/m² -1,2 °C -0,2 °C 0,0 km/h (0 Bft)
27.04.2024 05:56 21,4 °C -0,2 °C 49 % 93 % 1009,8 hPa 0,0 l/m² 0,0 km/h (0 Bft) W 270 ° 0 min 5 W/m² -1,2 °C -0,2 °C 0,0 km/h (0 Bft)
27.04.2024 05:58 21,4 °C -0,1 °C 49 % 93 % 1009,8 hPa 0,0 l/m² 0,0 km/h (0 Bft) W 270 ° 0 min 5 W/m² -1,1 °C -0,1 °C 0,0 km/h (0 Bft)
27.04.2024 06:00 21,4 °C -0,1 °C 49 % 93 % 1009,8 hPa 0,0 l/m² 0,0 km/h (0 Bft) W 270 ° 0 min 7 W/m² -1,1 °C -0,1 °C 0,0 km/h (0 Bft)
27.04.2024 06:01 21,4 °C -0,1 °C 49 % 93 % 1009,8 hPa 0,0 l/m² 0,0 km/h (0 Bft) W 270 ° 0 min 7 W/m² -1,1 °C -0,1 °C 0,0 km/h (0 Bft)
27.04.2024 06:03 21,3 °C 0,0 °C 49 % 93 % 1009,8 hPa 0,0 l/m² 0,0 km/h (0 Bft) W 270 ° 0 min 7 W/m² -1,0 °C 0,0 °C 0,0 km/h (0 Bft)
27.04.2024 06:04 21,4 °C 0,0 °C 49 % 93 % 1009,8 hPa 0,0 l/m² 0,0 km/h (0 Bft) W 270 ° 0 min 9 W/m² -1,0 °C 0,0 °C 0,0 km/h (0 Bft)
27.04.2024 06:06 21,4 °C 0,0 °C 49 % 93 % 1009,8 hPa 0,0 l/m² 0,0 km/h (0 Bft) W 270 ° 0 min 11 W/m² -1,0 °C 0,0 °C 0,0 km/h (0 Bft)
27.04.2024 06:08 21,4 °C -0,1 °C 49 % 93 % 1009,8 hPa 0,0 l/m² 0,0 km/h (0 Bft) W 270 ° 0 min 11 W/m² -1,1 °C -0,1 °C 0,0 km/h (0 Bft)
27.04.2024 06:10 21,4 °C -0,1 °C 49 % 93 % 1009,8 hPa 0,0 l/m² 0,0 km/h (0 Bft) W 270 ° 0 min 12 W/m² -1,1 °C -0,1 °C 0,0 km/h (0 Bft)
27.04.2024 06:11 21,4 °C -0,2 °C 49 % 93 % 1009,8 hPa 0,0 l/m² 0,0 km/h (0 Bft) W 270 ° 0 min 12 W/m² -1,2 °C -0,2 °C 0,0 km/h (0 Bft)
27.04.2024 06:13 21,3 °C -0,2 °C 49 % 93 % 1009,8 hPa 0,0 l/m² 0,0 km/h (0 Bft) W 270 ° 0 min 14 W/m² -1,2 °C -0,2 °C 0,0 km/h (0 Bft)
27.04.2024 06:15 21,3 °C -0,1 °C 49 % 93 % 1009,8 hPa 0,0 l/m² 0,0 km/h (0 Bft) W 270 ° 0 min 14 W/m² -1,1 °C -0,1 °C 0,0 km/h (0 Bft)
27.04.2024 06:17 21,3 °C -0,1 °C 49 % 93 % 1009,8 hPa 0,0 l/m² 0,0 km/h (0 Bft) W 270 ° 0 min 16 W/m² -1,1 °C -0,1 °C 0,0 km/h (0 Bft)
27.04.2024 06:19 21,4 °C -0,1 °C 49 % 93 % 1009,8 hPa 0,0 l/m² 0,0 km/h (0 Bft) W 270 ° 0 min 16 W/m² -1,1 °C -0,1 °C 0,0 km/h (0 Bft)
27.04.2024 06:21 21,3 °C 0,1 °C 49 % 93 % 1009,9 hPa 0,0 l/m² 0,0 km/h (0 Bft) W 270 ° 0 min 18 W/m² -0,9 °C 0,1 °C 0,0 km/h (0 Bft)
27.04.2024 06:22 21,4 °C 0,1 °C 49 % 93 % 1009,9 hPa 0,0 l/m² 0,0 km/h (0 Bft) W 270 ° 0 min 19 W/m² -0,9 °C 0,1 °C 0,0 km/h (0 Bft)
27.04.2024 06:23 21,3 °C 0,1 °C 49 % 93 % 1009,8 hPa 0,0 l/m² 0,0 km/h (0 Bft) W 270 ° 0 min 19 W/m² -0,9 °C 0,1 °C 0,0 km/h (0 Bft)
27.04.2024 06:24 21,3 °C 0,0 °C 49 % 93 % 1009,8 hPa 0,0 l/m² 0,0 km/h (0 Bft) W 270 ° 0 min 19 W/m² -1,0 °C 0,0 °C 0,0 km/h (0 Bft)
27.04.2024 06:26 21,3 °C 0,1 °C 49 % 93 % 1009,8 hPa 0,0 l/m² 0,0 km/h (0 Bft) W 270 ° 0 min 21 W/m² -0,9 °C 0,1 °C 0,0 km/h (0 Bft)
27.04.2024 06:28 21,3 °C 0,1 °C 49 % 93 % 1009,8 hPa 0,0 l/m² 0,0 km/h (0 Bft) W 270 ° 0 min 21 W/m² -0,9 °C 0,1 °C 0,0 km/h (0 Bft)
27.04.2024 06:30 21,4 °C 0,2 °C 49 % 93 % 1009,9 hPa 0,0 l/m² 0,0 km/h (0 Bft) W 270 ° 0 min 19 W/m² -0,8 °C 0,2 °C 0,0 km/h (0 Bft)
27.04.2024 06:31 21,3 °C 0,2 °C 49 % 93 % 1009,9 hPa 0,0 l/m² 0,0 km/h (0 Bft) W 270 ° 0 min 21 W/m² -0,8 °C 0,2 °C 0,0 km/h (0 Bft)
27.04.2024 06:33 21,4 °C 0,2 °C 49 % 93 % 1010,0 hPa 0,0 l/m² 0,0 km/h (0 Bft) W 270 ° 0 min 23 W/m² -0,8 °C 0,2 °C 0,0 km/h (0 Bft)
27.04.2024 06:34 21,4 °C 0,2 °C 49 % 93 % 1010,0 hPa 0,0 l/m² 0,0 km/h (0 Bft) W 270 ° 0 min 23 W/m² -0,8 °C 0,2 °C 0,0 km/h (0 Bft)
27.04.2024 06:36 21,3 °C 0,1 °C 49 % 93 % 1009,9 hPa 0,0 l/m² 0,0 km/h (0 Bft) W 270 ° 0 min 25 W/m² -0,9 °C 0,1 °C 0,0 km/h (0 Bft)
27.04.2024 06:38 21,3 °C 0,2 °C 49 % 93 % 1010,0 hPa 0,0 l/m² 0,0 km/h (0 Bft) W 270 ° 0 min 23 W/m² -0,8 °C 0,2 °C 0,0 km/h (0 Bft)
27.04.2024 06:40 21,3 °C 0,2 °C 49 % 93 % 1010,0 hPa 0,0 l/m² 0,0 km/h (0 Bft) W 270 ° 0 min 28 W/m² -0,8 °C 0,2 °C 0,0 km/h (0 Bft)
27.04.2024 06:41 21,3 °C 0,3 °C 49 % 93 % 1010,0 hPa 0,0 l/m² 0,0 km/h (0 Bft) W 270 ° 0 min 37 W/m² -0,7 °C 0,3 °C 0,0 km/h (0 Bft)
27.04.2024 06:43 21,3 °C 0,3 °C 49 % 93 % 1010,0 hPa 0,0 l/m² 0,0 km/h (0 Bft) W 270 ° 0 min 32 W/m² -0,7 °C 0,3 °C 0,0 km/h (0 Bft)
27.04.2024 06:44 21,3 °C 0,3 °C 49 % 93 % 1010,0 hPa 0,0 l/m² 0,0 km/h (0 Bft) W 270 ° 0 min 32 W/m² -0,7 °C 0,3 °C 0,0 km/h (0 Bft)
27.04.2024 06:47 21,3 °C 0,5 °C 49 % 93 % 1010,0 hPa 0,0 l/m² 0,0 km/h (0 Bft) W 270 ° 0 min 44 W/m² -0,5 °C 0,5 °C 0,0 km/h (0 Bft)
27.04.2024 06:49 21,3 °C 0,6 °C 49 % 94 % 1010,0 hPa 0,0 l/m² 0,0 km/h (0 Bft) W 270 ° 0 min 39 W/m² -0,3 °C 0,6 °C 0,0 km/h (0 Bft)
27.04.2024 06:51 21,3 °C 0,7 °C 49 % 93 % 1010,0 hPa 0,0 l/m² 0,0 km/h (0 Bft) W 270 ° 0 min 40 W/m² -0,3 °C 0,7 °C 0,0 km/h (0 Bft)
27.04.2024 06:52 21,3 °C 0,7 °C 49 % 93 % 1010,1 hPa 0,0 l/m² 0,0 km/h (0 Bft) W 270 ° 0 min 42 W/m² -0,3 °C 0,7 °C 0,0 km/h (0 Bft)
27.04.2024 06:53 21,3 °C 0,8 °C 49 % 93 % 1010,1 hPa 0,0 l/m² 0,0 km/h (0 Bft) W 270 ° 0 min 42 W/m² -0,2 °C 0,8 °C 0,0 km/h (0 Bft)
27.04.2024 06:54 21,3 °C 0,8 °C 49 % 94 % 1010,1 hPa 0,0 l/m² 0,0 km/h (0 Bft) W 270 ° 0 min 39 W/m² -0,1 °C 0,8 °C 0,0 km/h (0 Bft)
27.04.2024 06:56 21,3 °C 0,9 °C 49 % 94 % 1010,1 hPa 0,0 l/m² 0,0 km/h (0 Bft) W 270 ° 0 min 39 W/m² 0,0 °C 0,9 °C 0,0 km/h (0 Bft)
27.04.2024 06:58 21,3 °C 1,0 °C 49 % 94 % 1010,0 hPa 0,0 l/m² 0,0 km/h (0 Bft) W 270 ° 0 min 44 W/m² 0,1 °C 1,0 °C 0,0 km/h (0 Bft)
27.04.2024 07:00 21,3 °C 1,2 °C 49 % 94 % 1010,1 hPa 0,0 l/m² 0,0 km/h (0 Bft) W 270 ° 0 min 51 W/m² 0,3 °C 1,2 °C 0,0 km/h (0 Bft)
27.04.2024 07:01 21,3 °C 1,2 °C 49 % 94 % 1010,1 hPa 0,0 l/m² 0,0 km/h (0 Bft) W 270 ° 0 min 51 W/m² 0,3 °C 1,2 °C 0,0 km/h (0 Bft)
27.04.2024 07:03 21,3 °C 1,3 °C 49 % 94 % 1010,1 hPa 0,0 l/m² 0,0 km/h (0 Bft) W 270 ° 2 min 54 W/m² 0,4 °C 1,3 °C 0,0 km/h (0 Bft)
27.04.2024 07:04 21,3 °C 1,3 °C 49 % 94 % 1010,1 hPa 0,0 l/m² 0,0 km/h (0 Bft) W 270 ° 1 min 60 W/m² 0,4 °C 1,3 °C 0,0 km/h (0 Bft)
27.04.2024 07:06 21,3 °C 1,3 °C 49 % 94 % 1010,1 hPa 0,0 l/m² 0,0 km/h (0 Bft) W 270 ° 2 min 65 W/m² 0,4 °C 1,3 °C 0,0 km/h (0 Bft)
27.04.2024 07:08 21,3 °C 1,2 °C 49 % 93 % 1010,1 hPa 0,0 l/m² 0,0 km/h (0 Bft) W 270 ° 2 min 76 W/m² 0,2 °C 1,2 °C 0,0 km/h (0 Bft)
27.04.2024 07:10 21,3 °C 1,1 °C 49 % 93 % 1010,1 hPa 0,0 l/m² 0,0 km/h (0 Bft) W 270 ° 2 min 86 W/m² 0,1 °C 1,1 °C 0,0 km/h (0 Bft)
27.04.2024 07:11 21,3 °C 1,1 °C 49 % 93 % 1010,1 hPa 0,0 l/m² 0,0 km/h (0 Bft) W 270 ° 1 min 93 W/m² 0,1 °C 1,1 °C 0,0 km/h (0 Bft)
27.04.2024 07:13 21,3 °C 1,2 °C 49 % 93 % 1010,1 hPa 0,0 l/m² 0,0 km/h (0 Bft) W 270 ° 2 min 91 W/m² 0,2 °C 1,2 °C 0,0 km/h (0 Bft)
27.04.2024 07:15 21,3 °C 1,3 °C 49 % 94 % 1010,1 hPa 0,0 l/m² 0,0 km/h (0 Bft) W 270 ° 2 min 113 W/m² 0,4 °C 1,3 °C 0,0 km/h (0 Bft)
27.04.2024 07:17 21,3 °C 1,4 °C 49 % 94 % 1010,2 hPa 0,0 l/m² 0,0 km/h (0 Bft) W 270 ° 2 min 125 W/m² 0,5 °C 1,4 °C 0,0 km/h (0 Bft)
27.04.2024 07:19 21,3 °C 1,5 °C 49 % 94 % 1010,1 hPa 0,0 l/m² 0,0 km/h (0 Bft) W 270 ° 2 min 135 W/m² 0,6 °C 1,5 °C 0,0 km/h (0 Bft)
27.04.2024 07:21 21,3 °C 1,6 °C 49 % 94 % 1010,1 hPa 0,0 l/m² 0,0 km/h (0 Bft) W 270 ° 2 min 144 W/m² 0,7 °C 1,6 °C 0,0 km/h (0 Bft)
27.04.2024 07:23 21,3 °C 1,7 °C 49 % 94 % 1010,1 hPa 0,0 l/m² 0,0 km/h (0 Bft) W 270 ° 2 min 149 W/m² 0,8 °C 1,7 °C 0,0 km/h (0 Bft)
27.04.2024 07:25 21,3 °C 1,8 °C 49 % 94 % 1010,1 hPa 0,0 l/m² 0,0 km/h (0 Bft) W 270 ° 2 min 127 W/m² 0,9 °C 1,8 °C 0,0 km/h (0 Bft)
27.04.2024 07:27 21,3 °C 2,0 °C 49 % 94 % 1010,2 hPa 0,0 l/m² 0,0 km/h (0 Bft) W 270 ° 2 min 158 W/m² 1,1 °C 2,0 °C 0,0 km/h (0 Bft)
27.04.2024 07:29 21,3 °C 2,1 °C 49 % 94 % 1010,2 hPa 0,0 l/m² 0,0 km/h (0 Bft) W 270 ° 2 min 169 W/m² 1,2 °C 2,1 °C 0,0 km/h (0 Bft)
27.04.2024 07:31 21,3 °C 2,3 °C 49 % 94 % 1010,2 hPa 0,0 l/m² 0,0 km/h (0 Bft) W 270 ° 2 min 107 W/m² 1,4 °C 2,3 °C 0,0 km/h (0 Bft)
27.04.2024 07:33 21,3 °C 2,3 °C 49 % 94 % 1010,2 hPa 0,0 l/m² 0,0 km/h (0 Bft) W 270 ° 2 min 102 W/m² 1,4 °C 2,3 °C 0,0 km/h (0 Bft)
27.04.2024 07:35 21,3 °C 2,3 °C 49 % 94 % 1010,2 hPa 0,0 l/m² 0,0 km/h (0 Bft) W 270 ° 2 min 105 W/m² 1,4 °C 2,3 °C 0,0 km/h (0 Bft)
27.04.2024 07:37 21,3 °C 2,3 °C 49 % 94 % 1010,2 hPa 0,0 l/m² 0,0 km/h (0 Bft) W 270 ° 2 min 118 W/m² 1,4 °C 2,3 °C 0,0 km/h (0 Bft)
27.04.2024 07:39 21,3 °C 2,4 °C 49 % 94 % 1010,2 hPa 0,0 l/m² 0,0 km/h (0 Bft) W 270 ° 2 min 156 W/m² 1,5 °C 2,4 °C 0,0 km/h (0 Bft)
27.04.2024 07:41 21,3 °C 2,6 °C 49 % 94 % 1010,3 hPa 0,0 l/m² 0,0 km/h (0 Bft) W 270 ° 2 min 132 W/m² 1,7 °C 2,6 °C 0,0 km/h (0 Bft)
27.04.2024 07:43 21,3 °C 2,7 °C 49 % 94 % 1010,3 hPa 0,0 l/m² 0,0 km/h (0 Bft) W 270 ° 2 min 141 W/m² 1,8 °C 2,7 °C 0,0 km/h (0 Bft)
27.04.2024 07:45 21,3 °C 2,8 °C 49 % 94 % 1010,3 hPa 0,0 l/m² 0,0 km/h (0 Bft) W 270 ° 2 min 111 W/m² 1,9 °C 2,8 °C 0,0 km/h (0 Bft)
27.04.2024 07:47 21,3 °C 2,8 °C 49 % 94 % 1010,3 hPa 0,0 l/m² 0,0 km/h (0 Bft) W 270 ° 2 min 118 W/m² 1,9 °C 2,8 °C 0,0 km/h (0 Bft)
27.04.2024 07:49 21,3 °C 2,9 °C 49 % 94 % 1010,4 hPa 0,0 l/m² 0,0 km/h (0 Bft) W 270 ° 2 min 123 W/m² 2,0 °C 2,9 °C 0,0 km/h (0 Bft)
27.04.2024 07:51 21,3 °C 3,1 °C 49 % 94 % 1010,3 hPa 0,0 l/m² 0,0 km/h (0 Bft) W 270 ° 2 min 130 W/m² 2,2 °C 3,1 °C 0,0 km/h (0 Bft)
27.04.2024 07:53 21,3 °C 3,4 °C 49 % 94 % 1010,4 hPa 0,0 l/m² 0,0 km/h (0 Bft) W 270 ° 2 min 128 W/m² 2,5 °C 3,4 °C 0,0 km/h (0 Bft)
27.04.2024 07:55 21,3 °C 3,7 °C 49 % 94 % 1010,3 hPa 0,0 l/m² 0,0 km/h (0 Bft) W 270 ° 2 min 134 W/m² 2,8 °C 3,7 °C 0,0 km/h (0 Bft)
27.04.2024 07:57 21,3 °C 3,9 °C 49 % 94 % 1010,3 hPa 0,0 l/m² 0,0 km/h (0 Bft) W 270 ° 2 min 139 W/m² 3,0 °C 3,9 °C 0,0 km/h (0 Bft)
27.04.2024 07:59 21,3 °C 4,1 °C 49 % 94 % 1010,3 hPa 0,0 l/m² 0,0 km/h (0 Bft) W 270 ° 2 min 139 W/m² 3,2 °C 4,1 °C 0,0 km/h (0 Bft)
27.04.2024 08:01 21,3 °C 4,3 °C 49 % 94 % 1010,3 hPa 0,0 l/m² 0,0 km/h (0 Bft) W 270 ° 2 min 142 W/m² 3,4 °C 4,3 °C 0,0 km/h (0 Bft)
27.04.2024 08:03 21,3 °C 4,4 °C 49 % 94 % 1010,3 hPa 0,0 l/m² 0,0 km/h (0 Bft) W 270 ° 2 min 146 W/m² 3,5 °C 4,4 °C 0,0 km/h (0 Bft)
27.04.2024 08:05 21,3 °C 4,5 °C 49 % 93 % 1010,3 hPa 0,0 l/m² 0,0 km/h (0 Bft) W 270 ° 2 min 151 W/m² 3,5 °C 4,5 °C 0,0 km/h (0 Bft)
27.04.2024 08:07 21,3 °C 4,7 °C 49 % 94 % 1010,3 hPa 0,0 l/m² 0,0 km/h (0 Bft) W 270 ° 2 min 156 W/m² 3,8 °C 4,7 °C 0,0 km/h (0 Bft)
27.04.2024 08:09 21,3 °C 4,8 °C 49 % 93 % 1010,3 hPa 0,0 l/m² 0,0 km/h (0 Bft) W 270 ° 2 min 158 W/m² 3,8 °C 4,8 °C 0,0 km/h (0 Bft)
27.04.2024 08:11 21,3 °C 4,9 °C 49 % 93 % 1010,3 hPa 0,0 l/m² 0,0 km/h (0 Bft) W 270 ° 2 min 156 W/m² 3,9 °C 4,9 °C 0,0 km/h (0 Bft)
27.04.2024 08:13 21,3 °C 5,0 °C 49 % 93 % 1010,4 hPa 0,0 l/m² 0,0 km/h (0 Bft) W 270 ° 2 min 158 W/m² 4,0 °C 5,0 °C 0,0 km/h (0 Bft)
27.04.2024 08:15 21,3 °C 5,2 °C 49 % 93 % 1010,3 hPa 0,0 l/m² 0,0 km/h (0 Bft) W 270 ° 2 min 158 W/m² 4,2 °C 5,2 °C 0,0 km/h (0 Bft)
27.04.2024 08:17 21,3 °C 5,2 °C 49 % 93 % 1010,4 hPa 0,0 l/m² 0,0 km/h (0 Bft) W 270 ° 2 min 158 W/m² 4,2 °C 5,2 °C 0,0 km/h (0 Bft)
27.04.2024 08:19 21,3 °C 5,3 °C 49 % 93 % 1010,4 hPa 0,0 l/m² 0,0 km/h (0 Bft) W 270 ° 2 min 156 W/m² 4,3 °C 5,3 °C 0,0 km/h (0 Bft)
27.04.2024 08:21 21,3 °C 5,4 °C 49 % 93 % 1010,4 hPa 0,0 l/m² 0,0 km/h (0 Bft) W 270 ° 2 min 153 W/m² 4,4 °C 5,4 °C 0,0 km/h (0 Bft)
27.04.2024 08:23 21,4 °C 5,5 °C 49 % 93 % 1010,4 hPa 0,0 l/m² 0,0 km/h (0 Bft) W 270 ° 2 min 149 W/m² 4,5 °C 5,5 °C 0,0 km/h (0 Bft)
27.04.2024 08:25 21,4 °C 5,6 °C 49 % 93 % 1010,4 hPa 0,0 l/m² 0,0 km/h (0 Bft) W 270 ° 2 min 148 W/m² 4,6 °C 5,6 °C 0,0 km/h (0 Bft)
27.04.2024 08:27 21,4 °C 5,7 °C 49 % 93 % 1010,4 hPa 0,0 l/m² 0,0 km/h (0 Bft) W 270 ° 2 min 146 W/m² 4,7 °C 5,7 °C 0,0 km/h (0 Bft)
27.04.2024 08:29 21,4 °C 5,8 °C 50 % 92 % 1010,4 hPa 0,0 l/m² 0,0 km/h (0 Bft) W 270 ° 2 min 144 W/m² 4,6 °C 5,8 °C 0,0 km/h (0 Bft)
27.04.2024 08:31 21,4 °C 6,0 °C 50 % 92 % 1010,4 hPa 0,0 l/m² 0,0 km/h (0 Bft) W 270 ° 2 min 144 W/m² 4,8 °C 6,0 °C 0,0 km/h (0 Bft)
27.04.2024 08:33 21,4 °C 6,1 °C 50 % 92 % 1010,3 hPa 0,0 l/m² 0,0 km/h (0 Bft) W 270 ° 2 min 144 W/m² 4,9 °C 6,1 °C 0,0 km/h (0 Bft)
27.04.2024 08:35 21,4 °C 6,2 °C 50 % 91 % 1010,4 hPa 0,0 l/m² 0,0 km/h (0 Bft) W 270 ° 2 min 142 W/m² 4,8 °C 6,2 °C 0,0 km/h (0 Bft)
27.04.2024 08:37 21,4 °C 6,3 °C 50 % 91 % 1010,4 hPa 0,0 l/m² 0,0 km/h (0 Bft) W 270 ° 2 min 141 W/m² 4,9 °C 6,3 °C 0,0 km/h (0 Bft)
27.04.2024 08:39 21,4 °C 6,3 °C 50 % 91 % 1010,5 hPa 0,0 l/m² 0,0 km/h (0 Bft) W 270 ° 2 min 142 W/m² 4,9 °C 6,3 °C 0,0 km/h (0 Bft)
27.04.2024 08:41 21,4 °C 6,3 °C 50 % 91 % 1010,4 hPa 0,0 l/m² 0,0 km/h (0 Bft) W 270 ° 2 min 146 W/m² 4,9 °C 6,3 °C 0,0 km/h (0 Bft)
27.04.2024 08:43 21,4 °C 6,4 °C 50 % 92 % 1010,4 hPa 0,0 l/m² 0,0 km/h (0 Bft) W 270 ° 2 min 146 W/m² 5,2 °C 6,4 °C 0,0 km/h (0 Bft)
27.04.2024 08:45 21,4 °C 6,4 °C 50 % 91 % 1010,4 hPa 0,0 l/m² 0,0 km/h (0 Bft) W 270 ° 2 min 151 W/m² 5,0 °C 6,4 °C 0,0 km/h (0 Bft)
27.04.2024 08:47 21,4 °C 6,6 °C 50 % 92 % 1010,4 hPa 0,0 l/m² 0,0 km/h (0 Bft) W 270 ° 2 min 153 W/m² 5,4 °C 6,6 °C 0,0 km/h (0 Bft)
27.04.2024 08:49 21,4 °C 6,7 °C 50 % 92 % 1010,4 hPa 0,0 l/m² 0,0 km/h (0 Bft) W 270 ° 2 min 155 W/m² 5,5 °C 6,7 °C 0,0 km/h (0 Bft)
27.04.2024 08:51 21,4 °C 6,7 °C 50 % 91 % 1010,5 hPa 0,0 l/m² 0,0 km/h (0 Bft) W 270 ° 2 min 156 W/m² 5,3 °C 6,7 °C 0,0 km/h (0 Bft)
27.04.2024 08:53 21,4 °C 6,8 °C 50 % 92 % 1010,5 hPa 0,0 l/m² 0,0 km/h (0 Bft) W 270 ° 2 min 162 W/m² 5,6 °C 6,8 °C 0,0 km/h (0 Bft)
27.04.2024 08:55 21,4 °C 6,9 °C 50 % 92 % 1010,5 hPa 0,0 l/m² 0,0 km/h (0 Bft) W 270 ° 2 min 169 W/m² 5,7 °C 6,9 °C 0,0 km/h (0 Bft)
27.04.2024 08:57 21,4 °C 7,0 °C 50 % 92 % 1010,5 hPa 0,0 l/m² 0,0 km/h (0 Bft) W 270 ° 2 min 174 W/m² 5,8 °C 7,0 °C 0,0 km/h (0 Bft)
27.04.2024 08:59 21,4 °C 6,9 °C 50 % 92 % 1010,5 hPa 0,0 l/m² 0,0 km/h (0 Bft) W 270 ° 2 min 181 W/m² 5,7 °C 6,9 °C 0,0 km/h (0 Bft)
27.04.2024 09:01 21,4 °C 6,9 °C 50 % 92 % 1010,5 hPa 0,0 l/m² 0,0 km/h (0 Bft) W 270 ° 2 min 193 W/m² 5,7 °C 6,9 °C 0,0 km/h (0 Bft)
27.04.2024 09:03 21,4 °C 7,1 °C 50 % 92 % 1010,6 hPa 0,0 l/m² 0,0 km/h (0 Bft) W 270 ° 2 min 200 W/m² 5,9 °C 7,1 °C 0,0 km/h (0 Bft)
27.04.2024 09:05 21,4 °C 7,2 °C 50 % 91 % 1010,5 hPa 0,0 l/m² 0,0 km/h (0 Bft) W 270 ° 2 min 207 W/m² 5,8 °C 7,2 °C 0,0 km/h (0 Bft)
27.04.2024 09:07 21,4 °C 7,4 °C 50 % 92 % 1010,5 hPa 0,0 l/m² 0,0 km/h (0 Bft) W 270 ° 2 min 218 W/m² 6,2 °C 7,4 °C 0,0 km/h (0 Bft)
27.04.2024 09:09 21,5 °C 7,6 °C 50 % 92 % 1010,5 hPa 0,0 l/m² 0,0 km/h (0 Bft) W 270 ° 2 min 221 W/m² 6,4 °C 7,6 °C 0,0 km/h (0 Bft)
27.04.2024 09:11 21,4 °C 7,6 °C 51 % 91 % 1010,5 hPa 0,0 l/m² 0,0 km/h (0 Bft) W 270 ° 2 min 223 W/m² 6,2 °C 7,6 °C 0,0 km/h (0 Bft)
27.04.2024 09:13 21,5 °C 7,6 °C 51 % 90 % 1010,5 hPa 0,0 l/m² 0,0 km/h (0 Bft) W 270 ° 2 min 236 W/m² 6,1 °C 7,6 °C 0,0 km/h (0 Bft)
27.04.2024 09:15 21,5 °C 7,7 °C 51 % 91 % 1010,5 hPa 0,0 l/m² 0,0 km/h (0 Bft) W 270 ° 2 min 253 W/m² 6,3 °C 7,7 °C 0,0 km/h (0 Bft)
27.04.2024 09:17 21,5 °C 7,8 °C 51 % 91 % 1010,5 hPa 0,0 l/m² 0,0 km/h (0 Bft) W 270 ° 2 min 271 W/m² 6,4 °C 7,8 °C 0,0 km/h (0 Bft)
27.04.2024 09:19 21,5 °C 8,1 °C 51 % 91 % 1010,5 hPa 0,0 l/m² 0,6 km/h (0 Bft) W 270 ° 2 min 279 W/m² 6,7 °C 8,1 °C 1,6 km/h (1 Bft)
27.04.2024 09:21 21,5 °C 8,3 °C 51 % 90 % 1010,5 hPa 0,0 l/m² 0,0 km/h (0 Bft) W 270 ° 2 min 267 W/m² 6,8 °C 8,3 °C 0,0 km/h (0 Bft)
27.04.2024 09:23 21,6 °C 8,6 °C 51 % 90 % 1010,6 hPa 0,0 l/m² 0,0 km/h (0 Bft) W 270 ° 2 min 265 W/m² 7,1 °C 8,6 °C 1,6 km/h (1 Bft)
27.04.2024 09:25 21,6 °C 8,6 °C 51 % 88 % 1010,6 hPa 0,0 l/m² 0,0 km/h (0 Bft) W 270 ° 2 min 272 W/m² 6,7 °C 8,6 °C 0,0 km/h (0 Bft)
27.04.2024 09:27 21,6 °C 8,6 °C 51 % 88 % 1010,6 hPa 0,0 l/m² 0,0 km/h (0 Bft) W 270 ° 2 min 278 W/m² 6,7 °C 8,6 °C 0,0 km/h (0 Bft)
27.04.2024 09:29 21,6 °C 8,8 °C 51 % 88 % 1010,6 hPa 0,0 l/m² 0,0 km/h (0 Bft) W 270 ° 2 min 294 W/m² 6,9 °C 8,8 °C 0,0 km/h (0 Bft)
27.04.2024 09:31 21,6 °C 8,9 °C 51 % 88 % 1010,6 hPa 0,0 l/m² 0,0 km/h (0 Bft) W 270 ° 2 min 288 W/m² 7,0 °C 8,9 °C 0,0 km/h (0 Bft)
27.04.2024 09:33 21,6 °C 8,8 °C 51 % 86 % 1010,6 hPa 0,0 l/m² 0,0 km/h (0 Bft) W 270 ° 2 min 288 W/m² 6,6 °C 8,8 °C 0,0 km/h (0 Bft)
27.04.2024 09:35 21,6 °C 9,0 °C 51 % 88 % 1010,6 hPa 0,0 l/m² 0,0 km/h (0 Bft) W 270 ° 2 min 285 W/m² 7,1 °C 9,0 °C 1,6 km/h (1 Bft)
27.04.2024 09:37 21,6 °C 9,1 °C 51 % 88 % 1010,7 hPa 0,0 l/m² 0,0 km/h (0 Bft) W 270 ° 2 min 346 W/m² 7,2 °C 9,1 °C 0,0 km/h (0 Bft)
27.04.2024 09:39 21,6 °C 9,1 °C 51 % 87 % 1010,6 hPa 0,0 l/m² 0,0 km/h (0 Bft) W 270 ° 2 min 362 W/m² 7,1 °C 9,1 °C 0,0 km/h (0 Bft)
27.04.2024 09:41 21,6 °C 9,1 °C 51 % 87 % 1010,6 hPa 0,0 l/m² 0,0 km/h (0 Bft) W 270 ° 2 min 461 W/m² 7,1 °C 9,1 °C 0,0 km/h (0 Bft)
27.04.2024 09:43 21,6 °C 9,4 °C 51 % 88 % 1010,7 hPa 0,0 l/m² 0,0 km/h (0 Bft) W 270 ° 2 min 413 W/m² 7,5 °C 9,4 °C 0,0 km/h (0 Bft)
27.04.2024 09:45 21,6 °C 9,6 °C 51 % 87 % 1010,6 hPa 0,0 l/m² 0,1 km/h (0 Bft) W 270 ° 2 min 591 W/m² 7,5 °C 9,6 °C 1,6 km/h (1 Bft)
27.04.2024 09:47 21,6 °C 9,7 °C 51 % 86 % 1010,6 hPa 0,0 l/m² 0,0 km/h (0 Bft) W 270 ° 2 min 578 W/m² 7,5 °C 9,7 °C 1,6 km/h (1 Bft)
27.04.2024 09:49 21,6 °C 10,1 °C 51 % 86 % 1010,7 hPa 0,0 l/m² 0,0 km/h (0 Bft) W 270 ° 2 min 580 W/m² 7,9 °C 10,1 °C 0,0 km/h (0 Bft)
27.04.2024 09:51 21,6 °C 10,3 °C 51 % 85 % 1010,7 hPa 0,0 l/m² 0,0 km/h (0 Bft) W 270 ° 2 min 584 W/m² 7,9 °C 10,3 °C 1,6 km/h (1 Bft)
27.04.2024 09:53 21,6 °C 10,7 °C 51 % 86 % 1010,6 hPa 0,0 l/m² 1,7 km/h (1 Bft) W 270 ° 2 min 585 W/m² 8,5 °C 10,7 °C 4,8 km/h (1 Bft)
27.04.2024 09:55 21,6 °C 10,8 °C 51 % 84 % 1010,6 hPa 0,0 l/m² 1,0 km/h (0 Bft) W 270 ° 2 min 594 W/m² 8,2 °C 10,8 °C 3,2 km/h (1 Bft)
27.04.2024 09:57 21,6 °C 11,0 °C 51 % 83 % 1010,6 hPa 0,0 l/m² 0,1 km/h (0 Bft) W 270 ° 2 min 598 W/m² 8,2 °C 11,0 °C 1,6 km/h (1 Bft)
27.04.2024 09:59 21,7 °C 11,1 °C 51 % 82 % 1010,6 hPa 0,0 l/m² 0,3 km/h (0 Bft) W 270 ° 2 min 601 W/m² 8,1 °C 11,1 °C 1,6 km/h (1 Bft)
27.04.2024 10:01 21,7 °C 11,3 °C 51 % 83 % 1010,6 hPa 0,0 l/m² 0,7 km/h (0 Bft) W 270 ° 2 min 608 W/m² 8,5 °C 11,3 °C 3,2 km/h (1 Bft)
27.04.2024 10:03 21,7 °C 11,8 °C 51 % 81 % 1010,6 hPa 0,0 l/m² 0,6 km/h (0 Bft) W 270 ° 2 min 613 W/m² 8,6 °C 11,8 °C 3,2 km/h (1 Bft)
27.04.2024 10:05 21,7 °C 11,8 °C 51 % 80 % 1010,6 hPa 0,0 l/m² 1,6 km/h (1 Bft) W 270 ° 2 min 619 W/m² 8,5 °C 11,8 °C 3,2 km/h (1 Bft)
27.04.2024 10:07 21,7 °C 11,9 °C 51 % 80 % 1010,6 hPa 0,0 l/m² 0,3 km/h (0 Bft) W 270 ° 2 min 622 W/m² 8,6 °C 11,9 °C 1,6 km/h (1 Bft)
27.04.2024 10:09 21,7 °C 12,2 °C 51 % 79 % 1010,7 hPa 0,0 l/m² 0,0 km/h (0 Bft) W 270 ° 2 min 626 W/m² 8,7 °C 12,2 °C 0,0 km/h (0 Bft)
27.04.2024 10:11 21,7 °C 12,5 °C 51 % 78 % 1010,6 hPa 0,0 l/m² 0,2 km/h (0 Bft) W 270 ° 2 min 629 W/m² 8,8 °C 12,5 °C 1,6 km/h (1 Bft)
27.04.2024 10:13 21,7 °C 12,9 °C 50 % 79 % 1010,7 hPa 0,0 l/m² 0,2 km/h (0 Bft) W 270 ° 2 min 640 W/m² 9,3 °C 12,9 °C 3,2 km/h (1 Bft)
27.04.2024 10:15 21,7 °C 13,2 °C 50 % 78 % 1010,6 hPa 0,0 l/m² 1,4 km/h (1 Bft) W 270 ° 2 min 643 W/m² 9,4 °C 13,2 °C 4,8 km/h (1 Bft)
27.04.2024 10:17 21,7 °C 13,2 °C 50 % 75 % 1010,7 hPa 0,0 l/m² 0,0 km/h (0 Bft) W 270 ° 2 min 654 W/m² 8,9 °C 13,2 °C 0,0 km/h (0 Bft)
27.04.2024 10:19 21,7 °C 13,4 °C 50 % 76 % 1010,7 hPa 0,0 l/m² 0,6 km/h (0 Bft) W 270 ° 2 min 652 W/m² 9,3 °C 13,4 °C 3,2 km/h (1 Bft)
27.04.2024 10:21 21,7 °C 13,7 °C 50 % 75 % 1010,6 hPa 0,0 l/m² 0,0 km/h (0 Bft) W 270 ° 2 min 656 W/m² 9,3 °C 13,7 °C 0,0 km/h (0 Bft)
27.04.2024 10:23 21,7 °C 13,9 °C 50 % 73 % 1010,6 hPa 0,0 l/m² 0,9 km/h (0 Bft) W 270 ° 2 min 657 W/m² 9,1 °C 13,9 °C 3,2 km/h (1 Bft)
27.04.2024 10:25 21,7 °C 13,8 °C 50 % 71 % 1010,7 hPa 0,0 l/m² 1,4 km/h (1 Bft) W 270 ° 2 min 664 W/m² 8,6 °C 13,8 °C 4,8 km/h (1 Bft)
27.04.2024 10:27 21,7 °C 14,2 °C 50 % 73 % 1010,6 hPa 0,0 l/m² 1,0 km/h (0 Bft) W 270 ° 2 min 670 W/m² 9,4 °C 14,2 °C 3,2 km/h (1 Bft)
27.04.2024 10:29 21,7 °C 14,3 °C 50 % 71 % 1010,6 hPa 0,0 l/m² 0,5 km/h (0 Bft) W 270 ° 2 min 677 W/m² 9,1 °C 14,3 °C 3,2 km/h (1 Bft)
27.04.2024 10:31 21,7 °C 14,3 °C 50 % 71 % 1010,7 hPa 0,0 l/m² 1,3 km/h (1 Bft) W 270 ° 2 min 680 W/m² 9,1 °C 14,3 °C 4,8 km/h (1 Bft)
27.04.2024 10:33 21,7 °C 14,4 °C 50 % 70 % 1010,6 hPa 0,0 l/m² 4,6 km/h (1 Bft) S 190 ° 2 min 684 W/m² 9,0 °C 14,4 °C 9,7 km/h (2 Bft)
27.04.2024 10:35 21,7 °C 14,7 °C 50 % 72 % 1010,7 hPa 0,0 l/m² 4,5 km/h (1 Bft) S 175 ° 2 min 687 W/m² 9,7 °C 14,7 °C 9,7 km/h (2 Bft)
27.04.2024 10:37 21,7 °C 15,1 °C 50 % 71 % 1010,6 hPa 0,0 l/m² 5,6 km/h (2 Bft) S 178 ° 2 min 689 W/m² 9,9 °C 15,1 °C 8,0 km/h (2 Bft)
27.04.2024 10:39 21,7 °C 14,9 °C 50 % 67 % 1010,6 hPa 0,0 l/m² 3,5 km/h (1 Bft) S-SW 200 ° 2 min 694 W/m² 8,8 °C 14,9 °C 4,8 km/h (1 Bft)
27.04.2024 10:41 21,7 °C 15,1 °C 50 % 71 % 1010,7 hPa 0,0 l/m² 4,3 km/h (1 Bft) O-SO 119 ° 2 min 700 W/m² 9,9 °C 15,1 °C 8,0 km/h (2 Bft)
27.04.2024 10:43 21,7 °C 15,5 °C 50 % 68 % 1010,6 hPa 0,0 l/m² 6,9 km/h (2 Bft) S-SO 155 ° 2 min 703 W/m² 9,6 °C 15,2 °C 9,7 km/h (2 Bft)
27.04.2024 10:45 21,7 °C 15,8 °C 49 % 65 % 1010,6 hPa 0,0 l/m² 6,2 km/h (2 Bft) S-SW 198 ° 2 min 707 W/m² 9,2 °C 15,8 °C 11,3 km/h (2 Bft)
27.04.2024 10:47 21,7 °C 15,8 °C 49 % 66 % 1010,6 hPa 0,0 l/m² 8,2 km/h (2 Bft) S 180 ° 2 min 712 W/m² 9,5 °C 14,8 °C 16,1 km/h (3 Bft)
27.04.2024 10:49 21,7 °C 15,9 °C 49 % 66 % 1010,6 hPa 0,0 l/m² 7,5 km/h (2 Bft) SO 146 ° 2 min 715 W/m² 9,6 °C 15,3 °C 16,1 km/h (3 Bft)
27.04.2024 10:51 21,7 °C 15,9 °C 49 % 66 % 1010,6 hPa 0,0 l/m² 5,8 km/h (2 Bft) O-SO 123 ° 2 min 719 W/m² 9,6 °C 15,9 °C 11,3 km/h (2 Bft)
27.04.2024 10:53 21,7 °C 16,0 °C 49 % 66 % 1010,6 hPa 0,0 l/m² 5,8 km/h (2 Bft) SO 138 ° 2 min 722 W/m² 9,7 °C 16,0 °C 11,3 km/h (2 Bft)
27.04.2024 10:55 21,7 °C 16,0 °C 49 % 66 % 1010,6 hPa 0,0 l/m² 4,7 km/h (1 Bft) SO 132 ° 2 min 724 W/m² 9,7 °C 16,0 °C 8,0 km/h (2 Bft)
27.04.2024 10:57 21,7 °C 16,2 °C 49 % 66 % 1010,5 hPa 0,0 l/m² 5,7 km/h (2 Bft) S 173 ° 2 min 726 W/m² 9,8 °C 16,2 °C 9,7 km/h (2 Bft)
27.04.2024 10:59 21,8 °C 16,4 °C 48 % 65 % 1010,6 hPa 0,0 l/m² 6,8 km/h (2 Bft) O-SO 119 ° 2 min 735 W/m² 9,8 °C 16,2 °C 11,3 km/h (2 Bft)
27.04.2024 11:01 21,8 °C 16,1 °C 48 % 62 % 1010,6 hPa 0,0 l/m² 5,0 km/h (1 Bft) O-SO 121 ° 2 min 733 W/m² 8,8 °C 16,1 °C 9,7 km/h (2 Bft)
27.04.2024 11:03 21,8 °C 16,3 °C 48 % 67 % 1010,6 hPa 0,0 l/m² 8,5 km/h (2 Bft) S-SO 155 ° 2 min 737 W/m² 10,2 °C 15,2 °C 14,5 km/h (3 Bft)
27.04.2024 11:05 21,8 °C 16,6 °C 48 % 64 % 1010,6 hPa 0,0 l/m² 11,0 km/h (2 Bft) S-SO 157 ° 2 min 744 W/m² 9,8 °C 14,5 °C 16,1 km/h (3 Bft)
27.04.2024 11:07 21,8 °C 16,6 °C 48 % 64 % 1010,6 hPa 0,0 l/m² 8,6 km/h (2 Bft) SO 128 ° 2 min 742 W/m² 9,8 °C 15,5 °C 11,3 km/h (2 Bft)
27.04.2024 11:09 21,7 °C 16,7 °C 48 % 66 % 1010,5 hPa 0,0 l/m² 4,5 km/h (1 Bft) S-SO 149 ° 2 min 749 W/m² 10,3 °C 16,7 °C 11,3 km/h (2 Bft)
27.04.2024 11:11 21,8 °C 16,9 °C 47 % 61 % 1010,5 hPa 0,0 l/m² 6,8 km/h (2 Bft) SO 134 ° 2 min 749 W/m² 9,3 °C 16,7 °C 11,3 km/h (2 Bft)
27.04.2024 11:13 21,8 °C 16,9 °C 47 % 62 % 1010,6 hPa 0,0 l/m² 10,4 km/h (2 Bft) SO 131 ° 2 min 749 W/m² 9,6 °C 15,1 °C 17,7 km/h (3 Bft)
27.04.2024 11:15 21,7 °C 16,8 °C 47 % 61 % 1010,6 hPa 0,0 l/m² 6,2 km/h (2 Bft) O-SO 115 ° 2 min 756 W/m² 9,2 °C 16,8 °C 12,9 km/h (3 Bft)
27.04.2024 11:17 21,7 °C 16,8 °C 46 % 61 % 1010,6 hPa 0,0 l/m² 5,2 km/h (1 Bft) S-SW 200 ° 2 min 763 W/m² 9,2 °C 16,8 °C 12,9 km/h (3 Bft)
27.04.2024 11:19 21,7 °C 16,9 °C 46 % 63 % 1010,6 hPa 0,0 l/m² 13,1 km/h (3 Bft) SO 138 ° 2 min 759 W/m² 9,8 °C 14,1 °C 19,3 km/h (3 Bft)
27.04.2024 11:21 21,7 °C 17,1 °C 46 % 62 % 1010,6 hPa 0,0 l/m² 12,9 km/h (3 Bft) SO 128 ° 2 min 765 W/m² 9,8 °C 14,4 °C 17,7 km/h (3 Bft)
27.04.2024 11:23 21,7 °C 17,2 °C 46 % 63 % 1010,5 hPa 0,0 l/m² 9,2 km/h (2 Bft) S-SO 159 ° 2 min 773 W/m² 10,1 °C 15,9 °C 17,7 km/h (3 Bft)
27.04.2024 11:25 21,7 °C 17,3 °C 46 % 60 % 1010,5 hPa 0,0 l/m² 13,4 km/h (3 Bft) SO 134 ° 2 min 773 W/m² 9,5 °C 14,5 °C 24,1 km/h (4 Bft)
27.04.2024 11:27 21,7 °C 17,3 °C 46 % 63 % 1010,5 hPa 0,0 l/m² 13,5 km/h (3 Bft) S-SO 163 ° 2 min 777 W/m² 10,2 °C 14,4 °C 20,9 km/h (4 Bft)
27.04.2024 11:29 21,7 °C 17,3 °C 45 % 61 % 1010,5 hPa 0,0 l/m² 15,1 km/h (3 Bft) S-SO 154 ° 2 min 779 W/m² 9,7 °C 13,9 °C 19,3 km/h (3 Bft)
27.04.2024 11:31 21,7 °C 17,2 °C 45 % 62 % 1010,7 hPa 0,0 l/m² 11,9 km/h (2 Bft) S-SO 162 ° 2 min 782 W/m² 9,9 °C 14,8 °C 19,3 km/h (3 Bft)
27.04.2024 11:33 21,7 °C 17,2 °C 45 % 60 % 1010,6 hPa 0,0 l/m² 10,0 km/h (2 Bft) S-SO 165 ° 2 min 786 W/m² 9,4 °C 15,5 °C 16,1 km/h (3 Bft)
27.04.2024 11:35 21,7 °C 17,4 °C 45 % 61 % 1010,5 hPa 0,0 l/m² 12,5 km/h (2 Bft) S-SO 153 ° 2 min 789 W/m² 9,8 °C 14,9 °C 19,3 km/h (3 Bft)
27.04.2024 11:36 21,7 °C 17,4 °C 45 % 60 % 1010,7 hPa 0,0 l/m² 17,5 km/h (3 Bft) S-SO 163 ° 1 min 789 W/m² 9,6 °C 13,4 °C 24,1 km/h (4 Bft)
27.04.2024 11:37 21,7 °C 17,4 °C 45 % 59 % 1010,7 hPa 0,0 l/m² 15,2 km/h (3 Bft) S-SO 165 ° 1 min 788 W/m² 9,3 °C 14,0 °C 19,3 km/h (3 Bft)
27.04.2024 11:38 21,7 °C 17,3 °C 45 % 58 % 1010,5 hPa 0,0 l/m² 15,8 km/h (3 Bft) S-SO 165 ° 1 min 789 W/m² 9,0 °C 13,8 °C 20,9 km/h (4 Bft)
27.04.2024 11:39 21,7 °C 17,3 °C 45 % 60 % 1010,5 hPa 0,0 l/m² 13,8 km/h (3 Bft) SW 224 ° 1 min 791 W/m² 9,5 °C 14,3 °C 19,3 km/h (3 Bft)
27.04.2024 11:40 21,7 °C 17,4 °C 45 % 61 % 1010,5 hPa 0,0 l/m² 16,5 km/h (3 Bft) SO 142 ° 1 min 795 W/m² 9,8 °C 13,7 °C 20,9 km/h (4 Bft)
27.04.2024 11:41 21,7 °C 17,4 °C 45 % 61 % 1010,6 hPa 0,0 l/m² 14,9 km/h (3 Bft) SO 146 ° 1 min 796 W/m² 9,8 °C 14,1 °C 19,3 km/h (3 Bft)
27.04.2024 11:42 21,7 °C 17,5 °C 45 % 60 % 1010,6 hPa 0,0 l/m² 14,0 km/h (3 Bft) S 185 ° 1 min 796 W/m² 9,6 °C 14,5 °C 22,5 km/h (4 Bft)
27.04.2024 11:43 21,7 °C 17,5 °C 45 % 60 % 1010,6 hPa 0,0 l/m² 15,6 km/h (3 Bft) S-SO 163 ° 1 min 800 W/m² 9,6 °C 14,1 °C 25,7 km/h (4 Bft)
27.04.2024 11:44 21,7 °C 17,6 °C 45 % 60 % 1010,6 hPa 0,0 l/m² 19,6 km/h (3 Bft) S-SO 153 ° 1 min 800 W/m² 9,7 °C 13,2 °C 25,7 km/h (4 Bft)
27.04.2024 11:45 21,8 °C 17,6 °C 45 % 59 % 1010,7 hPa 0,0 l/m² 15,6 km/h (3 Bft) SO 144 ° 1 min 802 W/m² 9,5 °C 14,2 °C 24,1 km/h (4 Bft)
27.04.2024 11:46 21,7 °C 17,6 °C 45 % 60 % 1010,6 hPa 0,0 l/m² 15,4 km/h (3 Bft) S-SO 160 ° 1 min 805 W/m² 9,7 °C 14,2 °C 22,5 km/h (4 Bft)
27.04.2024 11:47 21,7 °C 17,6 °C 45 % 61 % 1010,6 hPa 0,0 l/m² 15,3 km/h (3 Bft) S 176 ° 1 min 805 W/m² 10,0 °C 14,3 °C 25,7 km/h (4 Bft)
27.04.2024 11:48 21,7 °C 17,6 °C 45 % 60 % 1010,4 hPa 0,0 l/m² 17,8 km/h (3 Bft) S 182 ° 1 min 805 W/m² 9,7 °C 13,6 °C 24,1 km/h (4 Bft)
27.04.2024 11:49 21,8 °C 17,7 °C 45 % 60 % 1010,5 hPa 0,0 l/m² 15,4 km/h (3 Bft) S 177 ° 1 min 803 W/m² 9,8 °C 14,4 °C 19,3 km/h (3 Bft)
27.04.2024 11:50 21,8 °C 17,8 °C 45 % 59 % 1010,5 hPa 0,0 l/m² 18,1 km/h (3 Bft) SO 132 ° 1 min 807 W/m² 9,7 °C 13,8 °C 22,5 km/h (4 Bft)
27.04.2024 11:51 21,7 °C 17,8 °C 45 % 58 % 1010,5 hPa 0,0 l/m² 16,2 km/h (3 Bft) SO 138 ° 1 min 809 W/m² 9,4 °C 14,3 °C 20,9 km/h (4 Bft)
27.04.2024 11:52 21,7 °C 17,7 °C 44 % 58 % 1010,4 hPa 0,0 l/m² 18,8 km/h (3 Bft) SO 140 ° 1 min 807 W/m² 9,3 °C 13,5 °C 24,1 km/h (4 Bft)
27.04.2024 11:53 21,7 °C 17,7 °C 44 % 60 % 1010,4 hPa 0,0 l/m² 16,4 km/h (3 Bft) SO 136 ° 1 min 805 W/m² 9,8 °C 14,1 °C 19,3 km/h (3 Bft)
27.04.2024 11:54 21,7 °C 17,6 °C 43 % 59 % 1010,5 hPa 0,0 l/m² 18,9 km/h (3 Bft) S 172 ° 1 min 805 W/m² 9,5 °C 13,4 °C 25,7 km/h (4 Bft)
27.04.2024 11:55 21,7 °C 17,6 °C 43 % 60 % 1010,4 hPa 0,0 l/m² 14,3 km/h (3 Bft) S 184 ° 1 min 810 W/m² 9,7 °C 14,5 °C 20,9 km/h (4 Bft)
27.04.2024 11:56 21,7 °C 17,7 °C 43 % 61 % 1010,4 hPa 0,0 l/m² 9,3 km/h (2 Bft) S 171 ° 1 min 803 W/m² 10,1 °C 16,4 °C 14,5 km/h (3 Bft)
27.04.2024 11:57 21,7 °C 17,8 °C 43 % 60 % 1010,4 hPa 0,0 l/m² 18,6 km/h (3 Bft) SO 140 ° 1 min 812 W/m² 9,9 °C 13,7 °C 24,1 km/h (4 Bft)
27.04.2024 11:58 21,7 °C 17,8 °C 43 % 58 % 1010,5 hPa 0,0 l/m² 17,4 km/h (3 Bft) SO 138 ° 1 min 814 W/m² 9,4 °C 14,0 °C 20,9 km/h (4 Bft)
27.04.2024 11:59 21,7 °C 17,8 °C 43 % 59 % 1010,4 hPa 0,0 l/m² 17,4 km/h (3 Bft) S 170 ° 1 min 810 W/m² 9,7 °C 14,0 °C 22,5 km/h (4 Bft)
27.04.2024 12:00 21,7 °C 17,8 °C 43 % 60 % 1010,4 hPa 0,0 l/m² 13,5 km/h (3 Bft) O-SO 122 ° 1 min 816 W/m² 9,9 °C 15,0 °C 24,1 km/h (4 Bft)
27.04.2024 12:01 21,7 °C 17,9 °C 44 % 59 % 1010,3 hPa 0,0 l/m² 14,9 km/h (3 Bft) SO 130 ° 1 min 814 W/m² 9,8 °C 14,7 °C 19,3 km/h (3 Bft)
27.04.2024 12:02 21,7 °C 17,9 °C 43 % 59 % 1010,3 hPa 0,0 l/m² 13,7 km/h (3 Bft) S 191 ° 1 min 814 W/m² 9,8 °C 15,1 °C 19,3 km/h (3 Bft)
27.04.2024 12:03 21,7 °C 18,1 °C 43 % 60 % 1010,3 hPa 0,0 l/m² 14,1 km/h (3 Bft) S 185 ° 1 min 817 W/m² 10,2 °C 15,2 °C 17,7 km/h (3 Bft)
27.04.2024 12:04 21,7 °C 18,3 °C 43 % 61 % 1010,4 hPa 0,0 l/m² 13,9 km/h (3 Bft) SO 137 ° 1 min 819 W/m² 10,6 °C 15,5 °C 19,3 km/h (3 Bft)
27.04.2024 12:05 21,7 °C 18,4 °C 43 % 60 % 1010,4 hPa 0,0 l/m² 11,0 km/h (2 Bft) S 182 ° 1 min 817 W/m² 10,5 °C 16,5 °C 16,1 km/h (3 Bft)
27.04.2024 12:06 21,7 °C 18,4 °C 43 % 57 % 1010,4 hPa 0,0 l/m² 12,1 km/h (2 Bft) S 189 ° 1 min 819 W/m² 9,7 °C 16,2 °C 16,1 km/h (3 Bft)
27.04.2024 12:07 21,7 °C 18,3 °C 44 % 57 % 1010,4 hPa 0,0 l/m² 9,2 km/h (2 Bft) S 178 ° 1 min 817 W/m² 9,6 °C 17,1 °C 12,9 km/h (3 Bft)
27.04.2024 12:08 21,7 °C 18,3 °C 44 % 60 % 1010,4 hPa 0,0 l/m² 16,1 km/h (3 Bft) S-SO 150 ° 1 min 816 W/m² 10,4 °C 14,9 °C 20,9 km/h (4 Bft)
27.04.2024 12:09 21,7 °C 18,3 °C 44 % 59 % 1010,4 hPa 0,0 l/m² 16,1 km/h (3 Bft) S 169 ° 1 min 824 W/m² 10,1 °C 14,9 °C 20,9 km/h (4 Bft)
27.04.2024 12:10 21,7 °C 18,4 °C 44 % 58 % 1010,4 hPa 0,0 l/m² 15,5 km/h (3 Bft) S 175 ° 1 min 830 W/m² 10,0 °C 15,2 °C 20,9 km/h (4 Bft)
27.04.2024 12:11 21,7 °C 18,4 °C 44 % 58 % 1010,3 hPa 0,0 l/m² 11,1 km/h (2 Bft) SO 145 ° 1 min 828 W/m² 10,0 °C 16,5 °C 19,3 km/h (3 Bft)
27.04.2024 12:12 21,7 °C 18,6 °C 44 % 59 % 1010,3 hPa 0,0 l/m² 7,7 km/h (2 Bft) S-SW 194 ° 1 min 823 W/m² 10,4 °C 18,0 °C 14,5 km/h (3 Bft)
27.04.2024 12:13 21,7 °C 18,6 °C 44 % 59 % 1010,3 hPa 0,0 l/m² 13,4 km/h (3 Bft) S 178 ° 1 min 828 W/m² 10,4 °C 16,0 °C 17,7 km/h (3 Bft)
27.04.2024 12:14 21,7 °C 18,7 °C 44 % 58 % 1010,3 hPa 0,0 l/m² 9,9 km/h (2 Bft) S 180 ° 1 min 830 W/m² 10,3 °C 17,2 °C 14,5 km/h (3 Bft)
27.04.2024 12:15 21,7 °C 18,7 °C 44 % 59 % 1010,4 hPa 0,0 l/m² 13,3 km/h (3 Bft) S-SO 157 ° 1 min 828 W/m² 10,5 °C 16,1 °C 17,7 km/h (3 Bft)
27.04.2024 12:16 21,7 °C 18,7 °C 44 % 58 % 1010,3 hPa 0,0 l/m² 16,8 km/h (3 Bft) SO 146 ° 1 min 831 W/m² 10,3 °C 15,2 °C 25,7 km/h (4 Bft)
27.04.2024 12:17 21,7 °C 18,6 °C 44 % 57 % 1010,4 hPa 0,0 l/m² 13,1 km/h (3 Bft) S 178 ° 1 min 833 W/m² 9,9 °C 16,1 °C 24,1 km/h (4 Bft)
27.04.2024 12:18 21,7 °C 18,6 °C 45 % 56 % 1010,4 hPa 0,0 l/m² 19,7 km/h (3 Bft) S-SO 155 ° 1 min 833 W/m² 9,6 °C 14,5 °C 25,7 km/h (4 Bft)
27.04.2024 12:19 21,7 °C 18,6 °C 45 % 58 % 1010,4 hPa 0,0 l/m² 10,3 km/h (2 Bft) S-SO 167 ° 1 min 835 W/m² 10,2 °C 17,0 °C 14,5 km/h (3 Bft)
27.04.2024 12:20 21,7 °C 18,6 °C 45 % 57 % 1010,4 hPa 0,0 l/m² 11,9 km/h (2 Bft) S 190 ° 1 min 833 W/m² 9,9 °C 16,4 °C 14,5 km/h (3 Bft)
27.04.2024 12:21 21,7 °C 18,6 °C 45 % 57 % 1010,4 hPa 0,0 l/m² 9,9 km/h (2 Bft) S 172 ° 1 min 830 W/m² 9,9 °C 17,1 °C 14,5 km/h (3 Bft)
27.04.2024 12:22 21,7 °C 18,6 °C 45 % 57 % 1010,4 hPa 0,0 l/m² 12,9 km/h (3 Bft) S 180 ° 1 min 828 W/m² 9,9 °C 16,1 °C 17,7 km/h (3 Bft)
27.04.2024 12:23 21,7 °C 18,7 °C 45 % 60 % 1010,4 hPa 0,0 l/m² 18,6 km/h (3 Bft) S 170 ° 1 min 831 W/m² 10,8 °C 14,8 °C 24,1 km/h (4 Bft)
27.04.2024 12:24 21,7 °C 18,7 °C 45 % 55 % 1010,4 hPa 0,0 l/m² 17,3 km/h (3 Bft) S-SW 192 ° 1 min 840 W/m² 9,5 °C 15,1 °C 24,1 km/h (4 Bft)
27.04.2024 12:25 21,7 °C 18,6 °C 45 % 56 % 1010,4 hPa 0,0 l/m² 16,0 km/h (3 Bft) S-SO 166 ° 1 min 837 W/m² 9,6 °C 15,3 °C 22,5 km/h (4 Bft)
27.04.2024 12:26 21,7 °C 18,6 °C 45 % 58 % 1010,4 hPa 0,0 l/m² 12,1 km/h (2 Bft) S 185 ° 1 min 844 W/m² 10,2 °C 16,4 °C 16,1 km/h (3 Bft)
27.04.2024 12:27 21,8 °C 18,7 °C 45 % 56 % 1010,4 hPa 0,0 l/m² 12,1 km/h (2 Bft) S 185 ° 1 min 837 W/m² 9,7 °C 16,5 °C 16,1 km/h (3 Bft)
27.04.2024 12:28 21,8 °C 18,7 °C 45 % 59 % 1010,3 hPa 0,0 l/m² 11,5 km/h (2 Bft) S-SW 198 ° 1 min 837 W/m² 10,5 °C 16,7 °C 16,1 km/h (3 Bft)
27.04.2024 12:29 21,8 °C 18,9 °C 45 % 60 % 1010,4 hPa 0,0 l/m² 13,4 km/h (3 Bft) S-SW 200 ° 1 min 837 W/m² 11,0 °C 16,3 °C 24,1 km/h (4 Bft)
27.04.2024 12:30 21,7 °C 18,9 °C 45 % 58 % 1010,4 hPa 0,0 l/m² 9,7 km/h (2 Bft) S 180 ° 1 min 837 W/m² 10,5 °C 17,5 °C 14,5 km/h (3 Bft)
27.04.2024 12:31 21,8 °C 19,1 °C 45 % 59 % 1010,4 hPa 0,0 l/m² 7,2 km/h (2 Bft) S 182 ° 1 min 840 W/m² 10,9 °C 18,7 °C 11,3 km/h (2 Bft)
27.04.2024 12:32 21,8 °C 19,2 °C 46 % 59 % 1010,4 hPa 0,0 l/m² 14,1 km/h (3 Bft) S-SW 213 ° 1 min 849 W/m² 11,0 °C 16,5 °C 24,1 km/h (4 Bft)
27.04.2024 12:33 21,8 °C 19,2 °C 46 % 58 % 1010,3 hPa 0,0 l/m² 14,4 km/h (3 Bft) S 173 ° 1 min 854 W/m² 10,7 °C 16,4 °C 19,3 km/h (3 Bft)
27.04.2024 12:34 21,8 °C 19,2 °C 46 % 56 % 1010,4 hPa 0,0 l/m² 13,9 km/h (3 Bft) S-SO 157 ° 1 min 853 W/m² 10,2 °C 16,6 °C 17,7 km/h (3 Bft)
27.04.2024 12:35 21,8 °C 19,2 °C 46 % 58 % 1010,4 hPa 0,0 l/m² 11,7 km/h (2 Bft) S 177 ° 1 min 856 W/m² 10,7 °C 17,2 °C 16,1 km/h (3 Bft)
27.04.2024 12:36 21,8 °C 19,2 °C 46 % 56 % 1010,4 hPa 0,0 l/m² 14,4 km/h (3 Bft) S-SO 160 ° 1 min 853 W/m² 10,2 °C 16,4 °C 20,9 km/h (4 Bft)
27.04.2024 12:37 21,8 °C 19,3 °C 46 % 57 % 1010,4 hPa 0,0 l/m² 16,4 km/h (3 Bft) S 184 ° 1 min 854 W/m² 10,6 °C 16,1 °C 25,7 km/h (4 Bft)
27.04.2024 12:38 21,8 °C 19,2 °C 46 % 54 % 1010,4 hPa 0,0 l/m² 16,2 km/h (3 Bft) S 170 ° 1 min 861 W/m² 9,7 °C 16,0 °C 20,9 km/h (4 Bft)
27.04.2024 12:39 21,8 °C 19,2 °C 46 % 55 % 1010,4 hPa 0,0 l/m² 13,5 km/h (3 Bft) S 190 ° 1 min 860 W/m² 9,9 °C 16,7 °C 19,3 km/h (3 Bft)
27.04.2024 12:40 21,8 °C 19,2 °C 46 % 57 % 1010,3 hPa 0,0 l/m² 12,2 km/h (2 Bft) S-SW 213 ° 1 min 861 W/m² 10,5 °C 17,0 °C 16,1 km/h (3 Bft)
27.04.2024 12:41 21,8 °C 19,2 °C 46 % 57 % 1010,4 hPa 0,0 l/m² 10,5 km/h (2 Bft) S-SW 211 ° 1 min 863 W/m² 10,5 °C 17,6 °C 16,1 km/h (3 Bft)
27.04.2024 12:42 21,8 °C 19,3 °C 46 % 58 % 1010,3 hPa 0,0 l/m² 9,2 km/h (2 Bft) S-SW 194 ° 1 min 863 W/m² 10,8 °C 18,2 °C 14,5 km/h (3 Bft)
27.04.2024 12:43 21,8 °C 19,4 °C 46 % 56 % 1010,4 hPa 0,0 l/m² 13,6 km/h (3 Bft) SW 225 ° 1 min 853 W/m² 10,4 °C 16,9 °C 20,9 km/h (4 Bft)
27.04.2024 12:44 21,8 °C 19,4 °C 46 % 56 % 1010,4 hPa 0,0 l/m² 15,5 km/h (3 Bft) S-SW 192 ° 1 min 851 W/m² 10,4 °C 16,4 °C 20,9 km/h (4 Bft)
27.04.2024 12:46 21,8 °C 19,3 °C 46 % 53 % 1010,3 hPa 0,0 l/m² 10,2 km/h (2 Bft) S 182 ° 2 min 849 W/m² 9,5 °C 17,8 °C 19,3 km/h (3 Bft)
27.04.2024 12:47 21,8 °C 19,2 °C 47 % 55 % 1010,3 hPa 0,0 l/m² 15,0 km/h (3 Bft) SO 146 ° 1 min 849 W/m² 9,9 °C 16,3 °C 22,5 km/h (4 Bft)
27.04.2024 12:48 21,8 °C 19,3 °C 47 % 57 % 1010,3 hPa 0,0 l/m² 16,1 km/h (3 Bft) S 182 ° 1 min 854 W/m² 10,6 °C 16,1 °C 22,5 km/h (4 Bft)
27.04.2024 12:49 21,8 °C 19,3 °C 47 % 53 % 1010,3 hPa 0,0 l/m² 13,6 km/h (3 Bft) S-SO 155 ° 1 min 867 W/m² 9,5 °C 16,8 °C 19,3 km/h (3 Bft)
27.04.2024 12:50 21,8 °C 19,2 °C 47 % 54 % 1010,3 hPa 0,0 l/m² 6,1 km/h (2 Bft) S 173 ° 1 min 868 W/m² 9,7 °C 19,2 °C 11,3 km/h (2 Bft)
27.04.2024 12:51 21,8 °C 19,2 °C 47 % 56 % 1010,3 hPa 0,0 l/m² 8,3 km/h (2 Bft) S 189 ° 1 min 877 W/m² 10,2 °C 18,4 °C 12,9 km/h (3 Bft)
27.04.2024 12:52 21,8 °C 19,3 °C 47 % 58 % 1010,3 hPa 0,0 l/m² 12,7 km/h (3 Bft) S 188 ° 1 min 877 W/m² 10,8 °C 17,0 °C 17,7 km/h (3 Bft)
27.04.2024 12:53 21,9 °C 19,1 °C 47 % 56 % 1010,3 hPa 0,0 l/m² 12,3 km/h (2 Bft) S-SO 168 ° 1 min 877 W/m² 10,1 °C 16,9 °C 17,7 km/h (3 Bft)
27.04.2024 12:54 21,9 °C 18,9 °C 47 % 55 % 1010,3 hPa 0,0 l/m² 15,2 km/h (3 Bft) S-SW 212 ° 1 min 877 W/m² 9,7 °C 15,9 °C 19,3 km/h (3 Bft)
27.04.2024 12:55 21,9 °C 18,9 °C 47 % 57 % 1010,3 hPa 0,0 l/m² 12,6 km/h (3 Bft) S 182 ° 1 min 872 W/m² 10,2 °C 16,6 °C 16,1 km/h (3 Bft)
27.04.2024 12:56 21,9 °C 19,0 °C 47 % 58 % 1010,3 hPa 0,0 l/m² 11,8 km/h (2 Bft) SO 133 ° 1 min 872 W/m² 10,5 °C 16,9 °C 16,1 km/h (3 Bft)
27.04.2024 12:57 21,9 °C 19,0 °C 47 % 58 % 1010,3 hPa 0,0 l/m² 12,7 km/h (3 Bft) SO 132 ° 1 min 773 W/m² 10,5 °C 16,7 °C 16,1 km/h (3 Bft)
27.04.2024 12:58 21,8 °C 19,0 °C 47 % 55 % 1010,3 hPa 0,0 l/m² 10,4 km/h (2 Bft) S-SO 161 ° 1 min 868 W/m² 9,8 °C 17,4 °C 14,5 km/h (3 Bft)
27.04.2024 12:59 21,9 °C 18,9 °C 47 % 56 % 1010,2 hPa 0,0 l/m² 13,2 km/h (3 Bft) SO 127 ° 1 min 851 W/m² 9,9 °C 16,4 °C 16,1 km/h (3 Bft)
27.04.2024 13:00 21,9 °C 18,9 °C 47 % 55 % 1010,3 hPa 0,0 l/m² 10,3 km/h (2 Bft) S-SO 154 ° 1 min 849 W/m² 9,7 °C 17,3 °C 12,9 km/h (3 Bft)
27.04.2024 13:01 21,8 °C 19,1 °C 47 % 56 % 1010,2 hPa 0,0 l/m² 11,2 km/h (2 Bft) S-SO 149 ° 1 min 849 W/m² 10,1 °C 17,2 °C 19,3 km/h (3 Bft)
27.04.2024 13:02 21,9 °C 19,1 °C 47 % 54 % 1010,3 hPa 0,0 l/m² 20,1 km/h (4 Bft) S-SO 156 ° 1 min 847 W/m² 9,6 °C 15,0 °C 29,0 km/h (5 Bft)
27.04.2024 13:03 21,9 °C 19,2 °C 47 % 57 % 1010,2 hPa 0,0 l/m² 19,9 km/h (4 Bft) SO 132 ° 1 min 851 W/m² 10,5 °C 15,2 °C 24,1 km/h (4 Bft)
27.04.2024 13:04 21,9 °C 19,2 °C 47 % 55 % 1010,2 hPa 0,0 l/m² 20,3 km/h (4 Bft) SO 145 ° 1 min 853 W/m² 9,9 °C 15,1 °C 27,4 km/h (5 Bft)
27.04.2024 13:05 21,9 °C 19,2 °C 47 % 55 % 1010,2 hPa 0,0 l/m² 15,7 km/h (3 Bft) SO 136 ° 1 min 854 W/m² 9,9 °C 16,1 °C 20,9 km/h (4 Bft)
27.04.2024 13:06 21,9 °C 19,2 °C 47 % 54 % 1010,2 hPa 0,0 l/m² 10,6 km/h (2 Bft) S-SO 153 ° 1 min 851 W/m² 9,7 °C 17,6 °C 14,5 km/h (3 Bft)
27.04.2024 13:07 21,9 °C 19,3 °C 47 % 56 % 1010,2 hPa 0,0 l/m² 6,7 km/h (2 Bft) SO 130 ° 1 min 847 W/m² 10,3 °C 19,2 °C 9,7 km/h (2 Bft)
27.04.2024 13:08 21,9 °C 19,4 °C 47 % 58 % 1010,2 hPa 0,0 l/m² 7,6 km/h (2 Bft) S 171 ° 1 min 849 W/m² 10,9 °C 18,9 °C 12,9 km/h (3 Bft)
27.04.2024 13:09 21,9 °C 19,5 °C 47 % 55 % 1010,2 hPa 0,0 l/m² 6,7 km/h (2 Bft) S-SW 201 ° 1 min 849 W/m² 10,2 °C 19,4 °C 12,9 km/h (3 Bft)
27.04.2024 13:10 21,9 °C 19,7 °C 47 % 58 % 1010,2 hPa 0,0 l/m² 3,4 km/h (1 Bft) S-SW 199 ° 1 min 854 W/m² 11,2 °C 19,7 °C 6,4 km/h (2 Bft)
27.04.2024 13:11 21,9 °C 19,8 °C 47 % 57 % 1010,2 hPa 0,0 l/m² 11,2 km/h (2 Bft) SO 137 ° 1 min 853 W/m² 11,0 °C 18,0 °C 17,7 km/h (3 Bft)
27.04.2024 13:12 21,9 °C 19,8 °C 47 % 54 % 1010,2 hPa 0,0 l/m² 5,7 km/h (2 Bft) S-SO 157 ° 1 min 856 W/m² 10,2 °C 19,8 °C 6,4 km/h (2 Bft)
27.04.2024 13:13 21,9 °C 19,9 °C 47 % 56 % 1010,3 hPa 0,0 l/m² 7,4 km/h (2 Bft) S 190 ° 1 min 856 W/m² 10,9 °C 19,5 °C 14,5 km/h (3 Bft)
27.04.2024 13:14 21,9 °C 20,1 °C 47 % 56 % 1010,2 hPa 0,0 l/m² 9,1 km/h (2 Bft) S 182 ° 1 min 856 W/m² 11,0 °C 19,1 °C 14,5 km/h (3 Bft)
27.04.2024 13:15 21,9 °C 20,2 °C 47 % 56 % 1010,2 hPa 0,0 l/m² 6,0 km/h (2 Bft) S-SW 205 ° 1 min 860 W/m² 11,1 °C 20,2 °C 11,3 km/h (2 Bft)
27.04.2024 13:16 21,9 °C 20,1 °C 47 % 54 % 1010,2 hPa 0,0 l/m² 15,5 km/h (3 Bft) S 179 ° 1 min 865 W/m² 10,5 °C 17,3 °C 19,3 km/h (3 Bft)
27.04.2024 13:17 21,9 °C 20,1 °C 47 % 54 % 1010,3 hPa 0,0 l/m² 8,5 km/h (2 Bft) S-SO 167 ° 1 min 861 W/m² 10,5 °C 19,3 °C 11,3 km/h (2 Bft)
27.04.2024 13:18 21,9 °C 20,0 °C 47 % 55 % 1010,1 hPa 0,0 l/m² 7,2 km/h (2 Bft) O-SO 120 ° 1 min 861 W/m² 10,7 °C 19,7 °C 11,3 km/h (2 Bft)
27.04.2024 13:19 21,9 °C 19,9 °C 47 % 54 % 1010,2 hPa 0,0 l/m² 7,9 km/h (2 Bft) S-SO 160 ° 1 min 863 W/m² 10,3 °C 19,3 °C 19,3 km/h (3 Bft)
27.04.2024 13:20 21,9 °C 19,9 °C 48 % 53 % 1010,1 hPa 0,0 l/m² 7,2 km/h (2 Bft) S 180 ° 1 min 865 W/m² 10,0 °C 19,6 °C 16,1 km/h (3 Bft)
27.04.2024 13:21 21,9 °C 19,8 °C 48 % 52 % 1010,2 hPa 0,0 l/m² 12,7 km/h (3 Bft) S 184 ° 1 min 867 W/m² 9,7 °C 17,6 °C 22,5 km/h (4 Bft)
27.04.2024 13:22 21,9 °C 19,8 °C 48 % 54 % 1010,2 hPa 0,0 l/m² 9,8 km/h (2 Bft) S 189 ° 1 min 865 W/m² 10,2 °C 18,5 °C 12,9 km/h (3 Bft)
27.04.2024 13:23 21,9 °C 19,9 °C 48 % 56 % 1010,1 hPa 0,0 l/m² 12,0 km/h (2 Bft) S 190 ° 1 min 867 W/m² 10,9 °C 17,9 °C 17,7 km/h (3 Bft)
27.04.2024 13:24 22,0 °C 19,9 °C 48 % 55 % 1010,1 hPa 0,0 l/m² 13,2 km/h (3 Bft) S-SW 192 ° 1 min 868 W/m² 10,6 °C 17,6 °C 16,1 km/h (3 Bft)
27.04.2024 13:25 22,0 °C 19,9 °C 48 % 55 % 1010,2 hPa 0,0 l/m² 15,8 km/h (3 Bft) S-SO 159 ° 1 min 868 W/m² 10,6 °C 16,9 °C 22,5 km/h (4 Bft)
27.04.2024 13:26 22,0 °C 19,8 °C 48 % 51 % 1010,2 hPa 0,0 l/m² 11,2 km/h (2 Bft) SO 136 ° 1 min 854 W/m² 9,4 °C 18,0 °C 16,1 km/h (3 Bft)
27.04.2024 13:27 22,0 °C 19,7 °C 48 % 52 % 1010,1 hPa 0,0 l/m² 7,6 km/h (2 Bft) O-SO 104 ° 1 min 844 W/m² 9,6 °C 19,2 °C 11,3 km/h (2 Bft)
27.04.2024 13:28 22,0 °C 19,7 °C 48 % 56 % 1010,1 hPa 0,0 l/m² 5,5 km/h (2 Bft) S-SO 158 ° 1 min 856 W/m² 10,7 °C 19,7 °C 9,7 km/h (2 Bft)
27.04.2024 13:29 22,0 °C 19,8 °C 48 % 54 % 1010,1 hPa 0,0 l/m² 10,0 km/h (2 Bft) S-SO 159 ° 1 min 861 W/m² 10,2 °C 18,4 °C 17,7 km/h (3 Bft)
27.04.2024 13:30 22,0 °C 19,9 °C 48 % 55 % 1010,1 hPa 0,0 l/m² 12,7 km/h (3 Bft) S 189 ° 1 min 863 W/m² 10,6 °C 17,7 °C 19,3 km/h (3 Bft)
27.04.2024 13:31 22,0 °C 20,1 °C 48 % 53 % 1010,2 hPa 0,0 l/m² 16,9 km/h (3 Bft) S-SW 196 ° 1 min 868 W/m² 10,2 °C 16,9 °C 24,1 km/h (4 Bft)
27.04.2024 13:32 22,0 °C 20,1 °C 48 % 53 % 1010,1 hPa 0,0 l/m² 15,6 km/h (3 Bft) SO 139 ° 1 min 868 W/m² 10,2 °C 17,2 °C 22,5 km/h (4 Bft)
27.04.2024 13:33 22,0 °C 20,1 °C 48 % 53 % 1010,1 hPa 0,0 l/m² 11,3 km/h (2 Bft) S 179 ° 1 min 868 W/m² 10,2 °C 18,3 °C 17,7 km/h (3 Bft)
27.04.2024 13:34 22,0 °C 19,9 °C 48 % 54 % 1010,2 hPa 0,0 l/m² 11,1 km/h (2 Bft) S-SW 201 ° 1 min 216 W/m² 10,3 °C 18,2 °C 17,7 km/h (3 Bft)
27.04.2024 13:35 22,0 °C 19,7 °C 48 % 54 % 1010,2 hPa 0,0 l/m² 11,7 km/h (2 Bft) S 171 ° 1 min 216 W/m² 10,1 °C 17,8 °C 16,1 km/h (3 Bft)
27.04.2024 13:36 21,9 °C 19,6 °C 48 % 53 % 1010,2 hPa 0,0 l/m² 10,6 km/h (2 Bft) S 175 ° 1 min 737 W/m² 9,8 °C 18,0 °C 14,5 km/h (3 Bft)
27.04.2024 13:37 22,0 °C 19,5 °C 48 % 53 % 1010,2 hPa 0,0 l/m² 5,4 km/h (2 Bft) S-SW 193 ° 1 min 737 W/m² 9,7 °C 19,5 °C 9,7 km/h (2 Bft)
27.04.2024 13:38 22,0 °C 19,6 °C 48 % 54 % 1010,2 hPa 0,0 l/m² 4,4 km/h (1 Bft) SW 225 ° 1 min 874 W/m² 10,0 °C 19,6 °C 6,4 km/h (2 Bft)
27.04.2024 13:39 21,9 °C 19,6 °C 48 % 54 % 1010,1 hPa 0,0 l/m² 5,9 km/h (2 Bft) S-SW 208 ° 1 min 874 W/m² 10,0 °C 19,6 °C 6,4 km/h (2 Bft)
27.04.2024 13:40 22,0 °C 19,6 °C 48 % 56 % 1010,2 hPa 0,0 l/m² 7,9 km/h (2 Bft) S-SO 166 ° 1 min 874 W/m² 10,6 °C 19,0 °C 11,3 km/h (2 Bft)
27.04.2024 13:41 22,0 °C 19,8 °C 48 % 54 % 1010,1 hPa 0,0 l/m² 12,6 km/h (3 Bft) S-SO 148 ° 1 min 889 W/m² 10,2 °C 17,6 °C 16,1 km/h (3 Bft)
27.04.2024 13:42 22,0 °C 19,9 °C 48 % 54 % 1010,1 hPa 0,0 l/m² 17,6 km/h (3 Bft) S-SW 200 ° 1 min 902 W/m² 10,3 °C 16,5 °C 25,7 km/h (4 Bft)
27.04.2024 13:43 22,0 °C 20,0 °C 48 % 52 % 1010,1 hPa 0,0 l/m² 17,3 km/h (3 Bft) S-SO 159 ° 1 min 900 W/m² 9,8 °C 16,7 °C 20,9 km/h (4 Bft)
27.04.2024 13:44 22,0 °C 20,1 °C 48 % 51 % 1010,1 hPa 0,0 l/m² 20,2 km/h (4 Bft) S-SO 158 ° 1 min 891 W/m² 9,6 °C 16,3 °C 27,4 km/h (5 Bft)
27.04.2024 13:45 22,0 °C 20,2 °C 48 % 52 % 1010,1 hPa 0,0 l/m² 15,7 km/h (3 Bft) S-SO 148 ° 1 min 882 W/m² 10,0 °C 17,3 °C 22,5 km/h (4 Bft)
27.04.2024 13:46 22,0 °C 20,3 °C 48 % 53 % 1010,1 hPa 0,0 l/m² 12,0 km/h (2 Bft) SO 135 ° 1 min 874 W/m² 10,4 °C 18,4 °C 16,1 km/h (3 Bft)
27.04.2024 13:47 22,0 °C 20,4 °C 48 % 50 % 1010,1 hPa 0,0 l/m² 12,8 km/h (3 Bft) SO 133 ° 1 min 867 W/m² 9,6 °C 18,3 °C 16,1 km/h (3 Bft)
27.04.2024 13:48 22,0 °C 20,4 °C 48 % 52 % 1010,0 hPa 0,0 l/m² 13,5 km/h (3 Bft) S-SO 159 ° 1 min 865 W/m² 10,2 °C 18,1 °C 14,5 km/h (3 Bft)
27.04.2024 13:49 22,0 °C 20,4 °C 48 % 51 % 1010,2 hPa 0,0 l/m² 11,1 km/h (2 Bft) SO 124 ° 1 min 863 W/m² 9,9 °C 18,7 °C 17,7 km/h (3 Bft)
27.04.2024 13:50 22,0 °C 20,5 °C 48 % 52 % 1010,1 hPa 0,0 l/m² 11,1 km/h (2 Bft) SO 138 ° 1 min 868 W/m² 10,3 °C 18,9 °C 14,5 km/h (3 Bft)
27.04.2024 13:51 22,0 °C 20,6 °C 48 % 51 % 1010,2 hPa 0,0 l/m² 8,9 km/h (2 Bft) S-SW 197 ° 1 min 870 W/m² 10,1 °C 19,7 °C 14,5 km/h (3 Bft)
27.04.2024 13:52 22,0 °C 20,7 °C 48 % 52 % 1010,1 hPa 0,0 l/m² 12,1 km/h (2 Bft) S 181 ° 1 min 872 W/m² 10,5 °C 18,8 °C 17,7 km/h (3 Bft)
27.04.2024 13:53 22,0 °C 20,7 °C 48 % 51 % 1010,1 hPa 0,0 l/m² 9,9 km/h (2 Bft) SO 141 ° 1 min 863 W/m² 10,2 °C 19,4 °C 12,9 km/h (3 Bft)
27.04.2024 13:54 22,0 °C 20,7 °C 48 % 52 % 1010,1 hPa 0,0 l/m² 8,2 km/h (2 Bft) SO 145 ° 1 min 861 W/m² 10,5 °C 20,0 °C 11,3 km/h (2 Bft)
27.04.2024 13:55 22,0 °C 20,7 °C 48 % 53 % 1010,1 hPa 0,0 l/m² 8,7 km/h (2 Bft) O-SO 118 ° 1 min 858 W/m² 10,8 °C 19,8 °C 12,9 km/h (3 Bft)
27.04.2024 13:56 22,0 °C 20,7 °C 48 % 51 % 1010,1 hPa 0,0 l/m² 7,4 km/h (2 Bft) O-SO 121 ° 1 min 856 W/m² 10,2 °C 20,3 °C 11,3 km/h (2 Bft)
27.04.2024 13:57 22,0 °C 20,6 °C 48 % 49 % 1010,1 hPa 0,0 l/m² 5,2 km/h (1 Bft) S 181 ° 1 min 856 W/m² 9,5 °C 20,6 °C 8,0 km/h (2 Bft)
27.04.2024 13:58 22,1 °C 20,6 °C 48 % 50 % 1010,1 hPa 0,0 l/m² 9,6 km/h (2 Bft) SO 138 ° 1 min 858 W/m² 9,8 °C 19,4 °C 12,9 km/h (3 Bft)
27.04.2024 13:59 22,0 °C 20,6 °C 48 % 51 % 1010,1 hPa 0,0 l/m² 14,9 km/h (3 Bft) S 180 ° 1 min 863 W/m² 10,1 °C 18,0 °C 20,9 km/h (4 Bft)
27.04.2024 14:00 22,0 °C 20,5 °C 48 % 49 % 1010,2 hPa 0,0 l/m² 9,1 km/h (2 Bft) S-SO 150 ° 1 min 870 W/m² 9,4 °C 19,5 °C 12,9 km/h (3 Bft)
27.04.2024 14:01 22,0 °C 20,5 °C 48 % 48 % 1010,1 hPa 0,0 l/m² 14,6 km/h (3 Bft) SO 144 ° 1 min 881 W/m² 9,1 °C 17,9 °C 24,1 km/h (4 Bft)
27.04.2024 14:02 22,1 °C 20,5 °C 48 % 50 % 1010,1 hPa 0,0 l/m² 12,7 km/h (3 Bft) SO 142 ° 1 min 884 W/m² 9,7 °C 18,4 °C 16,1 km/h (3 Bft)
27.04.2024 14:03 22,0 °C 20,5 °C 48 % 52 % 1010,1 hPa 0,0 l/m² 12,2 km/h (2 Bft) S-SO 167 ° 1 min 886 W/m² 10,3 °C 18,6 °C 17,7 km/h (3 Bft)
27.04.2024 14:04 22,1 °C 20,6 °C 48 % 51 % 1010,1 hPa 0,0 l/m² 12,5 km/h (2 Bft) S 169 ° 1 min 893 W/m² 10,1 °C 18,6 °C 17,7 km/h (3 Bft)
27.04.2024 14:05 22,1 °C 20,7 °C 48 % 53 % 1010,1 hPa 0,0 l/m² 13,0 km/h (3 Bft) S 180 ° 1 min 900 W/m² 10,8 °C 18,6 °C 19,3 km/h (3 Bft)
27.04.2024 14:06 22,1 °C 20,8 °C 48 % 51 % 1010,1 hPa 0,0 l/m² 13,9 km/h (3 Bft) S-SO 162 ° 1 min 914 W/m² 10,3 °C 18,5 °C 19,3 km/h (3 Bft)
27.04.2024 14:07 22,1 °C 20,8 °C 48 % 49 % 1010,2 hPa 0,0 l/m² 8,2 km/h (2 Bft) S-SO 167 ° 1 min 923 W/m² 9,7 °C 20,1 °C 12,9 km/h (3 Bft)
27.04.2024 14:08 22,1 °C 20,8 °C 48 % 49 % 1010,1 hPa 0,0 l/m² 10,0 km/h (2 Bft) S-SW 192 ° 1 min 930 W/m² 9,7 °C 19,5 °C 17,7 km/h (3 Bft)
27.04.2024 14:09 22,1 °C 20,9 °C 48 % 50 % 1010,1 hPa 0,0 l/m² 14,0 km/h (3 Bft) S-SW 207 ° 1 min 933 W/m² 10,1 °C 18,6 °C 20,9 km/h (4 Bft)
27.04.2024 14:10 22,1 °C 21,0 °C 48 % 51 % 1010,1 hPa 0,0 l/m² 14,3 km/h (3 Bft) SO 144 ° 1 min 937 W/m² 10,5 °C 18,6 °C 20,9 km/h (4 Bft)
27.04.2024 14:11 22,1 °C 21,0 °C 48 % 50 % 1010,1 hPa 0,0 l/m² 18,5 km/h (3 Bft) S-SO 168 ° 1 min 940 W/m² 10,2 °C 17,8 °C 27,4 km/h (5 Bft)
27.04.2024 14:12 22,1 °C 21,1 °C 48 % 50 % 1010,1 hPa 0,0 l/m² 17,4 km/h (3 Bft) S 177 ° 1 min 944 W/m² 10,3 °C 18,1 °C 24,1 km/h (4 Bft)
27.04.2024 14:13 22,1 °C 21,0 °C 48 % 48 % 1010,1 hPa 0,0 l/m² 15,9 km/h (3 Bft) S-SO 161 ° 1 min 951 W/m² 9,6 °C 18,3 °C 20,9 km/h (4 Bft)
27.04.2024 14:14 22,1 °C 20,9 °C 48 % 49 % 1010,1 hPa 0,0 l/m² 14,6 km/h (3 Bft) S-SW 200 ° 1 min 951 W/m² 9,8 °C 18,4 °C 19,3 km/h (3 Bft)
27.04.2024 14:15 22,1 °C 20,9 °C 48 % 49 % 1010,0 hPa 0,0 l/m² 14,0 km/h (3 Bft) S-SW 200 ° 1 min 951 W/m² 9,8 °C 18,6 °C 16,1 km/h (3 Bft)
27.04.2024 14:16 22,1 °C 20,9 °C 48 % 52 % 1010,1 hPa 0,0 l/m² 14,1 km/h (3 Bft) S 182 ° 1 min 951 W/m² 10,7 °C 18,5 °C 22,5 km/h (4 Bft)
27.04.2024 14:17 22,1 °C 20,8 °C 48 % 48 % 1010,0 hPa 0,0 l/m² 17,5 km/h (3 Bft) S 172 ° 1 min 819 W/m² 9,4 °C 17,7 °C 22,5 km/h (4 Bft)
27.04.2024 14:18 22,1 °C 20,7 °C 48 % 48 % 1010,0 hPa 0,0 l/m² 14,8 km/h (3 Bft) S-SO 165 ° 1 min 819 W/m² 9,3 °C 18,1 °C 17,7 km/h (3 Bft)
27.04.2024 14:19 22,1 °C 20,3 °C 48 % 48 % 1010,0 hPa 0,0 l/m² 9,1 km/h (2 Bft) S-SO 155 ° 1 min 304 W/m² 8,9 °C 19,3 °C 16,1 km/h (3 Bft)
27.04.2024 14:20 22,1 °C 20,1 °C 48 % 50 % 1009,9 hPa 0,0 l/m² 10,9 km/h (2 Bft) S-SO 152 ° 1 min 316 W/m² 9,3 °C 18,5 °C 16,1 km/h (3 Bft)
27.04.2024 14:21 22,1 °C 19,8 °C 48 % 50 % 1010,0 hPa 0,0 l/m² 13,2 km/h (3 Bft) S 175 ° 1 min 316 W/m² 9,1 °C 17,5 °C 17,7 km/h (3 Bft)
27.04.2024 14:22 22,1 °C 19,6 °C 48 % 51 % 1010,0 hPa 0,0 l/m² 14,6 km/h (3 Bft) S 175 ° 1 min 323 W/m² 9,2 °C 16,9 °C 17,7 km/h (3 Bft)
27.04.2024 14:23 22,1 °C 19,4 °C 48 % 52 % 1009,9 hPa 0,0 l/m² 10,6 km/h (2 Bft) S-SO 155 ° 1 min 304 W/m² 9,3 °C 17,8 °C 16,1 km/h (3 Bft)
27.04.2024 14:24 22,1 °C 19,3 °C 48 % 53 % 1010,0 hPa 0,0 l/m² 13,6 km/h (3 Bft) S-SW 198 ° 1 min 299 W/m² 9,5 °C 16,8 °C 19,3 km/h (3 Bft)
27.04.2024 14:25 22,1 °C 19,2 °C 48 % 52 % 1010,0 hPa 0,0 l/m² 11,9 km/h (2 Bft) S-SW 194 ° 1 min 301 W/m² 9,1 °C 17,1 °C 17,7 km/h (3 Bft)
27.04.2024 14:26 22,1 °C 19,2 °C 48 % 52 % 1010,0 hPa 0,0 l/m² 8,4 km/h (2 Bft) S 169 ° 1 min 304 W/m² 9,1 °C 18,4 °C 11,3 km/h (2 Bft)
27.04.2024 14:27 22,1 °C 19,1 °C 48 % 52 % 1010,0 hPa 0,0 l/m² 9,9 km/h (2 Bft) S 172 ° 1 min 315 W/m² 9,0 °C 17,7 °C 12,9 km/h (3 Bft)
27.04.2024 14:28 22,1 °C 19,1 °C 48 % 51 % 1010,0 hPa 0,0 l/m² 14,3 km/h (3 Bft) SO 126 ° 1 min 330 W/m² 8,7 °C 16,3 °C 17,7 km/h (3 Bft)
27.04.2024 14:29 22,1 °C 19,1 °C 48 % 51 % 1009,9 hPa 0,0 l/m² 19,0 km/h (3 Bft) SO 144 ° 1 min 352 W/m² 8,7 °C 15,2 °C 24,1 km/h (4 Bft)
27.04.2024 14:30 22,1 °C 19,1 °C 48 % 51 % 1010,0 hPa 0,0 l/m² 19,2 km/h (3 Bft) S-SO 151 ° 1 min 352 W/m² 8,7 °C 15,2 °C 25,7 km/h (4 Bft)
27.04.2024 14:31 22,1 °C 19,2 °C 48 % 49 % 1010,0 hPa 0,0 l/m² 18,5 km/h (3 Bft) S-SO 148 ° 1 min 352 W/m² 8,2 °C 15,5 °C 24,1 km/h (4 Bft)
27.04.2024 14:32 22,1 °C 19,6 °C 48 % 51 % 1010,0 hPa 0,0 l/m² 18,4 km/h (3 Bft) S 169 ° 1 min 762 W/m² 9,2 °C 16,0 °C 22,5 km/h (4 Bft)
27.04.2024 14:33 22,1 °C 20,0 °C 48 % 51 % 1010,0 hPa 0,0 l/m² 13,9 km/h (3 Bft) S-SO 157 ° 1 min 761 W/m² 9,6 °C 17,5 °C 16,1 km/h (3 Bft)
27.04.2024 14:34 22,1 °C 20,2 °C 48 % 49 % 1009,9 hPa 0,0 l/m² 17,9 km/h (3 Bft) SO 137 ° 1 min 760 W/m² 9,1 °C 16,9 °C 24,1 km/h (4 Bft)
27.04.2024 14:35 22,1 °C 20,3 °C 48 % 47 % 1009,9 hPa 0,0 l/m² 11,2 km/h (2 Bft) SO 145 ° 1 min 427 W/m² 8,6 °C 18,6 °C 16,1 km/h (3 Bft)
27.04.2024 14:36 22,1 °C 20,2 °C 48 % 49 % 1010,0 hPa 0,0 l/m² 12,7 km/h (3 Bft) S-SO 150 ° 1 min 408 W/m² 9,1 °C 18,1 °C 17,7 km/h (3 Bft)
27.04.2024 14:37 22,1 °C 20,1 °C 48 % 49 % 1009,9 hPa 0,0 l/m² 15,0 km/h (3 Bft) SO 144 ° 1 min 352 W/m² 9,0 °C 17,4 °C 20,9 km/h (4 Bft)
27.04.2024 14:38 22,0 °C 19,9 °C 48 % 49 % 1009,9 hPa 0,0 l/m² 12,5 km/h (2 Bft) SO 144 ° 1 min 316 W/m² 8,9 °C 17,8 °C 14,5 km/h (3 Bft)
27.04.2024 14:40 22,1 °C 19,6 °C 48 % 49 % 1009,9 hPa 0,0 l/m² 13,4 km/h (3 Bft) S-SO 165 ° 2 min 227 W/m² 8,6 °C 17,2 °C 20,9 km/h (4 Bft)
27.04.2024 14:41 22,1 °C 19,4 °C 48 % 50 % 1009,9 hPa 0,0 l/m² 12,3 km/h (2 Bft) SW 219 ° 1 min 213 W/m² 8,7 °C 17,3 °C 19,3 km/h (3 Bft)
27.04.2024 14:42 22,1 °C 19,2 °C 48 % 52 % 1009,9 hPa 0,0 l/m² 11,3 km/h (2 Bft) S 177 ° 1 min 207 W/m² 9,1 °C 17,3 °C 14,5 km/h (3 Bft)
27.04.2024 14:43 22,1 °C 19,1 °C 48 % 53 % 1009,9 hPa 0,0 l/m² 12,4 km/h (2 Bft) S-SO 159 ° 1 min 206 W/m² 9,3 °C 16,9 °C 20,9 km/h (4 Bft)
27.04.2024 14:44 22,1 °C 19,0 °C 48 % 51 % 1009,9 hPa 0,0 l/m² 18,3 km/h (3 Bft) S 171 ° 1 min 207 W/m² 8,6 °C 15,3 °C 24,1 km/h (4 Bft)
27.04.2024 14:45 22,1 °C 18,8 °C 48 % 50 % 1009,9 hPa 0,0 l/m² 12,7 km/h (3 Bft) S 185 ° 1 min 209 W/m² 8,2 °C 16,4 °C 16,1 km/h (3 Bft)
27.04.2024 14:46 22,1 °C 18,7 °C 48 % 51 % 1009,9 hPa 0,0 l/m² 9,4 km/h (2 Bft) S 170 ° 1 min 211 W/m² 8,4 °C 17,4 °C 12,9 km/h (3 Bft)
27.04.2024 14:47 22,0 °C 18,7 °C 48 % 54 % 1010,0 hPa 0,0 l/m² 7,3 km/h (2 Bft) SO 146 ° 1 min 225 W/m² 9,2 °C 18,3 °C 16,1 km/h (3 Bft)
27.04.2024 14:48 22,0 °C 18,6 °C 48 % 54 % 1009,9 hPa 0,0 l/m² 12,5 km/h (2 Bft) S-SO 149 ° 1 min 236 W/m² 9,1 °C 16,3 °C 16,1 km/h (3 Bft)
27.04.2024 14:49 22,0 °C 18,6 °C 48 % 53 % 1010,0 hPa 0,0 l/m² 13,3 km/h (3 Bft) S 169 ° 1 min 246 W/m² 8,8 °C 16,0 °C 16,1 km/h (3 Bft)
27.04.2024 14:50 22,0 °C 18,6 °C 48 % 52 % 1009,9 hPa 0,0 l/m² 12,8 km/h (3 Bft) S-SW 196 ° 1 min 253 W/m² 8,5 °C 16,2 °C 19,3 km/h (3 Bft)
27.04.2024 14:51 22,0 °C 18,6 °C 48 % 54 % 1009,9 hPa 0,0 l/m² 9,1 km/h (2 Bft) S-SO 161 ° 1 min 260 W/m² 9,1 °C 17,4 °C 12,9 km/h (3 Bft)
27.04.2024 14:52 22,0 °C 18,6 °C 48 % 55 % 1009,9 hPa 0,0 l/m² 8,9 km/h (2 Bft) S 186 ° 1 min 264 W/m² 9,4 °C 17,5 °C 11,3 km/h (2 Bft)
27.04.2024 14:53 22,0 °C 18,6 °C 48 % 54 % 1009,8 hPa 0,0 l/m² 8,6 km/h (2 Bft) S-SW 202 ° 1 min 269 W/m² 9,1 °C 17,6 °C 11,3 km/h (2 Bft)
27.04.2024 14:54 22,1 °C 18,7 °C 48 % 55 % 1009,8 hPa 0,0 l/m² 8,4 km/h (2 Bft) S-SW 208 ° 1 min 272 W/m² 9,5 °C 17,8 °C 11,3 km/h (2 Bft)
27.04.2024 14:55 22,0 °C 18,7 °C 48 % 53 % 1009,8 hPa 0,0 l/m² 10,4 km/h (2 Bft) S-SW 192 ° 1 min 276 W/m² 8,9 °C 17,1 °C 12,9 km/h (3 Bft)
27.04.2024 14:56 22,0 °C 18,8 °C 48 % 54 % 1009,8 hPa 0,0 l/m² 7,4 km/h (2 Bft) S-SW 197 ° 1 min 281 W/m² 9,3 °C 18,4 °C 11,3 km/h (2 Bft)
27.04.2024 14:57 22,0 °C 18,8 °C 48 % 56 % 1009,9 hPa 0,0 l/m² 6,1 km/h (2 Bft) S-SW 211 ° 1 min 287 W/m² 9,8 °C 18,8 °C 9,7 km/h (2 Bft)
27.04.2024 14:58 22,0 °C 18,8 °C 48 % 54 % 1009,8 hPa 0,0 l/m² 11,5 km/h (2 Bft) S-SW 207 ° 1 min 257 W/m² 9,3 °C 16,8 °C 16,1 km/h (3 Bft)
27.04.2024 14:59 22,0 °C 18,8 °C 48 % 54 % 1009,9 hPa 0,0 l/m² 11,9 km/h (2 Bft) SW 229 ° 1 min 301 W/m² 9,3 °C 16,7 °C 16,1 km/h (3 Bft)
27.04.2024 15:00 22,0 °C 18,9 °C 49 % 52 % 1009,9 hPa 0,0 l/m² 10,5 km/h (2 Bft) S-SW 202 ° 1 min 301 W/m² 8,8 °C 17,3 °C 12,9 km/h (3 Bft)
27.04.2024 15:01 22,0 °C 18,9 °C 48 % 53 % 1009,8 hPa 0,0 l/m² 11,3 km/h (2 Bft) S-SW 208 ° 1 min 299 W/m² 9,1 °C 17,0 °C 14,5 km/h (3 Bft)
27.04.2024 15:02 22,0 °C 18,9 °C 48 % 51 % 1009,9 hPa 0,0 l/m² 9,3 km/h (2 Bft) SW 228 ° 1 min 301 W/m² 8,5 °C 17,7 °C 12,9 km/h (3 Bft)
27.04.2024 15:03 22,0 °C 18,9 °C 48 % 52 % 1009,8 hPa 0,0 l/m² 9,8 km/h (2 Bft) S-SW 200 ° 1 min 315 W/m² 8,8 °C 17,5 °C 12,9 km/h (3 Bft)
27.04.2024 15:04 22,0 °C 19,0 °C 48 % 51 % 1009,9 hPa 0,0 l/m² 9,1 km/h (2 Bft) S-SW 198 ° 1 min 315 W/m² 8,6 °C 17,9 °C 11,3 km/h (2 Bft)
27.04.2024 15:05 22,0 °C 19,2 °C 48 % 52 % 1009,8 hPa 0,0 l/m² 7,2 km/h (2 Bft) S 188 ° 1 min 315 W/m² 9,1 °C 18,9 °C 11,3 km/h (2 Bft)
27.04.2024 15:06 22,0 °C 19,4 °C 48 % 52 % 1009,8 hPa 0,0 l/m² 5,7 km/h (2 Bft) S 191 ° 1 min 635 W/m² 9,3 °C 19,4 °C 9,7 km/h (2 Bft)
27.04.2024 15:07 22,0 °C 19,8 °C 48 % 54 % 1009,9 hPa 0,0 l/m² 4,9 km/h (1 Bft) S-SW 205 ° 1 min 635 W/m² 10,2 °C 19,8 °C 9,7 km/h (2 Bft)
27.04.2024 15:08 21,9 °C 20,2 °C 49 % 56 % 1009,8 hPa 0,0 l/m² 0,3 km/h (0 Bft) S 185 ° 1 min 635 W/m² 11,1 °C 20,2 °C 1,6 km/h (1 Bft)
27.04.2024 15:09 22,0 °C 20,6 °C 49 % 52 % 1009,8 hPa 0,0 l/m² 2,3 km/h (1 Bft) SO 132 ° 1 min 635 W/m² 10,4 °C 20,6 °C 4,8 km/h (1 Bft)
27.04.2024 15:10 21,9 °C 20,7 °C 49 % 52 % 1009,8 hPa 0,0 l/m² 3,7 km/h (1 Bft) S 173 ° 1 min 355 W/m² 10,5 °C 20,7 °C 9,7 km/h (2 Bft)
27.04.2024 15:11 21,9 °C 20,6 °C 49 % 52 % 1009,8 hPa 0,0 l/m² 9,3 km/h (2 Bft) O-SO 121 ° 1 min 276 W/m² 10,4 °C 19,5 °C 12,9 km/h (3 Bft)
27.04.2024 15:12 21,9 °C 20,4 °C 49 % 49 % 1009,8 hPa 0,0 l/m² 9,8 km/h (2 Bft) SO 134 ° 1 min 281 W/m² 9,3 °C 19,1 °C 14,5 km/h (3 Bft)
27.04.2024 15:13 22,0 °C 20,3 °C 49 % 51 % 1009,7 hPa 0,0 l/m² 10,3 km/h (2 Bft) S-SO 156 ° 1 min 350 W/m² 9,8 °C 18,9 °C 14,5 km/h (3 Bft)
27.04.2024 15:14 22,0 °C 20,1 °C 48 % 49 % 1009,8 hPa 0,0 l/m² 10,8 km/h (2 Bft) SO 130 ° 1 min 301 W/m² 9,0 °C 18,5 °C 16,1 km/h (3 Bft)
27.04.2024 15:15 22,0 °C 19,9 °C 48 % 49 % 1009,8 hPa 0,0 l/m² 11,4 km/h (2 Bft) SO 135 ° 1 min 292 W/m² 8,9 °C 18,1 °C 14,5 km/h (3 Bft)
27.04.2024 15:16 22,0 °C 19,7 °C 49 % 48 % 1009,8 hPa 0,0 l/m² 11,2 km/h (2 Bft) SO 138 ° 1 min 269 W/m² 8,4 °C 17,9 °C 12,9 km/h (3 Bft)
27.04.2024 15:17 22,0 °C 19,6 °C 48 % 51 % 1009,8 hPa 0,0 l/m² 6,8 km/h (2 Bft) SO 131 ° 1 min 267 W/m² 9,2 °C 19,4 °C 8,0 km/h (2 Bft)
27.04.2024 15:18 21,9 °C 19,5 °C 49 % 50 % 1009,7 hPa 0,0 l/m² 6,9 km/h (2 Bft) S-SO 150 ° 1 min 311 W/m² 8,8 °C 19,3 °C 11,3 km/h (2 Bft)
27.04.2024 15:19 22,0 °C 19,4 °C 49 % 51 % 1009,8 hPa 0,0 l/m² 5,8 km/h (2 Bft) SO 131 ° 1 min 221 W/m² 9,0 °C 19,4 °C 9,7 km/h (2 Bft)
27.04.2024 15:20 21,9 °C 19,3 °C 49 % 52 % 1009,7 hPa 0,0 l/m² 4,6 km/h (1 Bft) SO 144 ° 1 min 267 W/m² 9,2 °C 19,3 °C 6,4 km/h (2 Bft)
27.04.2024 15:21 21,9 °C 19,3 °C 49 % 53 % 1009,7 hPa 0,0 l/m² 8,6 km/h (2 Bft) SO 144 ° 1 min 260 W/m² 9,5 °C 18,4 °C 16,1 km/h (3 Bft)
27.04.2024 15:22 21,9 °C 19,2 °C 49 % 51 % 1009,8 hPa 0,0 l/m² 12,8 km/h (3 Bft) SO 146 ° 1 min 353 W/m² 8,8 °C 16,9 °C 16,1 km/h (3 Bft)
27.04.2024 15:23 21,9 °C 19,2 °C 48 % 51 % 1009,8 hPa 0,0 l/m² 9,3 km/h (2 Bft) S-SO 148 ° 1 min 309 W/m² 8,8 °C 18,0 °C 11,3 km/h (2 Bft)
27.04.2024 15:24 21,9 °C 19,3 °C 49 % 51 % 1009,7 hPa 0,0 l/m² 6,9 km/h (2 Bft) S-SO 149 ° 1 min 401 W/m² 8,9 °C 19,1 °C 12,9 km/h (3 Bft)
27.04.2024 15:25 21,9 °C 19,3 °C 49 % 51 % 1009,8 hPa 0,0 l/m² 10,5 km/h (2 Bft) S-SO 148 ° 1 min 401 W/m² 8,9 °C 17,7 °C 12,9 km/h (3 Bft)
27.04.2024 15:26 21,9 °C 19,7 °C 49 % 52 % 1009,8 hPa 0,0 l/m² 7,8 km/h (2 Bft) S-SO 152 ° 1 min 401 W/m² 9,6 °C 19,1 °C 12,9 km/h (3 Bft)
27.04.2024 15:27 21,9 °C 19,9 °C 49 % 50 % 1009,8 hPa 0,0 l/m² 9,7 km/h (2 Bft) SO 132 ° 1 min 401 W/m² 9,2 °C 18,6 °C 14,5 km/h (3 Bft)
27.04.2024 15:28 21,9 °C 20,1 °C 49 % 47 % 1009,7 hPa 0,0 l/m² 10,1 km/h (2 Bft) SO 130 ° 1 min 239 W/m² 8,4 °C 18,7 °C 12,9 km/h (3 Bft)
27.04.2024 15:29 21,9 °C 19,9 °C 49 % 49 % 1009,7 hPa 0,0 l/m² 6,4 km/h (2 Bft) S-SO 162 ° 1 min 225 W/m² 8,9 °C 19,9 °C 9,7 km/h (2 Bft)
27.04.2024 15:30 21,9 °C 19,9 °C 49 % 50 % 1009,7 hPa 0,0 l/m² 6,4 km/h (2 Bft) SO 140 ° 1 min 230 W/m² 9,2 °C 19,9 °C 8,0 km/h (2 Bft)
27.04.2024 15:31 21,9 °C 19,8 °C 49 % 51 % 1009,7 hPa 0,0 l/m² 6,6 km/h (2 Bft) S 169 ° 1 min 244 W/m² 9,4 °C 19,7 °C 9,7 km/h (2 Bft)
27.04.2024 15:32 21,9 °C 19,7 °C 49 % 52 % 1009,7 hPa 0,0 l/m² 5,2 km/h (1 Bft) O-SO 119 ° 1 min 308 W/m² 9,6 °C 19,7 °C 6,4 km/h (2 Bft)
27.04.2024 15:33 21,9 °C 19,6 °C 49 % 53 % 1009,6 hPa 0,0 l/m² 3,5 km/h (1 Bft) O-SO 122 ° 1 min 308 W/m² 9,8 °C 19,6 °C 4,8 km/h (1 Bft)
27.04.2024 15:34 21,9 °C 19,7 °C 49 % 54 % 1009,8 hPa 0,0 l/m² 6,4 km/h (2 Bft) O-SO 123 ° 1 min 248 W/m² 10,1 °C 19,7 °C 8,0 km/h (2 Bft)
27.04.2024 15:35 21,9 °C 19,7 °C 49 % 49 % 1009,8 hPa 0,0 l/m² 5,6 km/h (2 Bft) SO 126 ° 1 min 243 W/m² 8,7 °C 19,7 °C 8,0 km/h (2 Bft)
27.04.2024 15:37 21,9 °C 19,6 °C 49 % 55 % 1009,7 hPa 0,0 l/m² 6,1 km/h (2 Bft) S-SO 150 ° 2 min 248 W/m² 10,3 °C 19,6 °C 14,5 km/h (3 Bft)
27.04.2024 15:38 21,9 °C 19,5 °C 49 % 53 % 1009,7 hPa 0,0 l/m² 8,1 km/h (2 Bft) SO 132 ° 1 min 262 W/m² 9,7 °C 18,8 °C 11,3 km/h (2 Bft)
27.04.2024 15:39 21,9 °C 19,5 °C 49 % 53 % 1009,8 hPa 0,0 l/m² 9,3 km/h (2 Bft) SO 127 ° 1 min 262 W/m² 9,7 °C 18,3 °C 14,5 km/h (3 Bft)
27.04.2024 15:40 21,9 °C 19,6 °C 49 % 52 % 1009,7 hPa 0,0 l/m² 9,9 km/h (2 Bft) S 178 ° 1 min 353 W/m² 9,5 °C 18,2 °C 12,9 km/h (3 Bft)
27.04.2024 15:41 21,9 °C 19,6 °C 49 % 50 % 1009,7 hPa 0,0 l/m² 7,7 km/h (2 Bft) S-SO 165 ° 1 min 301 W/m² 8,9 °C 19,1 °C 11,3 km/h (2 Bft)
27.04.2024 15:42 21,9 °C 19,6 °C 49 % 52 % 1009,7 hPa 0,0 l/m² 10,8 km/h (2 Bft) SO 134 ° 1 min 276 W/m² 9,5 °C 17,9 °C 14,5 km/h (3 Bft)
27.04.2024 15:43 21,9 °C 19,6 °C 49 % 51 % 1009,7 hPa 0,0 l/m² 14,8 km/h (3 Bft) SO 132 ° 1 min 278 W/m² 9,2 °C 16,8 °C 16,1 km/h (3 Bft)
27.04.2024 15:45 21,9 °C 19,7 °C 49 % 51 % 1009,6 hPa 0,0 l/m² 8,9 km/h (2 Bft) SO 145 ° 2 min 278 W/m² 9,3 °C 18,7 °C 14,5 km/h (3 Bft)
27.04.2024 15:46 21,9 °C 19,8 °C 49 % 49 % 1009,7 hPa 0,0 l/m² 10,5 km/h (2 Bft) SO 141 ° 1 min 817 W/m² 8,8 °C 18,3 °C 14,5 km/h (3 Bft)
27.04.2024 15:47 21,9 °C 20,0 °C 49 % 51 % 1009,8 hPa 0,0 l/m² 12,4 km/h (2 Bft) S-SO 150 ° 1 min 817 W/m² 9,6 °C 17,9 °C 16,1 km/h (3 Bft)
27.04.2024 15:48 21,9 °C 20,1 °C 49 % 53 % 1009,7 hPa 0,0 l/m² 9,5 km/h (2 Bft) S-SO 158 ° 1 min 348 W/m² 10,2 °C 18,9 °C 14,5 km/h (3 Bft)
27.04.2024 15:49 21,9 °C 20,2 °C 49 % 54 % 1009,7 hPa 0,0 l/m² 6,6 km/h (2 Bft) S-SW 201 ° 1 min 443 W/m² 10,6 °C 20,1 °C 9,7 km/h (2 Bft)
27.04.2024 15:50 21,9 °C 20,3 °C 49 % 55 % 1009,7 hPa 0,0 l/m² 3,2 km/h (1 Bft) S-SW 207 ° 1 min 443 W/m² 11,0 °C 20,3 °C 8,0 km/h (2 Bft)
27.04.2024 15:51 21,9 °C 20,6 °C 49 % 53 % 1009,7 hPa 0,0 l/m² 8,2 km/h (2 Bft) S 177 ° 1 min 826 W/m² 10,7 °C 19,9 °C 11,3 km/h (2 Bft)
27.04.2024 15:52 21,9 °C 20,8 °C 49 % 52 % 1009,7 hPa 0,0 l/m² 7,8 km/h (2 Bft) S 191 ° 1 min 821 W/m² 10,6 °C 20,3 °C 11,3 km/h (2 Bft)
27.04.2024 15:53 21,9 °C 21,0 °C 49 % 50 % 1009,6 hPa 0,0 l/m² 5,6 km/h (2 Bft) S-SO 157 ° 1 min 816 W/m² 10,2 °C 21,0 °C 8,0 km/h (2 Bft)
27.04.2024 15:54 21,9 °C 21,2 °C 49 % 50 % 1009,6 hPa 0,0 l/m² 5,4 km/h (2 Bft) S-SO 159 ° 1 min 789 W/m² 10,4 °C 21,2 °C 9,7 km/h (2 Bft)
27.04.2024 15:55 21,9 °C 21,2 °C 49 % 48 % 1009,7 hPa 0,0 l/m² 4,8 km/h (1 Bft) SO 132 ° 1 min 744 W/m² 9,7 °C 21,2 °C 9,7 km/h (2 Bft)
27.04.2024 15:56 21,9 °C 21,3 °C 49 % 49 % 1009,5 hPa 0,0 l/m² 10,7 km/h (2 Bft) SO 131 ° 1 min 747 W/m² 10,1 °C 19,9 °C 17,7 km/h (3 Bft)
27.04.2024 15:57 21,9 °C 21,3 °C 49 % 50 % 1009,5 hPa 0,0 l/m² 14,4 km/h (3 Bft) S-SO 165 ° 1 min 737 W/m² 10,4 °C 19,0 °C 17,7 km/h (3 Bft)
27.04.2024 15:58 21,9 °C 21,3 °C 49 % 48 % 1009,5 hPa 0,0 l/m² 14,1 km/h (3 Bft) S-SO 165 ° 1 min 731 W/m² 9,8 °C 19,0 °C 17,7 km/h (3 Bft)
27.04.2024 15:59 21,9 °C 21,3 °C 49 % 49 % 1009,6 hPa 0,0 l/m² 9,7 km/h (2 Bft) S 186 ° 1 min 724 W/m² 10,1 °C 20,2 °C 11,3 km/h (2 Bft)
27.04.2024 16:00 21,9 °C 21,3 °C 49 % 47 % 1009,6 hPa 0,0 l/m² 5,3 km/h (1 Bft) S 190 ° 1 min 721 W/m² 9,5 °C 21,3 °C 8,0 km/h (2 Bft)
27.04.2024 16:01 21,9 °C 21,2 °C 49 % 44 % 1009,6 hPa 0,0 l/m² 3,1 km/h (1 Bft) S 179 ° 1 min 721 W/m² 8,5 °C 21,2 °C 6,4 km/h (2 Bft)
27.04.2024 16:02 21,9 °C 21,2 °C 49 % 48 % 1009,6 hPa 0,0 l/m² 6,9 km/h (2 Bft) SO 145 ° 1 min 721 W/m² 9,7 °C 21,0 °C 11,3 km/h (2 Bft)
27.04.2024 16:03 21,9 °C 21,3 °C 49 % 51 % 1009,5 hPa 0,0 l/m² 6,4 km/h (2 Bft) S-SO 156 ° 1 min 712 W/m² 10,7 °C 21,3 °C 8,0 km/h (2 Bft)
27.04.2024 16:04 21,9 °C 21,3 °C 49 % 49 % 1009,5 hPa 0,0 l/m² 4,4 km/h (1 Bft) S 182 ° 1 min 712 W/m² 10,1 °C 21,3 °C 8,0 km/h (2 Bft)
27.04.2024 16:05 21,9 °C 21,2 °C 49 % 44 % 1009,5 hPa 0,0 l/m² 1,5 km/h (1 Bft) SW 223 ° 1 min 712 W/m² 8,5 °C 21,2 °C 3,2 km/h (1 Bft)
27.04.2024 16:06 21,9 °C 21,1 °C 49 % 43 % 1009,6 hPa 0,0 l/m² 0,3 km/h (0 Bft) SW 223 ° 1 min 784 W/m² 8,0 °C 21,1 °C 3,2 km/h (1 Bft)
27.04.2024 16:07 21,9 °C 21,1 °C 49 % 42 % 1009,6 hPa 0,0 l/m² 0,0 km/h (0 Bft) SW 223 ° 1 min 784 W/m² 7,7 °C 21,1 °C 0,0 km/h (0 Bft)
27.04.2024 16:08 21,9 °C 21,0 °C 49 % 42 % 1009,5 hPa 0,0 l/m² 0,1 km/h (0 Bft) N-NW 331 ° 1 min 784 W/m² 7,6 °C 21,0 °C 1,6 km/h (1 Bft)
27.04.2024 16:09 21,9 °C 20,9 °C 49 % 43 % 1009,5 hPa 0,0 l/m² 1,3 km/h (1 Bft) N-NO 15 ° 1 min 271 W/m² 7,8 °C 20,9 °C 4,8 km/h (1 Bft)
27.04.2024 16:10 21,9 °C 20,7 °C 49 % 47 % 1009,5 hPa 0,0 l/m² 8,2 km/h (2 Bft) S-SW 199 ° 1 min 255 W/m² 9,0 °C 20,0 °C 9,7 km/h (2 Bft)
27.04.2024 16:11 21,9 °C 20,5 °C 49 % 49 % 1009,5 hPa 0,0 l/m² 7,0 km/h (2 Bft) S-SW 213 ° 1 min 255 W/m² 9,4 °C 20,3 °C 9,7 km/h (2 Bft)
27.04.2024 16:12 21,9 °C 20,3 °C 49 % 50 % 1009,5 hPa 0,0 l/m² 8,6 km/h (2 Bft) SW 231 ° 1 min 255 W/m² 9,5 °C 19,4 °C 11,3 km/h (2 Bft)
27.04.2024 16:13 21,9 °C 20,2 °C 49 % 47 % 1009,5 hPa 0,0 l/m² 5,4 km/h (2 Bft) SW 227 ° 1 min 272 W/m² 8,5 °C 20,2 °C 6,4 km/h (2 Bft)
27.04.2024 16:14 21,9 °C 20,2 °C 49 % 48 % 1009,5 hPa 0,0 l/m² 6,1 km/h (2 Bft) SW 233 ° 1 min 279 W/m² 8,8 °C 20,2 °C 8,0 km/h (2 Bft)
27.04.2024 16:15 21,9 °C 20,2 °C 49 % 45 % 1009,5 hPa 0,0 l/m² 3,8 km/h (1 Bft) W-SW 238 ° 1 min 288 W/m² 7,9 °C 20,2 °C 6,4 km/h (2 Bft)
27.04.2024 16:16 21,9 °C 20,3 °C 49 % 50 % 1009,6 hPa 0,0 l/m² 2,7 km/h (1 Bft) W-SW 237 ° 1 min 281 W/m² 9,5 °C 20,3 °C 4,8 km/h (1 Bft)
27.04.2024 16:17 21,9 °C 20,2 °C 49 % 51 % 1009,6 hPa 0,0 l/m² 4,8 km/h (1 Bft) SO 136 ° 1 min 294 W/m² 9,7 °C 20,2 °C 6,4 km/h (2 Bft)
27.04.2024 16:18 21,9 °C 20,1 °C 49 % 52 % 1009,6 hPa 0,0 l/m² 3,5 km/h (1 Bft) SO 134 ° 1 min 269 W/m² 9,9 °C 20,1 °C 4,8 km/h (1 Bft)
27.04.2024 16:19 21,9 °C 20,1 °C 49 % 51 % 1009,6 hPa 0,0 l/m² 2,0 km/h (1 Bft) SO 134 ° 1 min 265 W/m² 9,6 °C 20,1 °C 3,2 km/h (1 Bft)
27.04.2024 16:20 21,9 °C 19,9 °C 49 % 52 % 1009,7 hPa 0,0 l/m² 5,0 km/h (1 Bft) S 180 ° 1 min 260 W/m² 9,7 °C 19,9 °C 9,7 km/h (2 Bft)
27.04.2024 16:21 21,9 °C 19,9 °C 49 % 52 % 1009,6 hPa 0,0 l/m² 6,5 km/h (2 Bft) S-SO 156 ° 1 min 248 W/m² 9,7 °C 19,9 °C 8,0 km/h (2 Bft)
27.04.2024 16:22 21,9 °C 19,8 °C 49 % 53 % 1009,6 hPa 0,0 l/m² 6,9 km/h (2 Bft) SO 133 ° 1 min 243 W/m² 9,9 °C 19,6 °C 9,7 km/h (2 Bft)
27.04.2024 16:23 21,9 °C 19,8 °C 49 % 51 % 1009,6 hPa 0,0 l/m² 6,0 km/h (2 Bft) SO 139 ° 1 min 236 W/m² 9,4 °C 19,8 °C 8,0 km/h (2 Bft)
27.04.2024 16:24 21,9 °C 19,7 °C 49 % 55 % 1009,5 hPa 0,0 l/m² 4,6 km/h (1 Bft) SO 140 ° 1 min 230 W/m² 10,4 °C 19,7 °C 8,0 km/h (2 Bft)
27.04.2024 16:25 21,9 °C 19,6 °C 49 % 54 % 1009,6 hPa 0,0 l/m² 7,4 km/h (2 Bft) S 169 ° 1 min 225 W/m² 10,0 °C 19,2 °C 12,9 km/h (3 Bft)
27.04.2024 16:26 21,9 °C 19,6 °C 49 % 51 % 1009,5 hPa 0,0 l/m² 9,3 km/h (2 Bft) S-SO 157 ° 1 min 250 W/m² 9,2 °C 18,4 °C 12,9 km/h (3 Bft)
27.04.2024 16:27 21,8 °C 19,5 °C 49 % 50 % 1009,5 hPa 0,0 l/m² 8,6 km/h (2 Bft) S 191 ° 1 min 236 W/m² 8,8 °C 18,6 °C 9,7 km/h (2 Bft)
27.04.2024 16:28 21,9 °C 19,4 °C 49 % 52 % 1009,5 hPa 0,0 l/m² 7,4 km/h (2 Bft) S-SW 197 ° 1 min 236 W/m² 9,3 °C 19,0 °C 9,7 km/h (2 Bft)
27.04.2024 16:29 21,9 °C 19,4 °C 49 % 51 % 1009,6 hPa 0,0 l/m² 8,1 km/h (2 Bft) S-SW 198 ° 1 min 237 W/m² 9,0 °C 18,7 °C 9,7 km/h (2 Bft)
27.04.2024 16:30 21,9 °C 19,3 °C 49 % 52 % 1009,5 hPa 0,0 l/m² 7,9 km/h (2 Bft) S 187 ° 1 min 239 W/m² 9,2 °C 18,7 °C 11,3 km/h (2 Bft)
27.04.2024 16:31 21,9 °C 19,3 °C 49 % 53 % 1009,6 hPa 0,0 l/m² 7,8 km/h (2 Bft) S 175 ° 1 min 234 W/m² 9,5 °C 18,7 °C 11,3 km/h (2 Bft)
27.04.2024 16:32 21,8 °C 19,3 °C 49 % 54 % 1009,5 hPa 0,0 l/m² 6,8 km/h (2 Bft) S 178 ° 1 min 225 W/m² 9,8 °C 19,1 °C 11,3 km/h (2 Bft)
27.04.2024 16:33 21,9 °C 19,2 °C 49 % 51 % 1009,6 hPa 0,0 l/m² 6,0 km/h (2 Bft) S 174 ° 1 min 227 W/m² 8,8 °C 19,2 °C 8,0 km/h (2 Bft)
27.04.2024 16:34 21,8 °C 19,2 °C 49 % 53 % 1009,6 hPa 0,0 l/m² 6,1 km/h (2 Bft) S 174 ° 1 min 234 W/m² 9,4 °C 19,2 °C 8,0 km/h (2 Bft)
27.04.2024 16:35 21,9 °C 19,2 °C 49 % 53 % 1009,6 hPa 0,0 l/m² 6,4 km/h (2 Bft) S 173 ° 1 min 216 W/m² 9,4 °C 19,2 °C 8,0 km/h (2 Bft)
27.04.2024 16:36 21,8 °C 19,3 °C 49 % 52 % 1009,7 hPa 0,0 l/m² 6,0 km/h (2 Bft) S 190 ° 1 min 216 W/m² 9,2 °C 19,3 °C 9,7 km/h (2 Bft)
27.04.2024 16:37 21,8 °C 19,3 °C 49 % 54 % 1009,7 hPa 0,0 l/m² 5,2 km/h (1 Bft) S 188 ° 1 min 216 W/m² 9,8 °C 19,3 °C 6,4 km/h (2 Bft)
27.04.2024 16:38 21,9 °C 19,3 °C 49 % 53 % 1009,6 hPa 0,0 l/m² 5,0 km/h (1 Bft) S 188 ° 1 min 258 W/m² 9,5 °C 19,3 °C 6,4 km/h (2 Bft)
27.04.2024 16:39 21,9 °C 19,4 °C 49 % 53 % 1009,5 hPa 0,0 l/m² 5,0 km/h (1 Bft) S 188 ° 1 min 267 W/m² 9,6 °C 19,4 °C 6,4 km/h (2 Bft)
27.04.2024 16:40 21,8 °C 19,4 °C 49 % 54 % 1009,5 hPa 0,0 l/m² 4,9 km/h (1 Bft) S-SW 192 ° 1 min 290 W/m² 9,8 °C 19,4 °C 6,4 km/h (2 Bft)
27.04.2024 16:41 21,9 °C 19,4 °C 49 % 54 % 1009,6 hPa 0,0 l/m² 3,2 km/h (1 Bft) S-SW 192 ° 1 min 332 W/m² 9,8 °C 19,4 °C 4,8 km/h (1 Bft)
27.04.2024 16:42 21,8 °C 19,5 °C 49 % 54 % 1009,6 hPa 0,0 l/m² 0,9 km/h (0 Bft) S-SW 192 ° 1 min 278 W/m² 9,9 °C 19,5 °C 1,6 km/h (1 Bft)
27.04.2024 16:43 21,8 °C 19,6 °C 49 % 51 % 1009,5 hPa 0,0 l/m² 0,0 km/h (0 Bft) S-SW 192 ° 1 min 306 W/m² 9,2 °C 19,6 °C 0,0 km/h (0 Bft)
27.04.2024 16:44 21,8 °C 19,6 °C 49 % 49 % 1009,5 hPa 0,0 l/m² 0,0 km/h (0 Bft) S-SW 192 ° 1 min 272 W/m² 8,6 °C 19,6 °C 0,0 km/h (0 Bft)
27.04.2024 16:45 21,8 °C 19,7 °C 49 % 47 % 1009,6 hPa 0,0 l/m² 0,0 km/h (0 Bft) S-SW 192 ° 1 min 281 W/m² 8,1 °C 19,7 °C 0,0 km/h (0 Bft)
27.04.2024 16:46 21,9 °C 19,7 °C 49 % 52 % 1009,5 hPa 0,0 l/m² 0,0 km/h (0 Bft) S-SW 192 ° 1 min 353 W/m² 9,6 °C 19,7 °C 0,0 km/h (0 Bft)
27.04.2024 16:47 21,8 °C 19,8 °C 49 % 57 % 1009,5 hPa 0,0 l/m² 0,0 km/h (0 Bft) S-SW 192 ° 1 min 353 W/m² 11,0 °C 19,8 °C 0,0 km/h (0 Bft)
27.04.2024 16:48 21,8 °C 19,9 °C 49 % 53 % 1009,6 hPa 0,0 l/m² 0,0 km/h (0 Bft) S-SW 192 ° 1 min 353 W/m² 10,0 °C 19,9 °C 0,0 km/h (0 Bft)
27.04.2024 16:49 21,8 °C 20,1 °C 49 % 50 % 1009,5 hPa 0,0 l/m² 0,0 km/h (0 Bft) S-SW 192 ° 1 min 353 W/m² 9,3 °C 20,1 °C 0,0 km/h (0 Bft)
27.04.2024 16:50 21,8 °C 20,3 °C 49 % 48 % 1009,5 hPa 0,0 l/m² 0,0 km/h (0 Bft) S-SW 192 ° 1 min 714 W/m² 8,9 °C 20,3 °C 0,0 km/h (0 Bft)
27.04.2024 16:51 21,8 °C 20,5 °C 49 % 48 % 1009,6 hPa 0,0 l/m² 0,0 km/h (0 Bft) S-SW 192 ° 1 min 708 W/m² 9,1 °C 20,5 °C 0,0 km/h (0 Bft)
27.04.2024 16:52 21,9 °C 20,7 °C 49 % 49 % 1009,5 hPa 0,0 l/m² 0,0 km/h (0 Bft) S-SW 192 ° 1 min 712 W/m² 9,6 °C 20,7 °C 0,0 km/h (0 Bft)
27.04.2024 16:53 21,8 °C 20,8 °C 49 % 45 % 1009,5 hPa 0,0 l/m² 0,0 km/h (0 Bft) S-SW 192 ° 1 min 705 W/m² 8,4 °C 20,8 °C 0,0 km/h (0 Bft)
27.04.2024 16:54 21,9 °C 20,9 °C 49 % 45 % 1009,5 hPa 0,0 l/m² 0,0 km/h (0 Bft) S-SW 192 ° 1 min 703 W/m² 8,5 °C 20,9 °C 0,0 km/h (0 Bft)
27.04.2024 16:55 21,8 °C 21,2 °C 49 % 50 % 1009,5 hPa 0,0 l/m² 0,0 km/h (0 Bft) S-SW 192 ° 1 min 703 W/m² 10,4 °C 21,2 °C 0,0 km/h (0 Bft)
27.04.2024 16:56 21,8 °C 21,4 °C 49 % 47 % 1009,5 hPa 0,0 l/m² 0,1 km/h (0 Bft) S 169 ° 1 min 686 W/m² 9,6 °C 21,4 °C 1,6 km/h (1 Bft)
27.04.2024 16:57 21,8 °C 21,4 °C 49 % 43 % 1009,5 hPa 0,0 l/m² 0,0 km/h (0 Bft) S 169 ° 1 min 621 W/m² 8,3 °C 21,4 °C 0,0 km/h (0 Bft)
27.04.2024 16:58 21,8 °C 21,4 °C 49 % 41 % 1009,5 hPa 0,0 l/m² 0,0 km/h (0 Bft) SO 130 ° 1 min 631 W/m² 7,6 °C 21,4 °C 0,0 km/h (0 Bft)
27.04.2024 16:59 21,8 °C 21,3 °C 49 % 43 % 1009,4 hPa 0,0 l/m² 0,5 km/h (0 Bft) O-SO 113 ° 1 min 596 W/m² 8,2 °C 21,3 °C 3,2 km/h (1 Bft)
27.04.2024 17:00 21,8 °C 21,3 °C 49 % 45 % 1009,5 hPa 0,0 l/m² 0,0 km/h (0 Bft) O-SO 113 ° 1 min 575 W/m² 8,9 °C 21,3 °C 0,0 km/h (0 Bft)
27.04.2024 17:01 21,8 °C 21,3 °C 49 % 49 % 1009,4 hPa 0,0 l/m² 0,0 km/h (0 Bft) O-SO 113 ° 1 min 552 W/m² 10,1 °C 21,3 °C 0,0 km/h (0 Bft)
27.04.2024 17:02 21,8 °C 21,3 °C 49 % 49 % 1009,4 hPa 0,0 l/m² 2,0 km/h (1 Bft) S 183 ° 1 min 538 W/m² 10,1 °C 21,3 °C 3,2 km/h (1 Bft)
27.04.2024 17:03 21,8 °C 21,4 °C 49 % 50 % 1009,4 hPa 0,0 l/m² 6,1 km/h (2 Bft) S-SO 156 ° 1 min 531 W/m² 10,5 °C 21,4 °C 8,0 km/h (2 Bft)
27.04.2024 17:04 21,8 °C 21,4 °C 49 % 46 % 1009,4 hPa 0,0 l/m² 2,1 km/h (1 Bft) SO 145 ° 1 min 533 W/m² 9,3 °C 21,4 °C 4,8 km/h (1 Bft)
27.04.2024 17:05 21,8 °C 21,3 °C 49 % 49 % 1009,5 hPa 0,0 l/m² 0,7 km/h (0 Bft) SO 145 ° 1 min 527 W/m² 10,1 °C 21,3 °C 4,8 km/h (1 Bft)
27.04.2024 17:06 21,8 °C 21,3 °C 49 % 46 % 1009,4 hPa 0,0 l/m² 1,2 km/h (1 Bft) S-SO 164 ° 1 min 524 W/m² 9,2 °C 21,3 °C 6,4 km/h (2 Bft)
27.04.2024 17:07 21,8 °C 21,3 °C 49 % 46 % 1009,4 hPa 0,0 l/m² 2,9 km/h (1 Bft) S-SO 154 ° 1 min 517 W/m² 9,2 °C 21,3 °C 6,4 km/h (2 Bft)
27.04.2024 17:08 21,8 °C 21,2 °C 49 % 46 % 1009,5 hPa 0,0 l/m² 5,0 km/h (1 Bft) O-SO 122 ° 1 min 490 W/m² 9,1 °C 21,2 °C 8,0 km/h (2 Bft)
27.04.2024 17:09 21,8 °C 21,2 °C 49 % 46 % 1009,4 hPa 0,0 l/m² 6,6 km/h (2 Bft) S-SO 158 ° 1 min 475 W/m² 9,1 °C 21,1 °C 9,7 km/h (2 Bft)
27.04.2024 17:10 21,8 °C 21,1 °C 49 % 48 % 1009,4 hPa 0,0 l/m² 7,6 km/h (2 Bft) S-SO 150 ° 1 min 499 W/m² 9,7 °C 20,7 °C 11,3 km/h (2 Bft)
27.04.2024 17:11 21,8 °C 21,1 °C 49 % 45 % 1009,4 hPa 0,0 l/m² 5,8 km/h (2 Bft) S-SW 200 ° 1 min 501 W/m² 8,7 °C 21,1 °C 9,7 km/h (2 Bft)
27.04.2024 17:12 21,8 °C 21,1 °C 49 % 41 % 1009,5 hPa 0,0 l/m² 0,8 km/h (0 Bft) SW 214 ° 1 min 501 W/m² 7,3 °C 21,1 °C 4,8 km/h (1 Bft)
27.04.2024 17:13 21,8 °C 21,1 °C 49 % 43 % 1009,4 hPa 0,0 l/m² 3,2 km/h (1 Bft) W-SW 239 ° 1 min 504 W/m² 8,0 °C 21,1 °C 8,0 km/h (2 Bft)
27.04.2024 17:14 21,8 °C 21,2 °C 49 % 43 % 1009,4 hPa 0,0 l/m² 3,6 km/h (1 Bft) S-SW 210 ° 1 min 504 W/m² 8,1 °C 21,2 °C 4,8 km/h (1 Bft)
27.04.2024 17:15 21,8 °C 21,2 °C 49 % 41 % 1009,4 hPa 0,0 l/m² 0,3 km/h (0 Bft) S-SW 210 ° 1 min 501 W/m² 7,4 °C 21,2 °C 3,2 km/h (1 Bft)
27.04.2024 17:16 21,8 °C 21,3 °C 49 % 45 % 1009,4 hPa 0,0 l/m² 0,0 km/h (0 Bft) S-SW 208 ° 1 min 501 W/m² 8,9 °C 21,3 °C 0,0 km/h (0 Bft)
27.04.2024 17:17 21,8 °C 21,2 °C 49 % 43 % 1009,3 hPa 0,0 l/m² 0,3 km/h (0 Bft) O-SO 103 ° 1 min 503 W/m² 8,1 °C 21,2 °C 1,6 km/h (1 Bft)
27.04.2024 17:18 21,8 °C 21,2 °C 49 % 45 % 1009,4 hPa 0,0 l/m² 2,4 km/h (1 Bft) O 96 ° 1 min 503 W/m² 8,8 °C 21,2 °C 4,8 km/h (1 Bft)
27.04.2024 17:19 21,8 °C 21,3 °C 49 % 47 % 1009,3 hPa 0,0 l/m² 0,7 km/h (0 Bft) O 97 ° 1 min 506 W/m² 9,5 °C 21,3 °C 4,8 km/h (1 Bft)
27.04.2024 17:20 21,9 °C 21,4 °C 49 % 44 % 1009,4 hPa 0,0 l/m² 0,0 km/h (0 Bft) O 97 ° 1 min 510 W/m² 8,6 °C 21,4 °C 0,0 km/h (0 Bft)
27.04.2024 17:21 21,8 °C 21,5 °C 49 % 45 % 1009,3 hPa 0,0 l/m² 0,1 km/h (0 Bft) O-SO 113 ° 1 min 515 W/m² 9,1 °C 21,5 °C 1,6 km/h (1 Bft)
27.04.2024 17:22 21,8 °C 21,5 °C 49 % 45 % 1009,3 hPa 0,0 l/m² 0,0 km/h (0 Bft) O-SO 118 ° 1 min 519 W/m² 9,1 °C 21,5 °C 0,0 km/h (0 Bft)
27.04.2024 17:23 21,8 °C 21,4 °C 49 % 46 % 1009,3 hPa 0,0 l/m² 0,0 km/h (0 Bft) O-SO 118 ° 1 min 522 W/m² 9,3 °C 21,4 °C 0,0 km/h (0 Bft)
27.04.2024 17:24 21,8 °C 21,4 °C 49 % 42 % 1009,3 hPa 0,0 l/m² 0,0 km/h (0 Bft) O-SO 118 ° 1 min 524 W/m² 8,0 °C 21,4 °C 0,0 km/h (0 Bft)
27.04.2024 17:25 21,8 °C 21,4 °C 49 % 46 % 1009,4 hPa 0,0 l/m² 1,5 km/h (1 Bft) S 189 ° 1 min 533 W/m² 9,3 °C 21,4 °C 4,8 km/h (1 Bft)
27.04.2024 17:26 21,9 °C 21,4 °C 49 % 48 % 1009,3 hPa 0,0 l/m² 3,8 km/h (1 Bft) S-SW 207 ° 1 min 536 W/m² 9,9 °C 21,4 °C 6,4 km/h (2 Bft)
27.04.2024 17:27 21,8 °C 21,4 °C 49 % 46 % 1009,3 hPa 0,0 l/m² 7,8 km/h (2 Bft) S 171 ° 1 min 540 W/m² 9,3 °C 20,9 °C 14,5 km/h (3 Bft)
27.04.2024 17:28 21,8 °C 21,4 °C 49 % 47 % 1009,3 hPa 0,0 l/m² 6,8 km/h (2 Bft) S 191 ° 1 min 538 W/m² 9,6 °C 21,3 °C 9,7 km/h (2 Bft)
27.04.2024 17:29 21,9 °C 21,4 °C 49 % 45 % 1009,4 hPa 0,0 l/m² 6,3 km/h (2 Bft) S 190 ° 1 min 534 W/m² 9,0 °C 21,4 °C 9,7 km/h (2 Bft)
27.04.2024 17:30 21,9 °C 21,4 °C 49 % 43 % 1009,3 hPa 0,0 l/m² 3,4 km/h (1 Bft) S 188 ° 1 min 443 W/m² 8,3 °C 21,4 °C 6,4 km/h (2 Bft)
27.04.2024 17:32 21,8 °C 21,4 °C 49 % 46 % 1009,3 hPa 0,0 l/m² 2,5 km/h (1 Bft) S 188 ° 2 min 503 W/m² 9,3 °C 21,4 °C 6,4 km/h (2 Bft)
27.04.2024 17:33 21,8 °C 21,4 °C 49 % 46 % 1009,3 hPa 0,0 l/m² 1,3 km/h (1 Bft) S 188 ° 1 min 468 W/m² 9,3 °C 21,4 °C 3,2 km/h (1 Bft)
27.04.2024 17:34 21,8 °C 21,4 °C 49 % 45 % 1009,3 hPa 0,0 l/m² 0,1 km/h (0 Bft) S 188 ° 1 min 468 W/m² 9,0 °C 21,4 °C 1,6 km/h (1 Bft)
27.04.2024 17:35 21,8 °C 21,3 °C 49 % 46 % 1009,3 hPa 0,0 l/m² 0,4 km/h (0 Bft) S 188 ° 1 min 309 W/m² 9,2 °C 21,3 °C 1,6 km/h (1 Bft)
27.04.2024 17:36 21,8 °C 21,2 °C 49 % 46 % 1009,3 hPa 0,0 l/m² 2,3 km/h (1 Bft) S 188 ° 1 min 345 W/m² 9,1 °C 21,2 °C 6,4 km/h (2 Bft)
27.04.2024 17:37 21,8 °C 21,0 °C 49 % 47 % 1009,3 hPa 0,0 l/m² 3,8 km/h (1 Bft) S 182 ° 1 min 290 W/m² 9,3 °C 21,0 °C 6,4 km/h (2 Bft)
27.04.2024 17:38 21,8 °C 20,9 °C 49 % 46 % 1009,3 hPa 0,0 l/m² 2,5 km/h (1 Bft) S 182 ° 1 min 346 W/m² 8,8 °C 20,9 °C 4,8 km/h (1 Bft)
27.04.2024 17:39 21,8 °C 20,9 °C 49 % 49 % 1009,3 hPa 0,0 l/m² 2,2 km/h (1 Bft) S 182 ° 1 min 413 W/m² 9,8 °C 20,9 °C 4,8 km/h (1 Bft)
27.04.2024 17:40 21,8 °C 20,9 °C 49 % 46 % 1009,3 hPa 0,0 l/m² 1,5 km/h (1 Bft) S 182 ° 1 min 422 W/m² 8,8 °C 20,9 °C 3,2 km/h (1 Bft)
27.04.2024 17:41 21,8 °C 21,0 °C 49 % 47 % 1009,3 hPa 0,0 l/m² 2,5 km/h (1 Bft) S 182 ° 1 min 420 W/m² 9,3 °C 21,0 °C 3,2 km/h (1 Bft)
27.04.2024 17:42 21,8 °C 21,1 °C 49 % 49 % 1009,3 hPa 0,0 l/m² 1,4 km/h (1 Bft) S 182 ° 1 min 413 W/m² 10,0 °C 21,1 °C 3,2 km/h (1 Bft)
27.04.2024 17:43 21,8 °C 21,1 °C 49 % 48 % 1009,4 hPa 0,0 l/m² 3,0 km/h (1 Bft) S-SW 207 ° 1 min 410 W/m² 9,7 °C 21,1 °C 6,4 km/h (2 Bft)
27.04.2024 17:44 21,8 °C 21,1 °C 49 % 48 % 1009,4 hPa 0,0 l/m² 3,0 km/h (1 Bft) S-SW 207 ° 1 min 408 W/m² 9,7 °C 21,1 °C 4,8 km/h (1 Bft)
27.04.2024 17:45 21,8 °C 21,1 °C 49 % 45 % 1009,4 hPa 0,0 l/m² 1,7 km/h (1 Bft) S-SW 207 ° 1 min 408 W/m² 8,7 °C 21,1 °C 4,8 km/h (1 Bft)
27.04.2024 17:46 21,8 °C 21,1 °C 49 % 48 % 1009,4 hPa 0,0 l/m² 4,0 km/h (1 Bft) S-SW 205 ° 1 min 404 W/m² 9,7 °C 21,1 °C 4,8 km/h (1 Bft)
27.04.2024 17:47 21,8 °C 21,1 °C 49 % 44 % 1009,4 hPa 0,0 l/m² 3,8 km/h (1 Bft) S-SW 204 ° 1 min 306 W/m² 8,4 °C 21,1 °C 6,4 km/h (2 Bft)
27.04.2024 17:48 21,8 °C 21,1 °C 49 % 44 % 1009,3 hPa 0,0 l/m² 2,0 km/h (1 Bft) S-SW 204 ° 1 min 399 W/m² 8,4 °C 21,1 °C 4,8 km/h (1 Bft)
27.04.2024 17:49 21,8 °C 21,0 °C 49 % 44 % 1009,4 hPa 0,0 l/m² 0,3 km/h (0 Bft) S-SW 204 ° 1 min 403 W/m² 8,3 °C 21,0 °C 3,2 km/h (1 Bft)
27.04.2024 17:50 21,8 °C 20,9 °C 49 % 46 % 1009,4 hPa 0,0 l/m² 0,4 km/h (0 Bft) S-SW 204 ° 1 min 401 W/m² 8,8 °C 20,9 °C 1,6 km/h (1 Bft)
27.04.2024 17:51 21,8 °C 20,9 °C 49 % 46 % 1009,3 hPa 0,0 l/m² 0,0 km/h (0 Bft) S-SW 204 ° 1 min 323 W/m² 8,8 °C 20,9 °C 0,0 km/h (0 Bft)
27.04.2024 17:52 21,8 °C 20,9 °C 49 % 50 % 1009,3 hPa 0,0 l/m² 0,0 km/h (0 Bft) S-SW 204 ° 1 min 385 W/m² 10,1 °C 20,9 °C 0,0 km/h (0 Bft)
27.04.2024 17:53 21,8 °C 20,9 °C 49 % 48 % 1009,3 hPa 0,0 l/m² 4,4 km/h (1 Bft) S-SO 166 ° 1 min 364 W/m² 9,5 °C 20,9 °C 8,0 km/h (2 Bft)
27.04.2024 17:54 21,8 °C 20,9 °C 49 % 45 % 1009,4 hPa 0,0 l/m² 3,4 km/h (1 Bft) S-SO 167 ° 1 min 390 W/m² 8,5 °C 20,9 °C 6,4 km/h (2 Bft)
27.04.2024 17:55 21,8 °C 20,8 °C 49 % 45 % 1009,3 hPa 0,0 l/m² 5,9 km/h (2 Bft) S 169 ° 1 min 385 W/m² 8,4 °C 20,8 °C 8,0 km/h (2 Bft)
27.04.2024 17:56 21,8 °C 20,8 °C 49 % 48 % 1009,3 hPa 0,0 l/m² 9,5 km/h (2 Bft) S-SO 155 ° 1 min 332 W/m² 9,4 °C 19,7 °C 14,5 km/h (3 Bft)
27.04.2024 17:57 21,8 °C 20,8 °C 49 % 46 % 1009,4 hPa 0,0 l/m² 4,4 km/h (1 Bft) S-SO 155 ° 1 min 332 W/m² 8,8 °C 20,8 °C 9,7 km/h (2 Bft)
27.04.2024 17:58 21,8 °C 20,8 °C 49 % 41 % 1009,3 hPa 0,0 l/m² 4,0 km/h (1 Bft) S-SO 165 ° 1 min 272 W/m² 7,1 °C 20,8 °C 8,0 km/h (2 Bft)
27.04.2024 17:59 21,8 °C 20,8 °C 49 % 46 % 1009,3 hPa 0,0 l/m² 8,0 km/h (2 Bft) S 186 ° 1 min 330 W/m² 8,8 °C 20,2 °C 11,3 km/h (2 Bft)
27.04.2024 18:00 21,8 °C 20,8 °C 49 % 47 % 1009,4 hPa 0,0 l/m² 6,0 km/h (2 Bft) S 174 ° 1 min 371 W/m² 9,1 °C 20,8 °C 9,7 km/h (2 Bft)
27.04.2024 18:01 21,8 °C 20,8 °C 49 % 47 % 1009,4 hPa 0,0 l/m² 9,0 km/h (2 Bft) O-SO 102 ° 1 min 371 W/m² 9,1 °C 19,8 °C 12,9 km/h (3 Bft)
27.04.2024 18:02 21,8 °C 20,8 °C 49 % 45 % 1009,4 hPa 0,0 l/m² 12,7 km/h (3 Bft) O-SO 122 ° 1 min 369 W/m² 8,4 °C 18,8 °C 17,7 km/h (3 Bft)
27.04.2024 18:03 21,8 °C 20,7 °C 49 % 47 % 1009,4 hPa 0,0 l/m² 10,8 km/h (2 Bft) O-SO 109 ° 1 min 367 W/m² 9,0 °C 19,2 °C 12,9 km/h (3 Bft)
27.04.2024 18:04 21,8 °C 20,6 °C 49 % 46 % 1009,4 hPa 0,0 l/m² 12,1 km/h (2 Bft) SO 124 ° 1 min 366 W/m² 8,6 °C 18,7 °C 16,1 km/h (3 Bft)
27.04.2024 18:05 21,8 °C 20,6 °C 49 % 45 % 1009,4 hPa 0,0 l/m² 9,8 km/h (2 Bft) O 93 ° 1 min 362 W/m² 8,2 °C 19,4 °C 12,9 km/h (3 Bft)
27.04.2024 18:06 21,8 °C 20,6 °C 49 % 45 % 1009,4 hPa 0,0 l/m² 10,8 km/h (2 Bft) O 82 ° 1 min 353 W/m² 8,2 °C 19,1 °C 12,9 km/h (3 Bft)
27.04.2024 18:07 21,8 °C 20,6 °C 49 % 43 % 1009,4 hPa 0,0 l/m² 8,3 km/h (2 Bft) O 85 ° 1 min 346 W/m² 7,6 °C 19,9 °C 12,9 km/h (3 Bft)
27.04.2024 18:08 21,8 °C 20,7 °C 49 % 46 % 1009,4 hPa 0,0 l/m² 5,8 km/h (2 Bft) O 94 ° 1 min 339 W/m² 8,7 °C 20,7 °C 9,7 km/h (2 Bft)
27.04.2024 18:09 21,8 °C 20,6 °C 49 % 47 % 1009,4 hPa 0,0 l/m² 3,2 km/h (1 Bft) O 95 ° 1 min 330 W/m² 8,9 °C 20,6 °C 4,8 km/h (1 Bft)
27.04.2024 18:10 21,8 °C 20,6 °C 49 % 46 % 1009,3 hPa 0,0 l/m² 6,1 km/h (2 Bft) O-SO 123 ° 1 min 323 W/m² 8,6 °C 20,6 °C 8,0 km/h (2 Bft)
27.04.2024 18:11 21,8 °C 20,6 °C 49 % 44 % 1009,3 hPa 0,0 l/m² 4,0 km/h (1 Bft) SO 144 ° 1 min 318 W/m² 7,9 °C 20,6 °C 6,4 km/h (2 Bft)
27.04.2024 18:12 21,8 °C 20,6 °C 49 % 48 % 1009,3 hPa 0,0 l/m² 1,7 km/h (1 Bft) SO 144 ° 1 min 309 W/m² 9,2 °C 20,6 °C 3,2 km/h (1 Bft)
27.04.2024 18:13 21,8 °C 20,6 °C 49 % 45 % 1009,3 hPa 0,0 l/m² 2,1 km/h (1 Bft) O 101 ° 1 min 308 W/m² 8,2 °C 20,6 °C 4,8 km/h (1 Bft)
27.04.2024 18:14 21,8 °C 20,6 °C 49 % 46 % 1009,3 hPa 0,0 l/m² 6,9 km/h (2 Bft) O-SO 118 ° 1 min 304 W/m² 8,6 °C 20,4 °C 11,3 km/h (2 Bft)
27.04.2024 18:15 21,8 °C 20,5 °C 49 % 45 % 1009,3 hPa 0,0 l/m² 5,4 km/h (2 Bft) SO 125 ° 1 min 301 W/m² 8,2 °C 20,5 °C 8,0 km/h (2 Bft)
27.04.2024 18:16 21,8 °C 20,5 °C 49 % 45 % 1009,3 hPa 0,0 l/m² 5,9 km/h (2 Bft) SO 127 ° 1 min 297 W/m² 8,2 °C 20,5 °C 6,4 km/h (2 Bft)
27.04.2024 18:17 21,8 °C 20,5 °C 49 % 44 % 1009,3 hPa 0,0 l/m² 2,8 km/h (1 Bft) O-SO 117 ° 1 min 295 W/m² 7,8 °C 20,5 °C 4,8 km/h (1 Bft)
27.04.2024 18:18 21,8 °C 20,6 °C 49 % 47 % 1009,3 hPa 0,0 l/m² 1,2 km/h (1 Bft) O-SO 117 ° 1 min 290 W/m² 8,9 °C 20,6 °C 3,2 km/h (1 Bft)
27.04.2024 18:19 21,8 °C 20,6 °C 49 % 44 % 1009,3 hPa 0,0 l/m² 2,2 km/h (1 Bft) SO 144 ° 1 min 288 W/m² 7,9 °C 20,6 °C 4,8 km/h (1 Bft)
27.04.2024 18:20 21,8 °C 20,6 °C 49 % 50 % 1009,4 hPa 0,0 l/m² 4,1 km/h (1 Bft) O 97 ° 1 min 287 W/m² 9,8 °C 20,6 °C 9,7 km/h (2 Bft)
27.04.2024 18:21 21,8 °C 20,6 °C 49 % 47 % 1009,3 hPa 0,0 l/m² 6,0 km/h (2 Bft) O-SO 102 ° 1 min 288 W/m² 8,9 °C 20,6 °C 9,7 km/h (2 Bft)
27.04.2024 18:22 21,8 °C 20,5 °C 49 % 46 % 1009,3 hPa 0,0 l/m² 6,2 km/h (2 Bft) O-SO 111 ° 1 min 287 W/m² 8,5 °C 20,5 °C 9,7 km/h (2 Bft)
27.04.2024 18:23 21,8 °C 20,5 °C 49 % 46 % 1009,4 hPa 0,0 l/m² 7,0 km/h (2 Bft) SO 134 ° 1 min 281 W/m² 8,5 °C 20,3 °C 12,9 km/h (3 Bft)
27.04.2024 18:24 21,8 °C 20,4 °C 49 % 44 % 1009,4 hPa 0,0 l/m² 9,1 km/h (2 Bft) SO 134 ° 1 min 278 W/m² 7,7 °C 19,4 °C 12,9 km/h (3 Bft)
27.04.2024 18:25 21,8 °C 20,4 °C 49 % 45 % 1009,4 hPa 0,0 l/m² 6,7 km/h (2 Bft) SO 139 ° 1 min 274 W/m² 8,1 °C 20,3 °C 11,3 km/h (2 Bft)
27.04.2024 18:26 21,8 °C 20,3 °C 49 % 45 % 1009,4 hPa 0,0 l/m² 3,9 km/h (1 Bft) SO 140 ° 1 min 271 W/m² 8,0 °C 20,3 °C 6,4 km/h (2 Bft)
27.04.2024 18:27 21,8 °C 20,3 °C 49 % 46 % 1009,3 hPa 0,0 l/m² 5,0 km/h (1 Bft) SO 124 ° 1 min 265 W/m² 8,3 °C 20,3 °C 11,3 km/h (2 Bft)
27.04.2024 18:28 21,8 °C 20,3 °C 49 % 47 % 1009,4 hPa 0,0 l/m² 11,1 km/h (2 Bft) S 169 ° 1 min 264 W/m² 8,6 °C 18,6 °C 16,1 km/h (3 Bft)
27.04.2024 18:29 21,8 °C 20,3 °C 49 % 47 % 1009,4 hPa 0,0 l/m² 9,1 km/h (2 Bft) SO 133 ° 1 min 258 W/m² 8,6 °C 19,3 °C 12,9 km/h (3 Bft)
27.04.2024 18:30 21,8 °C 20,2 °C 49 % 47 % 1009,3 hPa 0,0 l/m² 8,2 km/h (2 Bft) O-SO 113 ° 1 min 239 W/m² 8,5 °C 19,5 °C 12,9 km/h (3 Bft)
27.04.2024 18:31 21,8 °C 20,2 °C 49 % 47 % 1009,3 hPa 0,0 l/m² 6,8 km/h (2 Bft) O-SO 121 ° 1 min 204 W/m² 8,5 °C 20,0 °C 8,0 km/h (2 Bft)
27.04.2024 18:32 21,8 °C 20,2 °C 49 % 46 % 1009,4 hPa 0,0 l/m² 5,6 km/h (2 Bft) SO 141 ° 1 min 162 W/m² 8,2 °C 20,2 °C 6,4 km/h (2 Bft)
27.04.2024 18:33 21,8 °C 20,2 °C 49 % 49 % 1009,4 hPa 0,0 l/m² 3,5 km/h (1 Bft) SO 140 ° 1 min 171 W/m² 9,1 °C 20,2 °C 6,4 km/h (2 Bft)
27.04.2024 18:34 21,7 °C 20,2 °C 49 % 47 % 1009,3 hPa 0,0 l/m² 1,2 km/h (1 Bft) SO 140 ° 1 min 214 W/m² 8,5 °C 20,2 °C 3,2 km/h (1 Bft)
27.04.2024 18:35 21,8 °C 20,2 °C 49 % 46 % 1009,3 hPa 0,0 l/m² 4,5 km/h (1 Bft) SO 139 ° 1 min 236 W/m² 8,2 °C 20,2 °C 6,4 km/h (2 Bft)
27.04.2024 18:36 21,7 °C 20,1 °C 49 % 48 % 1009,3 hPa 0,0 l/m² 5,9 km/h (2 Bft) SO 142 ° 1 min 211 W/m² 8,7 °C 20,1 °C 6,4 km/h (2 Bft)
27.04.2024 18:37 21,8 °C 20,1 °C 49 % 49 % 1009,4 hPa 0,0 l/m² 4,7 km/h (1 Bft) SO 143 ° 1 min 186 W/m² 9,0 °C 20,1 °C 6,4 km/h (2 Bft)
27.04.2024 18:38 21,8 °C 20,1 °C 49 % 46 % 1009,3 hPa 0,0 l/m² 5,9 km/h (2 Bft) S-SO 161 ° 1 min 172 W/m² 8,1 °C 20,1 °C 9,7 km/h (2 Bft)
27.04.2024 18:39 21,8 °C 20,1 °C 49 % 48 % 1009,3 hPa 0,0 l/m² 4,8 km/h (1 Bft) SO 139 ° 1 min 174 W/m² 8,7 °C 20,1 °C 8,0 km/h (2 Bft)
27.04.2024 18:40 21,8 °C 20,1 °C 49 % 45 % 1009,3 hPa 0,0 l/m² 4,4 km/h (1 Bft) SO 135 ° 1 min 174 W/m² 7,8 °C 20,1 °C 6,4 km/h (2 Bft)
27.04.2024 18:41 21,8 °C 20,1 °C 49 % 47 % 1009,3 hPa 0,0 l/m² 3,8 km/h (1 Bft) SO 132 ° 1 min 104 W/m² 8,4 °C 20,1 °C 6,4 km/h (2 Bft)
27.04.2024 18:42 21,8 °C 20,0 °C 49 % 49 % 1009,4 hPa 0,0 l/m² 5,2 km/h (1 Bft) O-SO 116 ° 1 min 111 W/m² 9,0 °C 20,0 °C 6,4 km/h (2 Bft)
27.04.2024 18:43 21,8 °C 19,9 °C 49 % 49 % 1009,3 hPa 0,0 l/m² 7,3 km/h (2 Bft) O-SO 115 ° 1 min 139 W/m² 8,9 °C 19,5 °C 11,3 km/h (2 Bft)
27.04.2024 18:45 21,7 °C 19,9 °C 49 % 48 % 1009,3 hPa 0,0 l/m² 5,3 km/h (1 Bft) SO 130 ° 2 min 172 W/m² 8,6 °C 19,9 °C 11,3 km/h (2 Bft)
27.04.2024 18:46 21,8 °C 19,8 °C 49 % 47 % 1009,3 hPa 0,0 l/m² 4,4 km/h (1 Bft) SO 137 ° 1 min 195 W/m² 8,2 °C 19,8 °C 6,4 km/h (2 Bft)
27.04.2024 18:47 21,7 °C 19,8 °C 49 % 47 % 1009,2 hPa 0,0 l/m² 4,8 km/h (1 Bft) O-SO 117 ° 1 min 193 W/m² 8,2 °C 19,8 °C 6,4 km/h (2 Bft)
27.04.2024 18:48 21,8 °C 19,8 °C 49 % 45 % 1009,2 hPa 0,0 l/m² 5,9 km/h (2 Bft) SO 134 ° 1 min 190 W/m² 7,5 °C 19,8 °C 9,7 km/h (2 Bft)
27.04.2024 18:49 21,7 °C 19,8 °C 49 % 46 % 1009,3 hPa 0,0 l/m² 5,1 km/h (1 Bft) SO 133 ° 1 min 186 W/m² 7,8 °C 19,8 °C 8,0 km/h (2 Bft)
27.04.2024 18:50 21,7 °C 19,8 °C 49 % 47 % 1009,3 hPa 0,0 l/m² 7,6 km/h (2 Bft) O-SO 118 ° 1 min 185 W/m² 8,2 °C 19,3 °C 9,7 km/h (2 Bft)
27.04.2024 18:51 21,8 °C 19,7 °C 49 % 47 % 1009,2 hPa 0,0 l/m² 8,7 km/h (2 Bft) SO 135 ° 1 min 181 W/m² 8,1 °C 18,8 °C 12,9 km/h (3 Bft)
27.04.2024 18:52 21,7 °C 19,7 °C 49 % 48 % 1009,2 hPa 0,0 l/m² 6,9 km/h (2 Bft) SO 135 ° 1 min 179 W/m² 8,4 °C 19,5 °C 14,5 km/h (3 Bft)
27.04.2024 18:53 21,7 °C 19,6 °C 49 % 46 % 1009,2 hPa 0,0 l/m² 9,0 km/h (2 Bft) S-SO 152 ° 1 min 169 W/m² 7,7 °C 18,6 °C 14,5 km/h (3 Bft)
27.04.2024 18:54 21,8 °C 19,6 °C 49 % 47 % 1009,3 hPa 0,0 l/m² 6,6 km/h (2 Bft) S-SO 149 ° 1 min 171 W/m² 8,0 °C 19,5 °C 8,0 km/h (2 Bft)
27.04.2024 18:55 21,7 °C 19,6 °C 49 % 48 % 1009,2 hPa 0,0 l/m² 6,0 km/h (2 Bft) SO 146 ° 1 min 167 W/m² 8,3 °C 19,6 °C 8,0 km/h (2 Bft)
27.04.2024 18:56 21,7 °C 19,6 °C 49 % 47 % 1009,2 hPa 0,0 l/m² 4,9 km/h (1 Bft) S-SO 148 ° 1 min 165 W/m² 8,0 °C 19,6 °C 8,0 km/h (2 Bft)
27.04.2024 18:57 21,7 °C 19,6 °C 49 % 47 % 1009,2 hPa 0,0 l/m² 4,3 km/h (1 Bft) S-SO 148 ° 1 min 162 W/m² 8,0 °C 19,6 °C 4,8 km/h (1 Bft)
27.04.2024 18:58 21,7 °C 19,6 °C 49 % 47 % 1009,2 hPa 0,0 l/m² 3,5 km/h (1 Bft) S-SO 148 ° 1 min 156 W/m² 8,0 °C 19,6 °C 4,8 km/h (1 Bft)
27.04.2024 18:59 21,7 °C 19,5 °C 49 % 48 % 1009,2 hPa 0,0 l/m² 3,2 km/h (1 Bft) S-SO 148 ° 1 min 153 W/m² 8,2 °C 19,5 °C 4,8 km/h (1 Bft)
27.04.2024 19:00 21,7 °C 19,5 °C 49 % 47 % 1009,1 hPa 0,0 l/m² 1,1 km/h (1 Bft) S-SO 148 ° 1 min 151 W/m² 7,9 °C 19,5 °C 3,2 km/h (1 Bft)
27.04.2024 19:01 21,7 °C 19,5 °C 49 % 46 % 1009,2 hPa 0,0 l/m² 1,5 km/h (1 Bft) SO 140 ° 1 min 146 W/m² 7,6 °C 19,5 °C 4,8 km/h (1 Bft)
27.04.2024 19:02 21,7 °C 19,5 °C 49 % 48 % 1009,2 hPa 0,0 l/m² 2,7 km/h (1 Bft) SO 140 ° 1 min 144 W/m² 8,2 °C 19,5 °C 4,8 km/h (1 Bft)
27.04.2024 19:03 21,7 °C 19,6 °C 49 % 49 % 1009,1 hPa 0,0 l/m² 2,3 km/h (1 Bft) SO 140 ° 1 min 142 W/m² 8,6 °C 19,6 °C 4,8 km/h (1 Bft)
27.04.2024 19:04 21,7 °C 19,5 °C 49 % 50 % 1009,2 hPa 0,0 l/m² 2,1 km/h (1 Bft) SO 140 ° 1 min 128 W/m² 8,8 °C 19,5 °C 3,2 km/h (1 Bft)
27.04.2024 19:05 21,7 °C 19,5 °C 49 % 49 % 1009,2 hPa 0,0 l/m² 0,1 km/h (0 Bft) SO 140 ° 1 min 127 W/m² 8,5 °C 19,5 °C 1,6 km/h (1 Bft)
27.04.2024 19:06 21,7 °C 19,5 °C 49 % 49 % 1009,1 hPa 0,0 l/m² 0,0 km/h (0 Bft) SO 140 ° 1 min 125 W/m² 8,5 °C 19,5 °C 0,0 km/h (0 Bft)
27.04.2024 19:07 21,7 °C 19,6 °C 49 % 46 % 1009,1 hPa 0,0 l/m² 0,0 km/h (0 Bft) SO 140 ° 1 min 113 W/m² 7,7 °C 19,6 °C 0,0 km/h (0 Bft)
27.04.2024 19:08 21,7 °C 19,7 °C 49 % 45 % 1009,1 hPa 0,0 l/m² 1,3 km/h (1 Bft) SO 140 ° 1 min 127 W/m² 7,4 °C 19,7 °C 4,8 km/h (1 Bft)
27.04.2024 19:09 21,7 °C 19,7 °C 49 % 46 % 1009,1 hPa 0,0 l/m² 1,9 km/h (1 Bft) SO 140 ° 1 min 123 W/m² 7,8 °C 19,7 °C 3,2 km/h (1 Bft)
27.04.2024 19:10 21,7 °C 19,7 °C 49 % 47 % 1009,1 hPa 0,0 l/m² 1,7 km/h (1 Bft) SO 140 ° 1 min 116 W/m² 8,1 °C 19,7 °C 3,2 km/h (1 Bft)
27.04.2024 19:11 21,7 °C 19,7 °C 49 % 47 % 1009,2 hPa 0,0 l/m² 0,7 km/h (0 Bft) SO 140 ° 1 min 109 W/m² 8,1 °C 19,7 °C 3,2 km/h (1 Bft)
27.04.2024 19:12 21,7 °C 19,6 °C 49 % 48 % 1009,1 hPa 0,0 l/m² 1,1 km/h (1 Bft) SO 140 ° 1 min 113 W/m² 8,3 °C 19,6 °C 1,6 km/h (1 Bft)
27.04.2024 19:13 21,7 °C 19,5 °C 49 % 49 % 1009,1 hPa 0,0 l/m² 0,9 km/h (0 Bft) SO 140 ° 1 min 109 W/m² 8,5 °C 19,5 °C 1,6 km/h (1 Bft)
27.04.2024 19:14 21,7 °C 19,5 °C 49 % 49 % 1009,1 hPa 0,0 l/m² 0,7 km/h (0 Bft) SO 140 ° 1 min 107 W/m² 8,5 °C 19,5 °C 1,6 km/h (1 Bft)
27.04.2024 19:15 21,7 °C 19,4 °C 49 % 49 % 1009,0 hPa 0,0 l/m² 0,0 km/h (0 Bft) SO 140 ° 1 min 105 W/m² 8,4 °C 19,4 °C 0,0 km/h (0 Bft)
27.04.2024 19:16 21,7 °C 19,3 °C 49 % 50 % 1009,1 hPa 0,0 l/m² 0,1 km/h (0 Bft) SO 140 ° 1 min 97 W/m² 8,6 °C 19,3 °C 1,6 km/h (1 Bft)
27.04.2024 19:17 21,7 °C 19,3 °C 49 % 49 % 1009,1 hPa 0,0 l/m² 0,0 km/h (0 Bft) SO 140 ° 1 min 86 W/m² 8,3 °C 19,3 °C 0,0 km/h (0 Bft)
27.04.2024 19:18 21,7 °C 19,3 °C 49 % 48 % 1009,1 hPa 0,0 l/m² 0,0 km/h (0 Bft) SO 140 ° 1 min 69 W/m² 8,0 °C 19,3 °C 0,0 km/h (0 Bft)
27.04.2024 19:19 21,7 °C 19,3 °C 49 % 48 % 1009,1 hPa 0,0 l/m² 0,5 km/h (0 Bft) SO 140 ° 1 min 76 W/m² 8,0 °C 19,3 °C 1,6 km/h (1 Bft)
27.04.2024 19:20 21,7 °C 19,4 °C 49 % 47 % 1009,2 hPa 0,0 l/m² 0,0 km/h (0 Bft) SO 140 ° 1 min 91 W/m² 7,8 °C 19,4 °C 0,0 km/h (0 Bft)
27.04.2024 19:21 21,7 °C 19,4 °C 49 % 45 % 1009,2 hPa 0,0 l/m² 0,0 km/h (0 Bft) SO 140 ° 1 min 90 W/m² 7,2 °C 19,4 °C 0,0 km/h (0 Bft)
27.04.2024 19:22 21,7 °C 19,5 °C 49 % 45 % 1009,1 hPa 0,0 l/m² 1,3 km/h (1 Bft) SO 140 ° 1 min 86 W/m² 7,2 °C 19,5 °C 3,2 km/h (1 Bft)
27.04.2024 19:23 21,7 °C 19,4 °C 49 % 48 % 1009,1 hPa 0,0 l/m² 2,7 km/h (1 Bft) SO 140 ° 1 min 84 W/m² 8,1 °C 19,4 °C 3,2 km/h (1 Bft)
27.04.2024 19:24 21,7 °C 19,3 °C 49 % 49 % 1009,1 hPa 0,0 l/m² 1,7 km/h (1 Bft) SO 140 ° 1 min 81 W/m² 8,3 °C 19,3 °C 3,2 km/h (1 Bft)
27.04.2024 19:25 21,7 °C 19,1 °C 49 % 51 % 1009,2 hPa 0,0 l/m² 2,5 km/h (1 Bft) SO 140 ° 1 min 79 W/m² 8,7 °C 19,1 °C 3,2 km/h (1 Bft)
27.04.2024 19:26 21,7 °C 19,1 °C 49 % 52 % 1009,1 hPa 0,0 l/m² 3,1 km/h (1 Bft) SO 140 ° 1 min 77 W/m² 9,0 °C 19,1 °C 4,8 km/h (1 Bft)
27.04.2024 19:27 21,7 °C 19,0 °C 49 % 52 % 1009,1 hPa 0,0 l/m² 4,6 km/h (1 Bft) O 99 ° 1 min 76 W/m² 8,9 °C 19,0 °C 6,4 km/h (2 Bft)
27.04.2024 19:28 21,7 °C 18,9 °C 49 % 53 % 1009,1 hPa 0,0 l/m² 5,1 km/h (1 Bft) O 97 ° 1 min 60 W/m² 9,1 °C 18,9 °C 6,4 km/h (2 Bft)
27.04.2024 19:29 21,7 °C 18,8 °C 49 % 51 % 1009,1 hPa 0,0 l/m² 4,8 km/h (1 Bft) O 92 ° 1 min 53 W/m² 8,4 °C 18,8 °C 6,4 km/h (2 Bft)
27.04.2024 19:30 21,7 °C 18,7 °C 49 % 50 % 1009,1 hPa 0,0 l/m² 5,0 km/h (1 Bft) O 90 ° 1 min 63 W/m² 8,1 °C 18,7 °C 6,4 km/h (2 Bft)
27.04.2024 19:31 21,7 °C 18,6 °C 49 % 50 % 1009,1 hPa 0,0 l/m² 4,4 km/h (1 Bft) O 90 ° 1 min 58 W/m² 8,0 °C 18,6 °C 6,4 km/h (2 Bft)
27.04.2024 19:32 21,7 °C 18,5 °C 49 % 51 % 1009,1 hPa 0,0 l/m² 5,1 km/h (1 Bft) O 90 ° 1 min 62 W/m² 8,2 °C 18,5 °C 6,4 km/h (2 Bft)
27.04.2024 19:33 21,7 °C 18,4 °C 49 % 51 % 1009,1 hPa 0,0 l/m² 4,5 km/h (1 Bft) O 84 ° 1 min 65 W/m² 8,1 °C 18,4 °C 6,4 km/h (2 Bft)
27.04.2024 19:34 21,7 °C 18,3 °C 49 % 51 % 1009,1 hPa 0,0 l/m² 4,4 km/h (1 Bft) O 84 ° 1 min 62 W/m² 8,0 °C 18,3 °C 6,4 km/h (2 Bft)
27.04.2024 19:35 21,7 °C 18,2 °C 49 % 51 % 1009,2 hPa 0,0 l/m² 4,5 km/h (1 Bft) O 84 ° 1 min 60 W/m² 7,9 °C 18,2 °C 6,4 km/h (2 Bft)
27.04.2024 19:36 21,7 °C 18,2 °C 49 % 51 % 1009,2 hPa 0,0 l/m² 4,3 km/h (1 Bft) O 91 ° 1 min 58 W/m² 7,9 °C 18,2 °C 6,4 km/h (2 Bft)
27.04.2024 19:37 21,7 °C 18,1 °C 49 % 52 % 1009,2 hPa 0,0 l/m² 4,2 km/h (1 Bft) O 91 ° 1 min 58 W/m² 8,1 °C 18,1 °C 4,8 km/h (1 Bft)
27.04.2024 19:38 21,7 °C 18,1 °C 49 % 53 % 1009,2 hPa 0,0 l/m² 4,1 km/h (1 Bft) O 91 ° 1 min 58 W/m² 8,4 °C 18,1 °C 4,8 km/h (1 Bft)
27.04.2024 19:39 21,7 °C 18,0 °C 49 % 52 % 1009,1 hPa 0,0 l/m² 3,6 km/h (1 Bft) O 91 ° 1 min 54 W/m² 8,0 °C 18,0 °C 4,8 km/h (1 Bft)
27.04.2024 19:40 21,7 °C 17,9 °C 49 % 53 % 1009,2 hPa 0,0 l/m² 3,6 km/h (1 Bft) O 91 ° 0 min 47 W/m² 8,2 °C 17,9 °C 4,8 km/h (1 Bft)
27.04.2024 19:41 21,7 °C 17,9 °C 49 % 53 % 1009,2 hPa 0,0 l/m² 4,2 km/h (1 Bft) O 91 ° 0 min 42 W/m² 8,2 °C 17,9 °C 4,8 km/h (1 Bft)
27.04.2024 19:42 21,7 °C 17,8 °C 49 % 53 % 1009,2 hPa 0,0 l/m² 4,0 km/h (1 Bft) O 91 ° 0 min 39 W/m² 8,1 °C 17,8 °C 4,8 km/h (1 Bft)
27.04.2024 19:43 21,7 °C 17,7 °C 49 % 53 % 1009,2 hPa 0,0 l/m² 3,8 km/h (1 Bft) O 91 ° 0 min 37 W/m² 8,0 °C 17,7 °C 4,8 km/h (1 Bft)
27.04.2024 19:44 21,7 °C 17,7 °C 49 % 54 % 1009,2 hPa 0,0 l/m² 3,9 km/h (1 Bft) O 90 ° 0 min 39 W/m² 8,3 °C 17,7 °C 4,8 km/h (1 Bft)
27.04.2024 19:45 21,7 °C 17,7 °C 49 % 55 % 1009,2 hPa 0,0 l/m² 4,2 km/h (1 Bft) O 89 ° 0 min 33 W/m² 8,5 °C 17,7 °C 4,8 km/h (1 Bft)
27.04.2024 19:46 21,7 °C 17,6 °C 49 % 56 % 1009,2 hPa 0,0 l/m² 5,5 km/h (2 Bft) O 96 ° 0 min 30 W/m² 8,7 °C 17,6 °C 9,7 km/h (2 Bft)
27.04.2024 19:47 21,7 °C 17,6 °C 49 % 53 % 1009,2 hPa 0,0 l/m² 4,4 km/h (1 Bft) O 94 ° 0 min 28 W/m² 7,9 °C 17,6 °C 4,8 km/h (1 Bft)
27.04.2024 19:49 21,7 °C 17,5 °C 49 % 55 % 1009,3 hPa 0,0 l/m² 4,6 km/h (1 Bft) O 86 ° 0 min 26 W/m² 8,4 °C 17,5 °C 6,4 km/h (2 Bft)
27.04.2024 19:50 21,7 °C 17,5 °C 49 % 55 % 1009,3 hPa 0,0 l/m² 3,2 km/h (1 Bft) O 86 ° 0 min 25 W/m² 8,4 °C 17,5 °C 6,4 km/h (2 Bft)
27.04.2024 19:51 21,7 °C 17,4 °C 49 % 54 % 1009,2 hPa 0,0 l/m² 3,5 km/h (1 Bft) O-NO 77 ° 0 min 23 W/m² 8,0 °C 17,4 °C 8,0 km/h (2 Bft)
27.04.2024 19:52 21,7 °C 17,5 °C 49 % 55 % 1009,3 hPa 0,0 l/m² 6,2 km/h (2 Bft) O-NO 72 ° 0 min 23 W/m² 8,4 °C 17,5 °C 8,0 km/h (2 Bft)
27.04.2024 19:53 21,7 °C 17,4 °C 49 % 56 % 1009,2 hPa 0,0 l/m² 6,2 km/h (2 Bft) O-NO 71 ° 0 min 23 W/m² 8,5 °C 17,4 °C 8,0 km/h (2 Bft)
27.04.2024 19:54 21,7 °C 17,3 °C 49 % 55 % 1009,3 hPa 0,0 l/m² 6,0 km/h (2 Bft) O-NO 71 ° 0 min 23 W/m² 8,2 °C 17,3 °C 8,0 km/h (2 Bft)
27.04.2024 19:55 21,7 °C 17,2 °C 49 % 54 % 1009,2 hPa 0,0 l/m² 5,5 km/h (2 Bft) O-NO 71 ° 0 min 21 W/m² 7,8 °C 17,2 °C 6,4 km/h (2 Bft)
27.04.2024 19:56 21,7 °C 17,1 °C 50 % 55 % 1009,3 hPa 0,0 l/m² 5,8 km/h (2 Bft) O-NO 71 ° 0 min 19 W/m² 8,0 °C 17,1 °C 6,4 km/h (2 Bft)
27.04.2024 19:57 21,7 °C 16,9 °C 50 % 55 % 1009,3 hPa 0,0 l/m² 5,7 km/h (2 Bft) O-NO 71 ° 0 min 18 W/m² 7,8 °C 16,9 °C 6,4 km/h (2 Bft)
27.04.2024 19:58 21,7 °C 16,9 °C 50 % 55 % 1009,3 hPa 0,0 l/m² 5,0 km/h (1 Bft) O-NO 71 ° 0 min 18 W/m² 7,8 °C 16,9 °C 6,4 km/h (2 Bft)
27.04.2024 19:59 21,7 °C 16,8 °C 50 % 55 % 1009,3 hPa 0,0 l/m² 4,6 km/h (1 Bft) O-NO 71 ° 0 min 16 W/m² 7,7 °C 16,8 °C 6,4 km/h (2 Bft)
27.04.2024 20:00 21,7 °C 16,8 °C 50 % 56 % 1009,3 hPa 0,0 l/m² 4,0 km/h (1 Bft) O-NO 71 ° 0 min 16 W/m² 8,0 °C 16,8 °C 4,8 km/h (1 Bft)
27.04.2024 20:01 21,7 °C 16,7 °C 50 % 55 % 1009,3 hPa 0,0 l/m² 3,9 km/h (1 Bft) O-NO 70 ° 0 min 16 W/m² 7,6 °C 16,7 °C 6,4 km/h (2 Bft)
27.04.2024 20:02 21,7 °C 16,6 °C 50 % 56 % 1009,3 hPa 0,0 l/m² 5,2 km/h (1 Bft) O-NO 71 ° 0 min 16 W/m² 7,8 °C 16,6 °C 6,4 km/h (2 Bft)
27.04.2024 20:03 21,7 °C 16,5 °C 50 % 57 % 1009,2 hPa 0,0 l/m² 4,7 km/h (1 Bft) O-NO 71 ° 0 min 14 W/m² 8,0 °C 16,5 °C 6,4 km/h (2 Bft)
27.04.2024 20:04 21,7 °C 16,4 °C 50 % 56 % 1009,3 hPa 0,0 l/m² 4,1 km/h (1 Bft) O-NO 69 ° 0 min 14 W/m² 7,6 °C 16,4 °C 6,4 km/h (2 Bft)
27.04.2024 20:05 21,7 °C 16,4 °C 50 % 56 % 1009,3 hPa 0,0 l/m² 4,8 km/h (1 Bft) O-NO 71 ° 0 min 14 W/m² 7,6 °C 16,4 °C 8,0 km/h (2 Bft)
27.04.2024 20:06 21,7 °C 16,3 °C 50 % 57 % 1009,2 hPa 0,0 l/m² 2,4 km/h (1 Bft) O-NO 71 ° 0 min 14 W/m² 7,8 °C 16,3 °C 4,8 km/h (1 Bft)
27.04.2024 20:07 21,7 °C 16,1 °C 50 % 58 % 1009,3 hPa 0,0 l/m² 3,8 km/h (1 Bft) O-NO 71 ° 0 min 14 W/m² 7,8 °C 16,1 °C 4,8 km/h (1 Bft)
27.04.2024 20:08 21,7 °C 16,0 °C 50 % 59 % 1009,3 hPa 0,0 l/m² 4,4 km/h (1 Bft) O-NO 71 ° 0 min 14 W/m² 8,0 °C 16,0 °C 6,4 km/h (2 Bft)
27.04.2024 20:09 21,7 °C 15,9 °C 50 % 59 % 1009,3 hPa 0,0 l/m² 3,5 km/h (1 Bft) O-NO 71 ° 0 min 12 W/m² 7,9 °C 15,9 °C 4,8 km/h (1 Bft)
27.04.2024 20:10 21,7 °C 15,9 °C 50 % 59 % 1009,3 hPa 0,0 l/m² 3,3 km/h (1 Bft) O-NO 71 ° 0 min 12 W/m² 7,9 °C 15,9 °C 4,8 km/h (1 Bft)
27.04.2024 20:11 21,7 °C 15,9 °C 50 % 59 % 1009,3 hPa 0,0 l/m² 4,0 km/h (1 Bft) O-NO 71 ° 0 min 12 W/m² 7,9 °C 15,9 °C 6,4 km/h (2 Bft)
27.04.2024 20:12 21,7 °C 15,9 °C 50 % 58 % 1009,2 hPa 0,0 l/m² 2,3 km/h (1 Bft) O-NO 71 ° 0 min 12 W/m² 7,6 °C 15,9 °C 4,8 km/h (1 Bft)
27.04.2024 20:13 21,7 °C 15,9 °C 50 % 59 % 1009,3 hPa 0,0 l/m² 2,7 km/h (1 Bft) O-NO 71 ° 0 min 12 W/m² 7,9 °C 15,9 °C 4,8 km/h (1 Bft)
27.04.2024 20:14 21,7 °C 15,8 °C 50 % 60 % 1009,3 hPa 0,0 l/m² 2,2 km/h (1 Bft) O-NO 71 ° 0 min 11 W/m² 8,1 °C 15,8 °C 4,8 km/h (1 Bft)
27.04.2024 20:15 21,7 °C 15,6 °C 50 % 60 % 1009,3 hPa 0,0 l/m² 2,3 km/h (1 Bft) O-NO 71 ° 0 min 9 W/m² 7,9 °C 15,6 °C 3,2 km/h (1 Bft)
27.04.2024 20:16 21,7 °C 15,6 °C 50 % 61 % 1009,2 hPa 0,0 l/m² 2,3 km/h (1 Bft) O-NO 71 ° 0 min 11 W/m² 8,1 °C 15,6 °C 3,2 km/h (1 Bft)
27.04.2024 20:17 21,7 °C 15,6 °C 50 % 60 % 1009,3 hPa 0,0 l/m² 3,1 km/h (1 Bft) O-NO 71 ° 0 min 11 W/m² 7,9 °C 15,6 °C 4,8 km/h (1 Bft)
27.04.2024 20:18 21,7 °C 15,6 °C 50 % 60 % 1009,3 hPa 0,0 l/m² 2,7 km/h (1 Bft) O-NO 71 ° 0 min 9 W/m² 7,9 °C 15,6 °C 4,8 km/h (1 Bft)
27.04.2024 20:19 21,7 °C 15,7 °C 50 % 60 % 1009,3 hPa 0,0 l/m² 3,6 km/h (1 Bft) O-NO 71 ° 0 min 9 W/m² 8,0 °C 15,7 °C 4,8 km/h (1 Bft)
27.04.2024 20:20 21,7 °C 15,8 °C 50 % 60 % 1009,3 hPa 0,0 l/m² 3,2 km/h (1 Bft) O-NO 71 ° 0 min 9 W/m² 8,1 °C 15,8 °C 4,8 km/h (1 Bft)
27.04.2024 20:21 21,7 °C 15,8 °C 50 % 59 % 1009,4 hPa 0,0 l/m² 3,8 km/h (1 Bft) O-NO 71 ° 0 min 7 W/m² 7,8 °C 15,8 °C 6,4 km/h (2 Bft)
27.04.2024 20:22 21,7 °C 15,8 °C 50 % 59 % 1009,4 hPa 0,0 l/m² 4,6 km/h (1 Bft) O-NO 62 ° 0 min 7 W/m² 7,8 °C 15,8 °C 8,0 km/h (2 Bft)
27.04.2024 20:23 21,7 °C 15,9 °C 50 % 59 % 1009,3 hPa 0,0 l/m² 3,1 km/h (1 Bft) O-NO 62 ° 0 min 7 W/m² 7,9 °C 15,9 °C 4,8 km/h (1 Bft)
27.04.2024 20:24 21,8 °C 15,9 °C 50 % 59 % 1009,4 hPa 0,0 l/m² 3,2 km/h (1 Bft) O-NO 62 ° 0 min 7 W/m² 7,9 °C 15,9 °C 4,8 km/h (1 Bft)
27.04.2024 20:25 21,7 °C 15,9 °C 51 % 59 % 1009,3 hPa 0,0 l/m² 3,4 km/h (1 Bft) O-NO 62 ° 0 min 7 W/m² 7,9 °C 15,9 °C 4,8 km/h (1 Bft)
27.04.2024 20:26 21,8 °C 15,9 °C 50 % 59 % 1009,3 hPa 0,0 l/m² 5,0 km/h (1 Bft) O-NO 61 ° 0 min 5 W/m² 7,9 °C 15,9 °C 6,4 km/h (2 Bft)
27.04.2024 20:27 21,8 °C 15,8 °C 51 % 60 % 1009,3 hPa 0,0 l/m² 4,9 km/h (1 Bft) O-NO 61 ° 0 min 5 W/m² 8,1 °C 15,8 °C 6,4 km/h (2 Bft)
27.04.2024 20:28 21,8 °C 15,6 °C 51 % 60 % 1009,4 hPa 0,0 l/m² 5,5 km/h (2 Bft) O-NO 61 ° 0 min 5 W/m² 7,9 °C 15,6 °C 6,4 km/h (2 Bft)
27.04.2024 20:29 21,8 °C 15,5 °C 51 % 60 % 1009,4 hPa 0,0 l/m² 6,3 km/h (2 Bft) O-NO 61 ° 0 min 5 W/m² 7,8 °C 15,5 °C 8,0 km/h (2 Bft)
27.04.2024 20:30 21,8 °C 15,4 °C 51 % 61 % 1009,4 hPa 0,0 l/m² 5,4 km/h (2 Bft) O-NO 60 ° 0 min 0 W/m² 7,9 °C 15,4 °C 6,4 km/h (2 Bft)
27.04.2024 20:31 21,8 °C 15,4 °C 51 % 60 % 1009,4 hPa 0,0 l/m² 4,8 km/h (1 Bft) O-NO 59 ° 0 min 0 W/m² 7,7 °C 15,4 °C 6,4 km/h (2 Bft)
27.04.2024 20:32 21,8 °C 15,5 °C 51 % 60 % 1009,4 hPa 0,0 l/m² 3,2 km/h (1 Bft) O-NO 59 ° 0 min 0 W/m² 7,8 °C 15,5 °C 4,8 km/h (1 Bft)
27.04.2024 20:33 21,8 °C 15,4 °C 51 % 61 % 1009,4 hPa 0,0 l/m² 4,8 km/h (1 Bft) O-NO 59 ° 0 min 0 W/m² 7,9 °C 15,4 °C 6,4 km/h (2 Bft)
27.04.2024 20:34 21,8 °C 15,5 °C 51 % 60 % 1009,4 hPa 0,0 l/m² 3,2 km/h (1 Bft) O-NO 59 ° 0 min 0 W/m² 7,8 °C 15,5 °C 4,8 km/h (1 Bft)
27.04.2024 20:35 21,8 °C 15,5 °C 51 % 60 % 1009,3 hPa 0,0 l/m² 4,4 km/h (1 Bft) O-NO 59 ° 0 min 0 W/m² 7,8 °C 15,5 °C 6,4 km/h (2 Bft)
27.04.2024 20:36 21,8 °C 15,5 °C 51 % 61 % 1009,4 hPa 0,0 l/m² 5,7 km/h (2 Bft) O-NO 59 ° 0 min 0 W/m² 8,0 °C 15,5 °C 6,4 km/h (2 Bft)
27.04.2024 20:37 21,8 °C 15,4 °C 51 % 61 % 1009,4 hPa 0,0 l/m² 4,6 km/h (1 Bft) O-NO 59 ° 0 min 0 W/m² 7,9 °C 15,4 °C 6,4 km/h (2 Bft)
27.04.2024 20:38 21,8 °C 15,3 °C 51 % 62 % 1009,4 hPa 0,0 l/m² 3,8 km/h (1 Bft) O-NO 59 ° 0 min 0 W/m² 8,1 °C 15,3 °C 4,8 km/h (1 Bft)
27.04.2024 20:39 21,8 °C 15,2 °C 51 % 62 % 1009,4 hPa 0,0 l/m² 3,3 km/h (1 Bft) O-NO 59 ° 0 min 0 W/m² 8,0 °C 15,2 °C 4,8 km/h (1 Bft)
27.04.2024 20:40 21,8 °C 15,1 °C 51 % 62 % 1009,4 hPa 0,0 l/m² 3,6 km/h (1 Bft) O-NO 59 ° 0 min 0 W/m² 7,9 °C 15,1 °C 4,8 km/h (1 Bft)
27.04.2024 20:41 21,8 °C 15,1 °C 51 % 62 % 1009,4 hPa 0,0 l/m² 2,7 km/h (1 Bft) O-NO 59 ° 0 min 0 W/m² 7,9 °C 15,1 °C 4,8 km/h (1 Bft)
27.04.2024 20:42 21,8 °C 15,0 °C 51 % 63 % 1009,4 hPa 0,0 l/m² 3,0 km/h (1 Bft) O-NO 59 ° 0 min 0 W/m² 8,0 °C 15,0 °C 4,8 km/h (1 Bft)
27.04.2024 20:43 21,9 °C 14,9 °C 51 % 63 % 1009,5 hPa 0,0 l/m² 3,8 km/h (1 Bft) O-NO 59 ° 0 min 0 W/m² 7,9 °C 14,9 °C 4,8 km/h (1 Bft)
27.04.2024 20:44 21,8 °C 14,9 °C 51 % 63 % 1009,4 hPa 0,0 l/m² 3,8 km/h (1 Bft) O-NO 59 ° 0 min 0 W/m² 7,9 °C 14,9 °C 4,8 km/h (1 Bft)
27.04.2024 20:45 21,8 °C 14,8 °C 51 % 64 % 1009,5 hPa 0,0 l/m² 4,0 km/h (1 Bft) O-NO 59 ° 0 min 0 W/m² 8,1 °C 14,8 °C 6,4 km/h (2 Bft)
27.04.2024 20:46 21,9 °C 14,7 °C 51 % 64 % 1009,5 hPa 0,0 l/m² 3,7 km/h (1 Bft) O-NO 59 ° 0 min 0 W/m² 8,0 °C 14,7 °C 4,8 km/h (1 Bft)
27.04.2024 20:47 21,8 °C 14,6 °C 51 % 65 % 1009,4 hPa 0,0 l/m² 4,1 km/h (1 Bft) O-NO 59 ° 0 min 0 W/m² 8,1 °C 14,6 °C 6,4 km/h (2 Bft)
27.04.2024 20:48 21,9 °C 14,4 °C 51 % 65 % 1009,5 hPa 0,0 l/m² 3,9 km/h (1 Bft) O-NO 59 ° 0 min 0 W/m² 7,9 °C 14,4 °C 4,8 km/h (1 Bft)
27.04.2024 20:49 21,9 °C 14,4 °C 51 % 65 % 1009,5 hPa 0,0 l/m² 2,7 km/h (1 Bft) O-NO 59 ° 0 min 0 W/m² 7,9 °C 14,4 °C 3,2 km/h (1 Bft)
27.04.2024 20:50 21,9 °C 14,4 °C 51 % 65 % 1009,6 hPa 0,0 l/m² 3,0 km/h (1 Bft) O-NO 59 ° 0 min 0 W/m² 7,9 °C 14,4 °C 4,8 km/h (1 Bft)
27.04.2024 20:51 21,9 °C 14,4 °C 51 % 65 % 1009,5 hPa 0,0 l/m² 3,0 km/h (1 Bft) O-NO 59 ° 0 min 0 W/m² 7,9 °C 14,4 °C 4,8 km/h (1 Bft)
27.04.2024 20:52 21,9 °C 14,4 °C 51 % 65 % 1009,5 hPa 0,0 l/m² 3,1 km/h (1 Bft) O-NO 59 ° 0 min 0 W/m² 7,9 °C 14,4 °C 4,8 km/h (1 Bft)
27.04.2024 20:53 21,9 °C 14,4 °C 51 % 65 % 1009,5 hPa 0,0 l/m² 3,8 km/h (1 Bft) O-NO 59 ° 0 min 0 W/m² 7,9 °C 14,4 °C 4,8 km/h (1 Bft)
27.04.2024 20:54 21,9 °C 14,4 °C 51 % 65 % 1009,6 hPa 0,0 l/m² 1,5 km/h (1 Bft) O-NO 59 ° 0 min 0 W/m² 7,9 °C 14,4 °C 3,2 km/h (1 Bft)
27.04.2024 20:55 21,9 °C 14,3 °C 51 % 65 % 1009,5 hPa 0,0 l/m² 1,2 km/h (1 Bft) O-NO 59 ° 0 min 0 W/m² 7,8 °C 14,3 °C 3,2 km/h (1 Bft)
27.04.2024 20:56 21,9 °C 14,2 °C 51 % 66 % 1009,5 hPa 0,0 l/m² 1,7 km/h (1 Bft) O-NO 59 ° 0 min 0 W/m² 7,9 °C 14,2 °C 3,2 km/h (1 Bft)
27.04.2024 20:57 21,9 °C 14,1 °C 51 % 66 % 1009,6 hPa 0,0 l/m² 1,5 km/h (1 Bft) O-NO 59 ° 0 min 0 W/m² 7,8 °C 14,1 °C 3,2 km/h (1 Bft)
27.04.2024 20:58 21,9 °C 14,1 °C 51 % 66 % 1009,6 hPa 0,0 l/m² 2,4 km/h (1 Bft) O-NO 59 ° 0 min 0 W/m² 7,8 °C 14,1 °C 4,8 km/h (1 Bft)
27.04.2024 20:59 21,9 °C 13,9 °C 51 % 67 % 1009,6 hPa 0,0 l/m² 2,7 km/h (1 Bft) O-NO 59 ° 0 min 0 W/m² 7,9 °C 13,9 °C 3,2 km/h (1 Bft)
27.04.2024 21:00 21,9 °C 13,8 °C 51 % 67 % 1009,6 hPa 0,0 l/m² 3,0 km/h (1 Bft) O-NO 59 ° 0 min 0 W/m² 7,8 °C 13,8 °C 4,8 km/h (1 Bft)
27.04.2024 21:01 21,9 °C 13,7 °C 51 % 67 % 1009,7 hPa 0,0 l/m² 1,8 km/h (1 Bft) O-NO 59 ° 0 min 0 W/m² 7,7 °C 13,7 °C 3,2 km/h (1 Bft)
27.04.2024 21:02 21,9 °C 13,5 °C 51 % 68 % 1009,7 hPa 0,0 l/m² 1,8 km/h (1 Bft) O-NO 59 ° 0 min 0 W/m² 7,7 °C 13,5 °C 3,2 km/h (1 Bft)
27.04.2024 21:03 21,9 °C 13,3 °C 51 % 68 % 1009,7 hPa 0,0 l/m² 2,5 km/h (1 Bft) O-NO 59 ° 0 min 0 W/m² 7,5 °C 13,3 °C 3,2 km/h (1 Bft)
27.04.2024 21:04 21,9 °C 13,1 °C 51 % 69 % 1009,7 hPa 0,0 l/m² 2,3 km/h (1 Bft) O-NO 59 ° 0 min 0 W/m² 7,5 °C 13,1 °C 3,2 km/h (1 Bft)
27.04.2024 21:05 21,9 °C 12,8 °C 51 % 70 % 1009,7 hPa 0,0 l/m² 2,1 km/h (1 Bft) O-NO 59 ° 0 min 0 W/m² 7,5 °C 12,8 °C 3,2 km/h (1 Bft)
27.04.2024 21:06 21,9 °C 12,7 °C 51 % 70 % 1009,7 hPa 0,0 l/m² 1,3 km/h (1 Bft) O-NO 59 ° 0 min 0 W/m² 7,4 °C 12,7 °C 3,2 km/h (1 Bft)
27.04.2024 21:07 22,0 °C 12,5 °C 51 % 71 % 1009,7 hPa 0,0 l/m² 0,5 km/h (0 Bft) O-NO 59 ° 0 min 0 W/m² 7,4 °C 12,5 °C 1,6 km/h (1 Bft)
27.04.2024 21:08 21,9 °C 12,2 °C 51 % 71 % 1009,8 hPa 0,0 l/m² 1,9 km/h (1 Bft) O-NO 59 ° 0 min 0 W/m² 7,1 °C 12,2 °C 3,2 km/h (1 Bft)
27.04.2024 21:09 21,9 °C 11,9 °C 51 % 72 % 1009,7 hPa 0,0 l/m² 3,3 km/h (1 Bft) O-NO 59 ° 0 min 0 W/m² 7,0 °C 11,9 °C 4,8 km/h (1 Bft)
27.04.2024 21:10 22,0 °C 11,8 °C 51 % 73 % 1009,7 hPa 0,0 l/m² 2,5 km/h (1 Bft) O-NO 59 ° 0 min 0 W/m² 7,1 °C 11,8 °C 3,2 km/h (1 Bft)
27.04.2024 21:11 21,9 °C 11,7 °C 51 % 74 % 1009,7 hPa 0,0 l/m² 1,7 km/h (1 Bft) O-NO 59 ° 0 min 0 W/m² 7,2 °C 11,7 °C 3,2 km/h (1 Bft)
27.04.2024 21:12 21,9 °C 11,6 °C 51 % 75 % 1009,7 hPa 0,0 l/m² 0,9 km/h (0 Bft) O-NO 59 ° 0 min 0 W/m² 7,3 °C 11,6 °C 3,2 km/h (1 Bft)
27.04.2024 21:13 21,9 °C 11,7 °C 51 % 75 % 1009,6 hPa 0,0 l/m² 0,0 km/h (0 Bft) O-NO 59 ° 0 min 0 W/m² 7,4 °C 11,7 °C 0,0 km/h (0 Bft)
27.04.2024 21:14 22,0 °C 11,7 °C 51 % 75 % 1009,7 hPa 0,0 l/m² 0,3 km/h (0 Bft) O-NO 59 ° 0 min 0 W/m² 7,4 °C 11,7 °C 1,6 km/h (1 Bft)
27.04.2024 21:15 21,9 °C 11,7 °C 51 % 75 % 1009,7 hPa 0,0 l/m² 1,0 km/h (0 Bft) O-NO 59 ° 0 min 0 W/m² 7,4 °C 11,7 °C 3,2 km/h (1 Bft)
27.04.2024 21:16 22,0 °C 11,8 °C 51 % 75 % 1009,7 hPa 0,0 l/m² 1,2 km/h (1 Bft) O-NO 59 ° 0 min 0 W/m² 7,5 °C 11,8 °C 3,2 km/h (1 Bft)
27.04.2024 21:17 22,0 °C 11,9 °C 51 % 74 % 1009,6 hPa 0,0 l/m² 0,8 km/h (0 Bft) O-NO 59 ° 0 min 0 W/m² 7,4 °C 11,9 °C 1,6 km/h (1 Bft)
27.04.2024 21:18 22,0 °C 11,9 °C 51 % 74 % 1009,7 hPa 0,0 l/m² 1,8 km/h (1 Bft) O-NO 59 ° 0 min 0 W/m² 7,4 °C 11,9 °C 3,2 km/h (1 Bft)
27.04.2024 21:19 22,0 °C 11,9 °C 51 % 74 % 1009,7 hPa 0,0 l/m² 1,9 km/h (1 Bft) O-NO 59 ° 0 min 0 W/m² 7,4 °C 11,9 °C 3,2 km/h (1 Bft)
27.04.2024 21:20 22,0 °C 11,7 °C 51 % 74 % 1009,6 hPa 0,0 l/m² 0,9 km/h (0 Bft) O-NO 59 ° 0 min 0 W/m² 7,2 °C 11,7 °C 1,6 km/h (1 Bft)
27.04.2024 21:21 22,0 °C 11,3 °C 51 % 74 % 1009,8 hPa 0,0 l/m² 0,6 km/h (0 Bft) O-NO 59 ° 0 min 0 W/m² 6,8 °C 11,3 °C 1,6 km/h (1 Bft)
27.04.2024 21:22 22,0 °C 10,9 °C 51 % 75 % 1009,7 hPa 0,0 l/m² 0,0 km/h (0 Bft) O-NO 59 ° 0 min 0 W/m² 6,6 °C 10,9 °C 0,0 km/h (0 Bft)
27.04.2024 21:23 22,0 °C 10,6 °C 51 % 76 % 1009,8 hPa 0,0 l/m² 1,5 km/h (1 Bft) O-NO 59 ° 0 min 0 W/m² 6,5 °C 10,6 °C 3,2 km/h (1 Bft)
27.04.2024 21:24 22,0 °C 10,2 °C 51 % 78 % 1009,8 hPa 0,0 l/m² 3,3 km/h (1 Bft) O-NO 59 ° 0 min 0 W/m² 6,5 °C 10,2 °C 4,8 km/h (1 Bft)
27.04.2024 21:25 22,0 °C 10,0 °C 51 % 78 % 1009,8 hPa 0,0 l/m² 3,1 km/h (1 Bft) O-NO 59 ° 0 min 0 W/m² 6,3 °C 10,0 °C 4,8 km/h (1 Bft)
27.04.2024 21:26 22,0 °C 9,9 °C 51 % 80 % 1009,7 hPa 0,0 l/m² 2,2 km/h (1 Bft) O-NO 59 ° 0 min 0 W/m² 6,6 °C 9,9 °C 3,2 km/h (1 Bft)
27.04.2024 21:27 22,0 °C 9,8 °C 51 % 80 % 1009,8 hPa 0,0 l/m² 3,2 km/h (1 Bft) O-NO 59 ° 0 min 0 W/m² 6,5 °C 9,8 °C 4,8 km/h (1 Bft)
27.04.2024 21:28 22,0 °C 9,8 °C 51 % 80 % 1009,8 hPa 0,0 l/m² 4,2 km/h (1 Bft) O-NO 59 ° 0 min 0 W/m² 6,5 °C 9,8 °C 6,4 km/h (2 Bft)
27.04.2024 21:29 22,0 °C 9,8 °C 51 % 81 % 1009,8 hPa 0,0 l/m² 4,6 km/h (1 Bft) O-NO 59 ° 0 min 0 W/m² 6,7 °C 9,8 °C 6,4 km/h (2 Bft)
27.04.2024 21:30 22,0 °C 9,7 °C 51 % 81 % 1009,8 hPa 0,0 l/m² 4,1 km/h (1 Bft) O-NO 59 ° 0 min 0 W/m² 6,6 °C 9,7 °C 6,4 km/h (2 Bft)
27.04.2024 21:31 22,0 °C 9,8 °C 51 % 81 % 1009,8 hPa 0,0 l/m² 3,8 km/h (1 Bft) O-NO 59 ° 0 min 0 W/m² 6,7 °C 9,8 °C 4,8 km/h (1 Bft)
27.04.2024 21:32 22,1 °C 9,9 °C 51 % 81 % 1009,9 hPa 0,0 l/m² 4,0 km/h (1 Bft) O-NO 59 ° 0 min 0 W/m² 6,8 °C 9,9 °C 6,4 km/h (2 Bft)
27.04.2024 21:33 22,1 °C 9,9 °C 51 % 81 % 1009,8 hPa 0,0 l/m² 3,6 km/h (1 Bft) O-NO 59 ° 0 min 0 W/m² 6,8 °C 9,9 °C 4,8 km/h (1 Bft)
27.04.2024 21:34 22,1 °C 9,9 °C 51 % 81 % 1009,8 hPa 0,0 l/m² 2,9 km/h (1 Bft) O-NO 59 ° 0 min 0 W/m² 6,8 °C 9,9 °C 4,8 km/h (1 Bft)
27.04.2024 21:35 22,1 °C 10,1 °C 51 % 80 % 1009,9 hPa 0,0 l/m² 2,5 km/h (1 Bft) O-NO 59 ° 0 min 0 W/m² 6,8 °C 10,1 °C 3,2 km/h (1 Bft)
27.04.2024 21:36 22,1 °C 9,9 °C 51 % 80 % 1009,9 hPa 0,0 l/m² 2,0 km/h (1 Bft) O-NO 59 ° 0 min 0 W/m² 6,6 °C 9,9 °C 3,2 km/h (1 Bft)
27.04.2024 21:37 22,1 °C 9,8 °C 51 % 80 % 1009,9 hPa 0,0 l/m² 2,9 km/h (1 Bft) O-NO 59 ° 0 min 0 W/m² 6,5 °C 9,8 °C 4,8 km/h (1 Bft)
27.04.2024 21:38 22,1 °C 9,6 °C 51 % 80 % 1009,9 hPa 0,0 l/m² 2,3 km/h (1 Bft) O-NO 59 ° 0 min 0 W/m² 6,3 °C 9,6 °C 3,2 km/h (1 Bft)
27.04.2024 21:39 22,0 °C 9,5 °C 51 % 80 % 1009,8 hPa 0,0 l/m² 1,6 km/h (1 Bft) O-NO 59 ° 0 min 0 W/m² 6,2 °C 9,5 °C 3,2 km/h (1 Bft)
27.04.2024 21:40 22,1 °C 9,3 °C 51 % 81 % 1009,9 hPa 0,0 l/m² 1,6 km/h (1 Bft) O-NO 59 ° 0 min 0 W/m² 6,2 °C 9,3 °C 3,2 km/h (1 Bft)
27.04.2024 21:42 22,1 °C 9,2 °C 51 % 82 % 1009,8 hPa 0,0 l/m² 0,9 km/h (0 Bft) O-NO 59 ° 0 min 0 W/m² 6,3 °C 9,2 °C 3,2 km/h (1 Bft)
27.04.2024 21:43 22,1 °C 9,1 °C 51 % 83 % 1009,8 hPa 0,0 l/m² 0,8 km/h (0 Bft) O-NO 59 ° 0 min 0 W/m² 6,4 °C 9,1 °C 1,6 km/h (1 Bft)
27.04.2024 21:45 22,1 °C 9,0 °C 51 % 83 % 1009,9 hPa 0,0 l/m² 0,0 km/h (0 Bft) O-NO 59 ° 0 min 0 W/m² 6,3 °C 9,0 °C 0,0 km/h (0 Bft)
27.04.2024 21:46 22,1 °C 8,9 °C 51 % 84 % 1009,9 hPa 0,0 l/m² 0,0 km/h (0 Bft) O-NO 59 ° 0 min 0 W/m² 6,3 °C 8,9 °C 0,0 km/h (0 Bft)
27.04.2024 21:47 22,0 °C 8,9 °C 51 % 84 % 1009,9 hPa 0,0 l/m² 0,0 km/h (0 Bft) O-NO 59 ° 0 min 0 W/m² 6,3 °C 8,9 °C 0,0 km/h (0 Bft)
27.04.2024 21:48 22,1 °C 8,9 °C 51 % 84 % 1009,9 hPa 0,0 l/m² 0,0 km/h (0 Bft) O-NO 59 ° 0 min 0 W/m² 6,3 °C 8,9 °C 0,0 km/h (0 Bft)
27.04.2024 21:49 22,1 °C 8,8 °C 51 % 84 % 1009,9 hPa 0,0 l/m² 0,8 km/h (0 Bft) O-NO 59 ° 0 min 0 W/m² 6,2 °C 8,8 °C 3,2 km/h (1 Bft)
27.04.2024 21:50 22,0 °C 8,8 °C 51 % 84 % 1009,9 hPa 0,0 l/m² 2,0 km/h (1 Bft) O-NO 59 ° 0 min 0 W/m² 6,2 °C 8,8 °C 3,2 km/h (1 Bft)
27.04.2024 21:51 22,1 °C 8,8 °C 51 % 84 % 1010,0 hPa 0,0 l/m² 2,3 km/h (1 Bft) O-NO 59 ° 0 min 0 W/m² 6,2 °C 8,8 °C 3,2 km/h (1 Bft)
27.04.2024 21:52 22,1 °C 8,7 °C 51 % 85 % 1009,9 hPa 0,0 l/m² 2,9 km/h (1 Bft) O-NO 59 ° 0 min 0 W/m² 6,3 °C 8,7 °C 4,8 km/h (1 Bft)
27.04.2024 21:53 22,1 °C 8,7 °C 51 % 85 % 1010,0 hPa 0,0 l/m² 3,6 km/h (1 Bft) O-NO 59 ° 0 min 0 W/m² 6,3 °C 8,7 °C 4,8 km/h (1 Bft)
27.04.2024 21:54 22,1 °C 8,7 °C 51 % 85 % 1010,0 hPa 0,0 l/m² 2,5 km/h (1 Bft) O-NO 59 ° 0 min 0 W/m² 6,3 °C 8,7 °C 3,2 km/h (1 Bft)
27.04.2024 21:55 22,1 °C 8,6 °C 51 % 85 % 1010,0 hPa 0,0 l/m² 3,1 km/h (1 Bft) O-NO 59 ° 0 min 0 W/m² 6,2 °C 8,6 °C 4,8 km/h (1 Bft)
27.04.2024 21:56 22,1 °C 8,6 °C 51 % 85 % 1010,0 hPa 0,0 l/m² 3,1 km/h (1 Bft) O-NO 59 ° 0 min 0 W/m² 6,2 °C 8,6 °C 4,8 km/h (1 Bft)
27.04.2024 21:57 22,1 °C 8,4 °C 51 % 84 % 1010,0 hPa 0,0 l/m² 2,7 km/h (1 Bft) O-NO 59 ° 0 min 0 W/m² 5,9 °C 8,4 °C 3,2 km/h (1 Bft)
27.04.2024 21:58 22,1 °C 8,3 °C 51 % 85 % 1010,0 hPa 0,0 l/m² 2,9 km/h (1 Bft) O-NO 59 ° 0 min 0 W/m² 5,9 °C 8,3 °C 3,2 km/h (1 Bft)
27.04.2024 21:59 22,1 °C 8,2 °C 51 % 85 % 1010,0 hPa 0,0 l/m² 1,7 km/h (1 Bft) O-NO 59 ° 0 min 0 W/m² 5,8 °C 8,2 °C 3,2 km/h (1 Bft)
27.04.2024 22:00 22,1 °C 8,1 °C 51 % 85 % 1010,1 hPa 0,0 l/m² 2,8 km/h (1 Bft) O-NO 59 ° 0 min 0 W/m² 5,7 °C 8,1 °C 4,8 km/h (1 Bft)
27.04.2024 22:01 22,0 °C 8,1 °C 51 % 85 % 1010,0 hPa 0,0 l/m² 2,5 km/h (1 Bft) O-NO 59 ° 0 min 0 W/m² 5,7 °C 8,1 °C 3,2 km/h (1 Bft)
27.04.2024 22:02 22,0 °C 8,0 °C 51 % 86 % 1010,0 hPa 0,0 l/m² 2,1 km/h (1 Bft) O-NO 59 ° 0 min 0 W/m² 5,8 °C 8,0 °C 3,2 km/h (1 Bft)
27.04.2024 22:03 22,0 °C 7,9 °C 51 % 86 % 1009,9 hPa 0,0 l/m² 2,2 km/h (1 Bft) O-NO 59 ° 0 min 0 W/m² 5,7 °C 7,9 °C 3,2 km/h (1 Bft)
27.04.2024 22:04 22,0 °C 7,9 °C 51 % 86 % 1009,9 hPa 0,0 l/m² 1,3 km/h (1 Bft) O-NO 59 ° 0 min 0 W/m² 5,7 °C 7,9 °C 1,6 km/h (1 Bft)
27.04.2024 22:05 22,0 °C 7,9 °C 51 % 87 % 1009,9 hPa 0,0 l/m² 1,8 km/h (1 Bft) O-NO 59 ° 0 min 0 W/m² 5,9 °C 7,9 °C 3,2 km/h (1 Bft)
27.04.2024 22:06 22,0 °C 7,9 °C 51 % 87 % 1010,0 hPa 0,0 l/m² 0,0 km/h (0 Bft) O-NO 59 ° 0 min 0 W/m² 5,9 °C 7,9 °C 0,0 km/h (0 Bft)
27.04.2024 22:07 22,0 °C 7,9 °C 51 % 87 % 1010,0 hPa 0,0 l/m² 0,3 km/h (0 Bft) O-NO 59 ° 0 min 0 W/m² 5,9 °C 7,9 °C 1,6 km/h (1 Bft)
27.04.2024 22:08 22,0 °C 7,9 °C 51 % 87 % 1010,0 hPa 0,0 l/m² 2,4 km/h (1 Bft) O-NO 59 ° 0 min 0 W/m² 5,9 °C 7,9 °C 3,2 km/h (1 Bft)
27.04.2024 22:09 22,0 °C 7,9 °C 51 % 87 % 1010,0 hPa 0,0 l/m² 3,4 km/h (1 Bft) O-NO 59 ° 0 min 0 W/m² 5,9 °C 7,9 °C 4,8 km/h (1 Bft)
27.04.2024 22:10 21,9 °C 7,9 °C 51 % 87 % 1010,0 hPa 0,0 l/m² 2,9 km/h (1 Bft) O-NO 59 ° 0 min 0 W/m² 5,9 °C 7,9 °C 3,2 km/h (1 Bft)
27.04.2024 22:11 21,9 °C 7,9 °C 51 % 87 % 1010,0 hPa 0,0 l/m² 3,6 km/h (1 Bft) O-NO 59 ° 0 min 0 W/m² 5,9 °C 7,9 °C 4,8 km/h (1 Bft)
27.04.2024 22:12 21,9 °C 8,0 °C 51 % 87 % 1010,0 hPa 0,0 l/m² 3,9 km/h (1 Bft) O-NO 59 ° 0 min 0 W/m² 6,0 °C 8,0 °C 4,8 km/h (1 Bft)
27.04.2024 22:13 21,9 °C 7,9 °C 51 % 87 % 1010,0 hPa 0,0 l/m² 3,2 km/h (1 Bft) O-NO 59 ° 0 min 0 W/m² 5,9 °C 7,9 °C 4,8 km/h (1 Bft)
27.04.2024 22:14 21,9 °C 8,0 °C 51 % 87 % 1010,1 hPa 0,0 l/m² 3,4 km/h (1 Bft) O-NO 59 ° 0 min 0 W/m² 6,0 °C 8,0 °C 4,8 km/h (1 Bft)
27.04.2024 22:15 21,9 °C 8,0 °C 51 % 87 % 1010,0 hPa 0,0 l/m² 2,4 km/h (1 Bft) O-NO 59 ° 0 min 0 W/m² 6,0 °C 8,0 °C 3,2 km/h (1 Bft)
27.04.2024 22:17 21,9 °C 8,0 °C 51 % 88 % 1010,0 hPa 0,0 l/m² 2,1 km/h (1 Bft) O-NO 59 ° 0 min 0 W/m² 6,1 °C 8,0 °C 3,2 km/h (1 Bft)
27.04.2024 22:18 21,9 °C 8,0 °C 51 % 88 % 1010,0 hPa 0,0 l/m² 1,9 km/h (1 Bft) O-NO 59 ° 0 min 0 W/m² 6,1 °C 8,0 °C 3,2 km/h (1 Bft)
27.04.2024 22:19 21,9 °C 8,0 °C 51 % 88 % 1010,0 hPa 0,0 l/m² 0,5 km/h (0 Bft) O-NO 59 ° 0 min 0 W/m² 6,1 °C 8,0 °C 1,6 km/h (1 Bft)
27.04.2024 22:20 21,9 °C 7,9 °C 51 % 88 % 1010,1 hPa 0,0 l/m² 0,0 km/h (0 Bft) O-NO 59 ° 0 min 0 W/m² 6,0 °C 7,9 °C 0,0 km/h (0 Bft)
27.04.2024 22:21 21,9 °C 7,9 °C 51 % 88 % 1010,0 hPa 0,0 l/m² 0,0 km/h (0 Bft) O-NO 59 ° 0 min 0 W/m² 6,0 °C 7,9 °C 0,0 km/h (0 Bft)
27.04.2024 22:22 21,9 °C 7,9 °C 51 % 88 % 1010,1 hPa 0,0 l/m² 0,0 km/h (0 Bft) O-NO 59 ° 0 min 0 W/m² 6,0 °C 7,9 °C 0,0 km/h (0 Bft)
27.04.2024 22:23 21,9 °C 7,9 °C 51 % 88 % 1010,2 hPa 0,0 l/m² 0,0 km/h (0 Bft) O-NO 59 ° 0 min 0 W/m² 6,0 °C 7,9 °C 0,0 km/h (0 Bft)
27.04.2024 22:24 21,9 °C 7,9 °C 51 % 88 % 1010,1 hPa 0,0 l/m² 0,0 km/h (0 Bft) O-NO 59 ° 0 min 0 W/m² 6,0 °C 7,9 °C 0,0 km/h (0 Bft)
27.04.2024 22:25 21,8 °C 7,9 °C 51 % 88 % 1010,2 hPa 0,0 l/m² 0,0 km/h (0 Bft) O-NO 59 ° 0 min 0 W/m² 6,0 °C 7,9 °C 0,0 km/h (0 Bft)
27.04.2024 22:26 21,9 °C 7,9 °C 51 % 89 % 1010,2 hPa 0,0 l/m² 0,0 km/h (0 Bft) O-NO 59 ° 0 min 0 W/m² 6,2 °C 7,9 °C 0,0 km/h (0 Bft)
27.04.2024 22:27 21,9 °C 8,0 °C 51 % 89 % 1010,1 hPa 0,0 l/m² 0,0 km/h (0 Bft) O-NO 59 ° 0 min 0 W/m² 6,3 °C 8,0 °C 0,0 km/h (0 Bft)
27.04.2024 22:28 21,8 °C 8,1 °C 51 % 89 % 1010,1 hPa 0,0 l/m² 0,0 km/h (0 Bft) O-NO 59 ° 0 min 0 W/m² 6,4 °C 8,1 °C 0,0 km/h (0 Bft)
27.04.2024 22:29 21,8 °C 8,1 °C 51 % 89 % 1010,2 hPa 0,0 l/m² 0,0 km/h (0 Bft) O-NO 59 ° 0 min 0 W/m² 6,4 °C 8,1 °C 0,0 km/h (0 Bft)
27.04.2024 22:30 21,8 °C 8,2 °C 51 % 89 % 1010,2 hPa 0,0 l/m² 0,0 km/h (0 Bft) O-NO 59 ° 0 min 0 W/m² 6,5 °C 8,2 °C 0,0 km/h (0 Bft)
27.04.2024 22:31 21,8 °C 8,2 °C 51 % 88 % 1010,1 hPa 0,0 l/m² 0,0 km/h (0 Bft) O-NO 59 ° 0 min 0 W/m² 6,3 °C 8,2 °C 0,0 km/h (0 Bft)
27.04.2024 22:32 21,8 °C 8,2 °C 51 % 88 % 1010,1 hPa 0,0 l/m² 0,0 km/h (0 Bft) O-NO 59 ° 0 min 0 W/m² 6,3 °C 8,2 °C 0,0 km/h (0 Bft)
27.04.2024 22:33 21,8 °C 8,2 °C 51 % 88 % 1010,1 hPa 0,0 l/m² 0,0 km/h (0 Bft) O-NO 59 ° 0 min 0 W/m² 6,3 °C 8,2 °C 0,0 km/h (0 Bft)
27.04.2024 22:34 21,8 °C 8,1 °C 51 % 87 % 1010,1 hPa 0,0 l/m² 0,0 km/h (0 Bft) O-NO 59 ° 0 min 0 W/m² 6,1 °C 8,1 °C 0,0 km/h (0 Bft)
27.04.2024 22:35 21,8 °C 8,1 °C 51 % 87 % 1010,2 hPa 0,0 l/m² 0,0 km/h (0 Bft) O-NO 59 ° 0 min 0 W/m² 6,1 °C 8,1 °C 0,0 km/h (0 Bft)
27.04.2024 22:36 21,8 °C 8,2 °C 51 % 88 % 1010,2 hPa 0,0 l/m² 0,0 km/h (0 Bft) O-NO 59 ° 0 min 0 W/m² 6,3 °C 8,2 °C 0,0 km/h (0 Bft)
27.04.2024 22:37 21,8 °C 8,2 °C 51 % 88 % 1010,2 hPa 0,0 l/m² 0,5 km/h (0 Bft) O-NO 59 ° 0 min 0 W/m² 6,3 °C 8,2 °C 3,2 km/h (1 Bft)
27.04.2024 22:38 21,8 °C 8,2 °C 51 % 88 % 1010,1 hPa 0,0 l/m² 2,3 km/h (1 Bft) O-NO 59 ° 0 min 0 W/m² 6,3 °C 8,2 °C 4,8 km/h (1 Bft)
27.04.2024 22:39 21,8 °C 8,2 °C 51 % 88 % 1010,1 hPa 0,0 l/m² 4,0 km/h (1 Bft) O-NO 59 ° 0 min 0 W/m² 6,3 °C 8,2 °C 4,8 km/h (1 Bft)
27.04.2024 22:40 21,8 °C 8,2 °C 51 % 88 % 1010,2 hPa 0,0 l/m² 4,8 km/h (1 Bft) O-NO 59 ° 0 min 0 W/m² 6,3 °C 8,2 °C 4,8 km/h (1 Bft)
27.04.2024 22:41 21,8 °C 8,2 °C 51 % 88 % 1010,2 hPa 0,0 l/m² 4,6 km/h (1 Bft) O-NO 59 ° 0 min 0 W/m² 6,3 °C 8,2 °C 4,8 km/h (1 Bft)
27.04.2024 22:42 21,8 °C 8,1 °C 51 % 88 % 1010,2 hPa 0,0 l/m² 5,1 km/h (1 Bft) O-NO 59 ° 0 min 0 W/m² 6,2 °C 8,1 °C 6,4 km/h (2 Bft)
27.04.2024 22:43 21,8 °C 7,9 °C 51 % 87 % 1010,2 hPa 0,0 l/m² 4,8 km/h (1 Bft) O-NO 59 ° 0 min 0 W/m² 5,9 °C 7,9 °C 6,4 km/h (2 Bft)
27.04.2024 22:44 21,8 °C 7,8 °C 51 % 87 % 1010,1 hPa 0,0 l/m² 4,2 km/h (1 Bft) O-NO 59 ° 0 min 0 W/m² 5,8 °C 7,8 °C 4,8 km/h (1 Bft)
27.04.2024 22:45 21,8 °C 7,6 °C 51 % 87 % 1010,2 hPa 0,0 l/m² 4,6 km/h (1 Bft) O-NO 59 ° 0 min 0 W/m² 5,6 °C 7,6 °C 6,4 km/h (2 Bft)
27.04.2024 22:46 21,8 °C 7,5 °C 51 % 87 % 1010,2 hPa 0,0 l/m² 5,0 km/h (1 Bft) O-NO 59 ° 0 min 0 W/m² 5,5 °C 7,5 °C 6,4 km/h (2 Bft)
27.04.2024 22:47 21,8 °C 7,4 °C 51 % 87 % 1010,2 hPa 0,0 l/m² 5,0 km/h (1 Bft) O-NO 59 ° 0 min 0 W/m² 5,4 °C 7,4 °C 6,4 km/h (2 Bft)
27.04.2024 22:48 21,7 °C 7,3 °C 51 % 87 % 1010,2 hPa 0,0 l/m² 4,9 km/h (1 Bft) O-NO 59 ° 0 min 0 W/m² 5,3 °C 7,3 °C 6,4 km/h (2 Bft)
27.04.2024 22:49 21,8 °C 7,2 °C 51 % 87 % 1010,2 hPa 0,0 l/m² 4,9 km/h (1 Bft) O-NO 59 ° 0 min 0 W/m² 5,2 °C 7,2 °C 6,4 km/h (2 Bft)
27.04.2024 22:50 21,8 °C 7,2 °C 51 % 88 % 1010,2 hPa 0,0 l/m² 4,6 km/h (1 Bft) O-NO 59 ° 0 min 0 W/m² 5,3 °C 7,2 °C 4,8 km/h (1 Bft)
27.04.2024 22:51 21,8 °C 7,1 °C 51 % 88 % 1010,2 hPa 0,0 l/m² 4,7 km/h (1 Bft) O-NO 59 ° 0 min 0 W/m² 5,2 °C 7,1 °C 4,8 km/h (1 Bft)
27.04.2024 22:52 21,8 °C 7,1 °C 51 % 88 % 1010,2 hPa 0,0 l/m² 5,0 km/h (1 Bft) O-NO 59 ° 0 min 0 W/m² 5,2 °C 7,1 °C 6,4 km/h (2 Bft)
27.04.2024 22:53 21,8 °C 7,1 °C 51 % 88 % 1010,2 hPa 0,0 l/m² 5,8 km/h (2 Bft) O-NO 59 ° 0 min 0 W/m² 5,2 °C 7,1 °C 6,4 km/h (2 Bft)
27.04.2024 22:54 21,8 °C 7,1 °C 51 % 88 % 1010,2 hPa 0,0 l/m² 5,2 km/h (1 Bft) O-NO 59 ° 0 min 0 W/m² 5,2 °C 7,1 °C 6,4 km/h (2 Bft)
27.04.2024 22:55 21,7 °C 7,1 °C 51 % 88 % 1010,2 hPa 0,0 l/m² 6,0 km/h (2 Bft) O-NO 59 ° 0 min 0 W/m² 5,2 °C 7,1 °C 6,4 km/h (2 Bft)
27.04.2024 22:56 21,7 °C 7,1 °C 51 % 88 % 1010,2 hPa 0,0 l/m² 5,4 km/h (2 Bft) O-NO 59 ° 0 min 0 W/m² 5,2 °C 7,1 °C 6,4 km/h (2 Bft)
27.04.2024 22:57 21,8 °C 7,1 °C 51 % 89 % 1010,2 hPa 0,0 l/m² 5,0 km/h (1 Bft) O-NO 59 ° 0 min 0 W/m² 5,4 °C 7,1 °C 6,4 km/h (2 Bft)
27.04.2024 22:58 21,7 °C 7,2 °C 51 % 89 % 1010,2 hPa 0,0 l/m² 5,4 km/h (2 Bft) O-NO 59 ° 0 min 0 W/m² 5,5 °C 7,2 °C 6,4 km/h (2 Bft)
27.04.2024 22:59 21,7 °C 7,1 °C 51 % 88 % 1010,2 hPa 0,0 l/m² 4,8 km/h (1 Bft) O-NO 59 ° 0 min 0 W/m² 5,2 °C 7,1 °C 4,8 km/h (1 Bft)
27.04.2024 23:00 21,7 °C 7,1 °C 51 % 88 % 1010,3 hPa 0,0 l/m² 4,6 km/h (1 Bft) O-NO 59 ° 0 min 0 W/m² 5,2 °C 7,1 °C 4,8 km/h (1 Bft)
27.04.2024 23:01 21,7 °C 7,1 °C 51 % 88 % 1010,2 hPa 0,0 l/m² 4,0 km/h (1 Bft) O-NO 59 ° 0 min 0 W/m² 5,2 °C 7,1 °C 4,8 km/h (1 Bft)
27.04.2024 23:02 21,8 °C 7,2 °C 51 % 89 % 1010,2 hPa 0,0 l/m² 5,0 km/h (1 Bft) O-NO 59 ° 0 min 0 W/m² 5,5 °C 7,2 °C 6,4 km/h (2 Bft)
27.04.2024 23:03 21,7 °C 7,2 °C 51 % 89 % 1010,2 hPa 0,0 l/m² 5,4 km/h (2 Bft) O-NO 59 ° 0 min 0 W/m² 5,5 °C 7,2 °C 6,4 km/h (2 Bft)
27.04.2024 23:04 21,7 °C 7,2 °C 51 % 89 % 1010,2 hPa 0,0 l/m² 5,2 km/h (1 Bft) O-NO 59 ° 0 min 0 W/m² 5,5 °C 7,2 °C 6,4 km/h (2 Bft)
27.04.2024 23:05 21,7 °C 7,3 °C 51 % 89 % 1010,3 hPa 0,0 l/m² 5,2 km/h (1 Bft) O-NO 59 ° 0 min 0 W/m² 5,6 °C 7,3 °C 6,4 km/h (2 Bft)
27.04.2024 23:06 21,7 °C 7,3 °C 51 % 89 % 1010,2 hPa 0,0 l/m² 4,8 km/h (1 Bft) O-NO 59 ° 0 min 0 W/m² 5,6 °C 7,3 °C 6,4 km/h (2 Bft)
27.04.2024 23:07 21,7 °C 7,2 °C 51 % 89 % 1010,3 hPa 0,0 l/m² 4,4 km/h (1 Bft) O-NO 59 ° 0 min 0 W/m² 5,5 °C 7,2 °C 6,4 km/h (2 Bft)
27.04.2024 23:08 21,7 °C 7,2 °C 51 % 89 % 1010,2 hPa 0,0 l/m² 5,4 km/h (2 Bft) O-NO 59 ° 0 min 0 W/m² 5,5 °C 7,2 °C 6,4 km/h (2 Bft)
27.04.2024 23:09 21,7 °C 7,2 °C 51 % 89 % 1010,2 hPa 0,0 l/m² 5,9 km/h (2 Bft) O-NO 59 ° 0 min 0 W/m² 5,5 °C 7,2 °C 6,4 km/h (2 Bft)
27.04.2024 23:10 21,7 °C 7,2 °C 51 % 89 % 1010,3 hPa 0,0 l/m² 5,7 km/h (2 Bft) O-NO 59 ° 0 min 0 W/m² 5,5 °C 7,2 °C 6,4 km/h (2 Bft)
27.04.2024 23:11 21,7 °C 7,2 °C 51 % 88 % 1010,3 hPa 0,0 l/m² 4,6 km/h (1 Bft) O-NO 59 ° 0 min 0 W/m² 5,3 °C 7,2 °C 6,4 km/h (2 Bft)
27.04.2024 23:12 21,7 °C 7,2 °C 51 % 89 % 1010,2 hPa 0,0 l/m² 4,8 km/h (1 Bft) O-NO 59 ° 0 min 0 W/m² 5,5 °C 7,2 °C 6,4 km/h (2 Bft)
27.04.2024 23:13 21,7 °C 7,2 °C 51 % 89 % 1010,2 hPa 0,0 l/m² 4,1 km/h (1 Bft) O-NO 59 ° 0 min 0 W/m² 5,5 °C 7,2 °C 4,8 km/h (1 Bft)
27.04.2024 23:14 21,7 °C 7,2 °C 51 % 89 % 1010,2 hPa 0,0 l/m² 5,0 km/h (1 Bft) O-NO 59 ° 0 min 0 W/m² 5,5 °C 7,2 °C 6,4 km/h (2 Bft)
27.04.2024 23:15 21,7 °C 7,2 °C 51 % 89 % 1010,1 hPa 0,0 l/m² 4,9 km/h (1 Bft) O-NO 59 ° 0 min 0 W/m² 5,5 °C 7,2 °C 6,4 km/h (2 Bft)
27.04.2024 23:16 21,7 °C 7,2 °C 51 % 88 % 1010,1 hPa 0,0 l/m² 4,8 km/h (1 Bft) O-NO 67 ° 0 min 0 W/m² 5,3 °C 7,2 °C 6,4 km/h (2 Bft)
27.04.2024 23:17 21,7 °C 7,2 °C 51 % 89 % 1010,2 hPa 0,0 l/m² 6,4 km/h (2 Bft) O-NO 67 ° 0 min 0 W/m² 5,5 °C 7,2 °C 6,4 km/h (2 Bft)
27.04.2024 23:22 21,7 °C 7,0 °C 51 % 88 % 1010,2 hPa 0,0 l/m² 7,5 km/h (2 Bft) O-NO 70 ° 0 min 0 W/m² 5,2 °C 6,1 °C 8,0 km/h (2 Bft)
27.04.2024 23:24 21,7 °C 6,9 °C 51 % 89 % 1010,3 hPa 0,0 l/m² 4,4 km/h (1 Bft) O-NO 70 ° 0 min 0 W/m² 5,2 °C 6,9 °C 6,4 km/h (2 Bft)
27.04.2024 23:25 21,7 °C 6,9 °C 51 % 89 % 1010,3 hPa 0,0 l/m² 4,5 km/h (1 Bft) O-NO 70 ° 0 min 0 W/m² 5,2 °C 6,9 °C 6,4 km/h (2 Bft)
27.04.2024 23:27 21,7 °C 6,9 °C 51 % 89 % 1010,2 hPa 0,0 l/m² 5,0 km/h (1 Bft) O-NO 70 ° 0 min 0 W/m² 5,2 °C 6,9 °C 6,4 km/h (2 Bft)
27.04.2024 23:29 21,7 °C 7,0 °C 51 % 89 % 1010,3 hPa 0,0 l/m² 4,9 km/h (1 Bft) O-NO 70 ° 0 min 0 W/m² 5,3 °C 7,0 °C 8,0 km/h (2 Bft)
27.04.2024 23:30 21,7 °C 7,0 °C 51 % 89 % 1010,2 hPa 0,0 l/m² 5,4 km/h (2 Bft) O-NO 70 ° 0 min 0 W/m² 5,3 °C 7,0 °C 6,4 km/h (2 Bft)
27.04.2024 23:31 21,7 °C 7,0 °C 51 % 89 % 1010,3 hPa 0,0 l/m² 5,0 km/h (1 Bft) O-NO 70 ° 0 min 0 W/m² 5,3 °C 7,0 °C 6,4 km/h (2 Bft)
27.04.2024 23:32 21,7 °C 7,0 °C 51 % 89 % 1010,3 hPa 0,0 l/m² 5,0 km/h (1 Bft) O-NO 70 ° 0 min 0 W/m² 5,3 °C 7,0 °C 6,4 km/h (2 Bft)
27.04.2024 23:34 21,7 °C 7,0 °C 51 % 89 % 1010,3 hPa 0,0 l/m² 4,3 km/h (1 Bft) O-NO 70 ° 0 min 0 W/m² 5,3 °C 7,0 °C 6,4 km/h (2 Bft)
27.04.2024 23:36 21,7 °C 7,1 °C 51 % 89 % 1010,3 hPa 0,0 l/m² 4,7 km/h (1 Bft) O-NO 70 ° 0 min 0 W/m² 5,4 °C 7,1 °C 6,4 km/h (2 Bft)
27.04.2024 23:38 21,7 °C 6,9 °C 51 % 89 % 1010,3 hPa 0,0 l/m² 3,8 km/h (1 Bft) O-NO 69 ° 0 min 0 W/m² 5,2 °C 6,9 °C 6,4 km/h (2 Bft)
27.04.2024 23:40 21,7 °C 7,0 °C 51 % 89 % 1010,4 hPa 0,0 l/m² 4,4 km/h (1 Bft) O-NO 69 ° 0 min 0 W/m² 5,3 °C 7,0 °C 6,4 km/h (2 Bft)
27.04.2024 23:41 21,7 °C 6,9 °C 51 % 89 % 1010,3 hPa 0,0 l/m² 5,1 km/h (1 Bft) O-NO 69 ° 0 min 0 W/m² 5,2 °C 6,9 °C 6,4 km/h (2 Bft)
27.04.2024 23:42 21,7 °C 6,9 °C 51 % 89 % 1010,3 hPa 0,0 l/m² 5,1 km/h (1 Bft) O-NO 69 ° 0 min 0 W/m² 5,2 °C 6,9 °C 6,4 km/h (2 Bft)
27.04.2024 23:44 21,7 °C 6,9 °C 51 % 89 % 1010,3 hPa 0,0 l/m² 6,2 km/h (2 Bft) O 82 ° 0 min 0 W/m² 5,2 °C 6,9 °C 8,0 km/h (2 Bft)
27.04.2024 23:46 21,7 °C 6,8 °C 51 % 89 % 1010,4 hPa 0,0 l/m² 6,2 km/h (2 Bft) O 85 ° 0 min 0 W/m² 5,1 °C 6,8 °C 8,0 km/h (2 Bft)
27.04.2024 23:48 21,7 °C 7,0 °C 51 % 89 % 1010,4 hPa 0,0 l/m² 7,1 km/h (2 Bft) O 84 ° 0 min 0 W/m² 5,3 °C 6,4 °C 8,0 km/h (2 Bft)
27.04.2024 23:50 21,7 °C 7,2 °C 51 % 89 % 1010,4 hPa 0,0 l/m² 7,4 km/h (2 Bft) O 84 ° 0 min 0 W/m² 5,5 °C 6,4 °C 11,3 km/h (2 Bft)
27.04.2024 23:51 21,7 °C 7,3 °C 51 % 89 % 1010,3 hPa 0,0 l/m² 8,6 km/h (2 Bft) O 84 ° 0 min 0 W/m² 5,6 °C 5,6 °C 11,3 km/h (2 Bft)
27.04.2024 23:52 21,7 °C 7,4 °C 51 % 89 % 1010,3 hPa 0,0 l/m² 10,9 km/h (2 Bft) O 84 ° 0 min 0 W/m² 5,7 °C 4,2 °C 12,9 km/h (3 Bft)
27.04.2024 23:54 21,7 °C 7,6 °C 51 % 88 % 1010,4 hPa 0,0 l/m² 8,8 km/h (2 Bft) O 86 ° 0 min 0 W/m² 5,7 °C 5,7 °C 11,3 km/h (2 Bft)
27.04.2024 23:56 21,7 °C 7,8 °C 51 % 88 % 1010,4 hPa 0,0 l/m² 9,7 km/h (2 Bft) O 91 ° 0 min 0 W/m² 5,9 °C 5,4 °C 12,9 km/h (3 Bft)
27.04.2024 23:58 21,7 °C 8,0 °C 51 % 87 % 1010,4 hPa 0,0 l/m² 9,8 km/h (2 Bft) O 88 ° 0 min 0 W/m² 6,0 °C 5,5 °C 11,3 km/h (2 Bft)
_ Min-Zeit 08:21 05:48 12:06 17:58 00:05 - 22:36 - - - - 05:48 05:48 22:36
Minimum _ 21,3 °C -0,6 °C 43 % 41 % 1008,4 hPa - 0,0 km/h (0 Bft) - - - - -1,6 °C -0,6 °C 0,0 km/h (0 Bft)
_ Max-Zeit 22:00 17:22 23:58 08:07 11:45 23:58 13:04 - - 18:45 14:16 13:10 17:22 13:02
Maximum _ 22,1 °C 21,5 °C 51 % 94 % 1010,7 hPa 0,0 l/m² 20,3 km/h
SO (4 Bft)
- - 2 min 951 W/m² 11,2 °C 21,5 °C 29,0 km/h
SO (5 Bft)
Durchschnitt _ 21,7 °C 10,6 °C 49 % 74 % 1009,8 hPa #0,0 l/m² 3,8 km/h (1 Bft) W - #12:38 h 245 W/m² 5,4 °C 10,2 °C 5,6 km/h (2 Bft)
© 2009 Mathias Hoßbach